<?xml version="1.0" encoding="UTF-8" standalone="no" ?>
<gpx xmlns="http://www.topografix.com/GPX/1/1" xmlns:xsi="http://www.w3.org/2001/XMLSchema-instance" xsi:schemaLocation="http://www.topografix.com/GPX/1/1 http://www.topografix.com/GPX/1/1/gpx.xsd" version="1.1" creator="VisuGPX - https://www.visugpx.com">
  <metadata>
    <name>GR6 étp 50 (18)-15/07/2020 Rocamadour Souillac</name>
  </metadata>
  <trk>
    <name><![CDATA[18-15/07/2020 Rocamadour Souillac]]></name>
    <trkseg>
      <trkpt lat="44.79829" lon="1.61773">
        <ele>143.37</ele>
        <time>2020-07-15T06:31:30Z</time>
      </trkpt>
      <trkpt lat="44.79821" lon="1.61772">
        <ele>142.89</ele>
        <time>2020-07-15T06:31:42Z</time>
      </trkpt>
      <trkpt lat="44.79805" lon="1.61767">
        <ele>141.45</ele>
        <time>2020-07-15T06:31:53Z</time>
      </trkpt>
      <trkpt lat="44.79795" lon="1.6176">
        <ele>138.57</ele>
        <time>2020-07-15T06:32:04Z</time>
      </trkpt>
      <trkpt lat="44.79788" lon="1.61758">
        <ele>135.68</ele>
        <time>2020-07-15T06:32:16Z</time>
      </trkpt>
      <trkpt lat="44.79767" lon="1.61749">
        <ele>133.28</ele>
        <time>2020-07-15T06:32:31Z</time>
      </trkpt>
      <trkpt lat="44.79738" lon="1.6175">
        <ele>130.4</ele>
        <time>2020-07-15T06:32:49Z</time>
      </trkpt>
      <trkpt lat="44.79709" lon="1.61737">
        <ele>127.99</ele>
        <time>2020-07-15T06:33:10Z</time>
      </trkpt>
      <trkpt lat="44.797" lon="1.61715">
        <ele>126.07</ele>
        <time>2020-07-15T06:33:24Z</time>
      </trkpt>
      <trkpt lat="44.79699" lon="1.61688">
        <ele>125.11</ele>
        <time>2020-07-15T06:33:42Z</time>
      </trkpt>
      <trkpt lat="44.79701" lon="1.61672">
        <ele>124.15</ele>
        <time>2020-07-15T06:33:59Z</time>
      </trkpt>
      <trkpt lat="44.797" lon="1.61656">
        <ele>122.71</ele>
        <time>2020-07-15T06:34:14Z</time>
      </trkpt>
      <trkpt lat="44.79691" lon="1.61633">
        <ele>119.34</ele>
        <time>2020-07-15T06:34:33Z</time>
      </trkpt>
      <trkpt lat="44.79678" lon="1.61622">
        <ele>116.94</ele>
        <time>2020-07-15T06:34:52Z</time>
      </trkpt>
      <trkpt lat="44.79679" lon="1.61619">
        <ele>117.42</ele>
        <time>2020-07-15T06:35:06Z</time>
      </trkpt>
      <trkpt lat="44.79676" lon="1.61614">
        <ele>117.42</ele>
        <time>2020-07-15T06:35:15Z</time>
      </trkpt>
      <trkpt lat="44.79678" lon="1.61583">
        <ele>116.94</ele>
        <time>2020-07-15T06:35:31Z</time>
      </trkpt>
      <trkpt lat="44.79669" lon="1.61553">
        <ele>116.94</ele>
        <time>2020-07-15T06:35:51Z</time>
      </trkpt>
      <trkpt lat="44.79668" lon="1.61547">
        <ele>118.38</ele>
        <time>2020-07-15T06:35:55Z</time>
      </trkpt>
      <trkpt lat="44.79656" lon="1.6152">
        <ele>118.86</ele>
        <time>2020-07-15T06:36:15Z</time>
      </trkpt>
      <trkpt lat="44.79647" lon="1.61494">
        <ele>118.86</ele>
        <time>2020-07-15T06:36:32Z</time>
      </trkpt>
      <trkpt lat="44.79637" lon="1.61465">
        <ele>119.34</ele>
        <time>2020-07-15T06:36:49Z</time>
      </trkpt>
      <trkpt lat="44.79627" lon="1.61437">
        <ele>119.34</ele>
        <time>2020-07-15T06:37:10Z</time>
      </trkpt>
      <trkpt lat="44.79626" lon="1.61412">
        <ele>119.34</ele>
        <time>2020-07-15T06:37:27Z</time>
      </trkpt>
      <trkpt lat="44.79625" lon="1.61385">
        <ele>119.82</ele>
        <time>2020-07-15T06:37:42Z</time>
      </trkpt>
      <trkpt lat="44.79627" lon="1.61357">
        <ele>118.86</ele>
        <time>2020-07-15T06:38:00Z</time>
      </trkpt>
      <trkpt lat="44.79628" lon="1.61355">
        <ele>118.38</ele>
        <time>2020-07-15T06:38:01Z</time>
      </trkpt>
      <trkpt lat="44.79639" lon="1.61336">
        <ele>118.38</ele>
        <time>2020-07-15T06:38:16Z</time>
      </trkpt>
      <trkpt lat="44.79655" lon="1.61314">
        <ele>118.38</ele>
        <time>2020-07-15T06:38:31Z</time>
      </trkpt>
      <trkpt lat="44.79668" lon="1.61301">
        <ele>118.38</ele>
        <time>2020-07-15T06:38:45Z</time>
      </trkpt>
      <trkpt lat="44.79684" lon="1.6128">
        <ele>117.9</ele>
        <time>2020-07-15T06:39:01Z</time>
      </trkpt>
      <trkpt lat="44.79692" lon="1.61244">
        <ele>117.9</ele>
        <time>2020-07-15T06:39:19Z</time>
      </trkpt>
      <trkpt lat="44.79694" lon="1.61232">
        <ele>117.42</ele>
        <time>2020-07-15T06:39:28Z</time>
      </trkpt>
      <trkpt lat="44.79695" lon="1.61223">
        <ele>117.42</ele>
        <time>2020-07-15T06:39:32Z</time>
      </trkpt>
      <trkpt lat="44.79694" lon="1.61191">
        <ele>117.42</ele>
        <time>2020-07-15T06:39:51Z</time>
      </trkpt>
      <trkpt lat="44.79698" lon="1.61172">
        <ele>117.42</ele>
        <time>2020-07-15T06:40:03Z</time>
      </trkpt>
      <trkpt lat="44.79705" lon="1.61141">
        <ele>116.94</ele>
        <time>2020-07-15T06:40:22Z</time>
      </trkpt>
      <trkpt lat="44.79711" lon="1.61111">
        <ele>117.42</ele>
        <time>2020-07-15T06:40:40Z</time>
      </trkpt>
      <trkpt lat="44.79717" lon="1.61081">
        <ele>116.94</ele>
        <time>2020-07-15T06:40:59Z</time>
      </trkpt>
      <trkpt lat="44.79722" lon="1.61057">
        <ele>117.42</ele>
        <time>2020-07-15T06:41:14Z</time>
      </trkpt>
      <trkpt lat="44.79726" lon="1.61034">
        <ele>118.86</ele>
        <time>2020-07-15T06:41:29Z</time>
      </trkpt>
      <trkpt lat="44.79718" lon="1.61012">
        <ele>118.86</ele>
        <time>2020-07-15T06:41:46Z</time>
      </trkpt>
      <trkpt lat="44.79711" lon="1.60999">
        <ele>118.86</ele>
        <time>2020-07-15T06:41:57Z</time>
      </trkpt>
      <trkpt lat="44.79705" lon="1.60993">
        <ele>117.42</ele>
        <time>2020-07-15T06:42:04Z</time>
      </trkpt>
      <trkpt lat="44.79693" lon="1.60974">
        <ele>117.42</ele>
        <time>2020-07-15T06:42:20Z</time>
      </trkpt>
      <trkpt lat="44.79691" lon="1.6097">
        <ele>117.42</ele>
        <time>2020-07-15T06:42:23Z</time>
      </trkpt>
      <trkpt lat="44.79673" lon="1.6095">
        <ele>116.94</ele>
        <time>2020-07-15T06:42:41Z</time>
      </trkpt>
      <trkpt lat="44.79659" lon="1.60925">
        <ele>116.46</ele>
        <time>2020-07-15T06:42:59Z</time>
      </trkpt>
      <trkpt lat="44.7965" lon="1.60913">
        <ele>116.46</ele>
        <time>2020-07-15T06:43:12Z</time>
      </trkpt>
      <trkpt lat="44.79645" lon="1.60908">
        <ele>116.46</ele>
        <time>2020-07-15T06:43:16Z</time>
      </trkpt>
      <trkpt lat="44.79629" lon="1.60886">
        <ele>116.46</ele>
        <time>2020-07-15T06:43:34Z</time>
      </trkpt>
      <trkpt lat="44.79626" lon="1.60884">
        <ele>116.46</ele>
        <time>2020-07-15T06:43:37Z</time>
      </trkpt>
      <trkpt lat="44.79618" lon="1.60879">
        <ele>117.9</ele>
        <time>2020-07-15T06:43:43Z</time>
      </trkpt>
      <trkpt lat="44.79601" lon="1.60863">
        <ele>118.38</ele>
        <time>2020-07-15T06:44:01Z</time>
      </trkpt>
      <trkpt lat="44.79588" lon="1.60848">
        <ele>118.38</ele>
        <time>2020-07-15T06:44:17Z</time>
      </trkpt>
      <trkpt lat="44.79583" lon="1.60842">
        <ele>117.42</ele>
        <time>2020-07-15T06:44:23Z</time>
      </trkpt>
      <trkpt lat="44.79568" lon="1.60831">
        <ele>117.42</ele>
        <time>2020-07-15T06:44:41Z</time>
      </trkpt>
      <trkpt lat="44.79546" lon="1.60814">
        <ele>117.9</ele>
        <time>2020-07-15T06:45:01Z</time>
      </trkpt>
      <trkpt lat="44.79542" lon="1.6081">
        <ele>117.9</ele>
        <time>2020-07-15T06:45:06Z</time>
      </trkpt>
      <trkpt lat="44.79539" lon="1.60807">
        <ele>117.9</ele>
        <time>2020-07-15T06:45:09Z</time>
      </trkpt>
      <trkpt lat="44.79525" lon="1.60794">
        <ele>119.34</ele>
        <time>2020-07-15T06:45:23Z</time>
      </trkpt>
      <trkpt lat="44.79514" lon="1.6078">
        <ele>119.34</ele>
        <time>2020-07-15T06:45:35Z</time>
      </trkpt>
      <trkpt lat="44.79508" lon="1.60752">
        <ele>119.34</ele>
        <time>2020-07-15T06:45:55Z</time>
      </trkpt>
      <trkpt lat="44.79509" lon="1.60723">
        <ele>119.34</ele>
        <time>2020-07-15T06:46:13Z</time>
      </trkpt>
      <trkpt lat="44.79509" lon="1.60706">
        <ele>119.34</ele>
        <time>2020-07-15T06:46:24Z</time>
      </trkpt>
      <trkpt lat="44.79513" lon="1.60673">
        <ele>118.38</ele>
        <time>2020-07-15T06:46:44Z</time>
      </trkpt>
      <trkpt lat="44.79519" lon="1.60647">
        <ele>119.82</ele>
        <time>2020-07-15T06:47:03Z</time>
      </trkpt>
      <trkpt lat="44.79525" lon="1.60639">
        <ele>118.38</ele>
        <time>2020-07-15T06:47:10Z</time>
      </trkpt>
      <trkpt lat="44.79529" lon="1.60632">
        <ele>119.34</ele>
        <time>2020-07-15T06:47:14Z</time>
      </trkpt>
      <trkpt lat="44.79533" lon="1.60624">
        <ele>117.9</ele>
        <time>2020-07-15T06:47:20Z</time>
      </trkpt>
      <trkpt lat="44.79535" lon="1.60619">
        <ele>118.86</ele>
        <time>2020-07-15T06:47:23Z</time>
      </trkpt>
      <trkpt lat="44.79546" lon="1.60607">
        <ele>117.9</ele>
        <time>2020-07-15T06:47:32Z</time>
      </trkpt>
      <trkpt lat="44.79552" lon="1.60594">
        <ele>119.34</ele>
        <time>2020-07-15T06:47:41Z</time>
      </trkpt>
      <trkpt lat="44.7955" lon="1.60562">
        <ele>117.9</ele>
        <time>2020-07-15T06:48:01Z</time>
      </trkpt>
      <trkpt lat="44.79558" lon="1.60534">
        <ele>118.86</ele>
        <time>2020-07-15T06:48:23Z</time>
      </trkpt>
      <trkpt lat="44.79568" lon="1.605">
        <ele>118.86</ele>
        <time>2020-07-15T06:48:44Z</time>
      </trkpt>
      <trkpt lat="44.79569" lon="1.60491">
        <ele>118.86</ele>
        <time>2020-07-15T06:48:50Z</time>
      </trkpt>
      <trkpt lat="44.79576" lon="1.60458">
        <ele>119.34</ele>
        <time>2020-07-15T06:49:10Z</time>
      </trkpt>
      <trkpt lat="44.79585" lon="1.60423">
        <ele>118.86</ele>
        <time>2020-07-15T06:49:30Z</time>
      </trkpt>
      <trkpt lat="44.79587" lon="1.60406">
        <ele>117.9</ele>
        <time>2020-07-15T06:49:41Z</time>
      </trkpt>
      <trkpt lat="44.79582" lon="1.60386">
        <ele>117.9</ele>
        <time>2020-07-15T06:49:54Z</time>
      </trkpt>
      <trkpt lat="44.79576" lon="1.6038">
        <ele>118.38</ele>
        <time>2020-07-15T06:49:59Z</time>
      </trkpt>
      <trkpt lat="44.79557" lon="1.60355">
        <ele>116.94</ele>
        <time>2020-07-15T06:50:18Z</time>
      </trkpt>
      <trkpt lat="44.79549" lon="1.60327">
        <ele>116.46</ele>
        <time>2020-07-15T06:50:38Z</time>
      </trkpt>
      <trkpt lat="44.79519" lon="1.60289">
        <ele>117.42</ele>
        <time>2020-07-15T06:51:01Z</time>
      </trkpt>
      <trkpt lat="44.79502" lon="1.6026">
        <ele>117.42</ele>
        <time>2020-07-15T06:51:22Z</time>
      </trkpt>
      <trkpt lat="44.79491" lon="1.60239">
        <ele>117.42</ele>
        <time>2020-07-15T06:51:37Z</time>
      </trkpt>
      <trkpt lat="44.79483" lon="1.60214">
        <ele>117.42</ele>
        <time>2020-07-15T06:51:55Z</time>
      </trkpt>
      <trkpt lat="44.79474" lon="1.60188">
        <ele>116.46</ele>
        <time>2020-07-15T06:52:11Z</time>
      </trkpt>
      <trkpt lat="44.79464" lon="1.6017">
        <ele>115.98</ele>
        <time>2020-07-15T06:52:26Z</time>
      </trkpt>
      <trkpt lat="44.7945" lon="1.60143">
        <ele>115.98</ele>
        <time>2020-07-15T06:52:47Z</time>
      </trkpt>
      <trkpt lat="44.79439" lon="1.60117">
        <ele>116.94</ele>
        <time>2020-07-15T06:53:08Z</time>
      </trkpt>
      <trkpt lat="44.79439" lon="1.601">
        <ele>116.94</ele>
        <time>2020-07-15T06:53:13Z</time>
      </trkpt>
      <trkpt lat="44.79436" lon="1.60076">
        <ele>118.86</ele>
        <time>2020-07-15T06:53:31Z</time>
      </trkpt>
      <trkpt lat="44.79442" lon="1.60061">
        <ele>119.34</ele>
        <time>2020-07-15T06:53:44Z</time>
      </trkpt>
      <trkpt lat="44.7946" lon="1.6003">
        <ele>119.82</ele>
        <time>2020-07-15T06:54:05Z</time>
      </trkpt>
      <trkpt lat="44.79481" lon="1.6001">
        <ele>120.3</ele>
        <time>2020-07-15T06:54:22Z</time>
      </trkpt>
      <trkpt lat="44.79514" lon="1.59992">
        <ele>120.78</ele>
        <time>2020-07-15T06:54:42Z</time>
      </trkpt>
      <trkpt lat="44.79546" lon="1.59977">
        <ele>121.26</ele>
        <time>2020-07-15T06:55:04Z</time>
      </trkpt>
      <trkpt lat="44.79562" lon="1.59962">
        <ele>122.22</ele>
        <time>2020-07-15T06:55:25Z</time>
      </trkpt>
      <trkpt lat="44.79541" lon="1.59934">
        <ele>121.26</ele>
        <time>2020-07-15T06:55:45Z</time>
      </trkpt>
      <trkpt lat="44.7954" lon="1.59932">
        <ele>121.26</ele>
        <time>2020-07-15T06:55:46Z</time>
      </trkpt>
      <trkpt lat="44.79537" lon="1.599">
        <ele>119.82</ele>
        <time>2020-07-15T06:56:10Z</time>
      </trkpt>
      <trkpt lat="44.79548" lon="1.59884">
        <ele>120.78</ele>
        <time>2020-07-15T06:56:30Z</time>
      </trkpt>
      <trkpt lat="44.79549" lon="1.59883">
        <ele>120.78</ele>
        <time>2020-07-15T06:56:31Z</time>
      </trkpt>
      <trkpt lat="44.79569" lon="1.59866">
        <ele>121.26</ele>
        <time>2020-07-15T06:56:54Z</time>
      </trkpt>
      <trkpt lat="44.79589" lon="1.59833">
        <ele>120.3</ele>
        <time>2020-07-15T06:57:18Z</time>
      </trkpt>
      <trkpt lat="44.79599" lon="1.59803">
        <ele>120.78</ele>
        <time>2020-07-15T06:57:38Z</time>
      </trkpt>
      <trkpt lat="44.79602" lon="1.59795">
        <ele>122.22</ele>
        <time>2020-07-15T06:57:44Z</time>
      </trkpt>
      <trkpt lat="44.79607" lon="1.59776">
        <ele>122.22</ele>
        <time>2020-07-15T06:58:01Z</time>
      </trkpt>
      <trkpt lat="44.79609" lon="1.59771">
        <ele>122.22</ele>
        <time>2020-07-15T06:58:18Z</time>
      </trkpt>
      <trkpt lat="44.79609" lon="1.59767">
        <ele>122.22</ele>
        <time>2020-07-15T06:58:42Z</time>
      </trkpt>
      <trkpt lat="44.7961" lon="1.59767">
        <ele>122.22</ele>
        <time>2020-07-15T06:59:05Z</time>
      </trkpt>
      <trkpt lat="44.79612" lon="1.59768">
        <ele>122.22</ele>
        <time>2020-07-15T06:59:27Z</time>
      </trkpt>
      <trkpt lat="44.79612" lon="1.59769">
        <ele>122.22</ele>
        <time>2020-07-15T06:59:58Z</time>
      </trkpt>
      <trkpt lat="44.79607" lon="1.59775">
        <ele>122.22</ele>
        <time>2020-07-15T07:00:27Z</time>
      </trkpt>
      <trkpt lat="44.79609" lon="1.59775">
        <ele>122.22</ele>
        <time>2020-07-15T07:00:55Z</time>
      </trkpt>
      <trkpt lat="44.79609" lon="1.59775">
        <ele>122.22</ele>
        <time>2020-07-15T07:01:28Z</time>
      </trkpt>
      <trkpt lat="44.79609" lon="1.59776">
        <ele>122.22</ele>
        <time>2020-07-15T07:01:52Z</time>
      </trkpt>
      <trkpt lat="44.79611" lon="1.59774">
        <ele>122.22</ele>
        <time>2020-07-15T07:02:15Z</time>
      </trkpt>
      <trkpt lat="44.79621" lon="1.59773">
        <ele>122.22</ele>
        <time>2020-07-15T07:02:48Z</time>
      </trkpt>
      <trkpt lat="44.79622" lon="1.59773">
        <ele>122.22</ele>
        <time>2020-07-15T07:03:10Z</time>
      </trkpt>
      <trkpt lat="44.79622" lon="1.59772">
        <ele>122.22</ele>
        <time>2020-07-15T07:03:31Z</time>
      </trkpt>
      <trkpt lat="44.79625" lon="1.59767">
        <ele>122.22</ele>
        <time>2020-07-15T07:03:48Z</time>
      </trkpt>
      <trkpt lat="44.79625" lon="1.59762">
        <ele>121.26</ele>
        <time>2020-07-15T07:04:12Z</time>
      </trkpt>
      <trkpt lat="44.79619" lon="1.59732">
        <ele>121.74</ele>
        <time>2020-07-15T07:04:30Z</time>
      </trkpt>
      <trkpt lat="44.79618" lon="1.59711">
        <ele>120.3</ele>
        <time>2020-07-15T07:04:47Z</time>
      </trkpt>
      <trkpt lat="44.79602" lon="1.59686">
        <ele>120.3</ele>
        <time>2020-07-15T07:05:07Z</time>
      </trkpt>
      <trkpt lat="44.79582" lon="1.59666">
        <ele>119.82</ele>
        <time>2020-07-15T07:05:27Z</time>
      </trkpt>
      <trkpt lat="44.79574" lon="1.59659">
        <ele>120.78</ele>
        <time>2020-07-15T07:05:34Z</time>
      </trkpt>
      <trkpt lat="44.79572" lon="1.59656">
        <ele>120.78</ele>
        <time>2020-07-15T07:05:38Z</time>
      </trkpt>
      <trkpt lat="44.79556" lon="1.59637">
        <ele>119.82</ele>
        <time>2020-07-15T07:05:59Z</time>
      </trkpt>
      <trkpt lat="44.7954" lon="1.59624">
        <ele>118.38</ele>
        <time>2020-07-15T07:06:15Z</time>
      </trkpt>
      <trkpt lat="44.79529" lon="1.59618">
        <ele>117.42</ele>
        <time>2020-07-15T07:06:21Z</time>
      </trkpt>
      <trkpt lat="44.79526" lon="1.59616">
        <ele>118.86</ele>
        <time>2020-07-15T07:06:23Z</time>
      </trkpt>
      <trkpt lat="44.79511" lon="1.59614">
        <ele>119.34</ele>
        <time>2020-07-15T07:06:40Z</time>
      </trkpt>
      <trkpt lat="44.7951" lon="1.59616">
        <ele>117.9</ele>
        <time>2020-07-15T07:06:44Z</time>
      </trkpt>
      <trkpt lat="44.79501" lon="1.59606">
        <ele>118.38</ele>
        <time>2020-07-15T07:07:02Z</time>
      </trkpt>
      <trkpt lat="44.79479" lon="1.59587">
        <ele>117.9</ele>
        <time>2020-07-15T07:07:24Z</time>
      </trkpt>
      <trkpt lat="44.79457" lon="1.59581">
        <ele>117.42</ele>
        <time>2020-07-15T07:07:43Z</time>
      </trkpt>
      <trkpt lat="44.79455" lon="1.59581">
        <ele>117.42</ele>
        <time>2020-07-15T07:07:44Z</time>
      </trkpt>
      <trkpt lat="44.79445" lon="1.59586">
        <ele>118.38</ele>
        <time>2020-07-15T07:07:53Z</time>
      </trkpt>
      <trkpt lat="44.79428" lon="1.59602">
        <ele>118.38</ele>
        <time>2020-07-15T07:08:13Z</time>
      </trkpt>
      <trkpt lat="44.79416" lon="1.59616">
        <ele>118.38</ele>
        <time>2020-07-15T07:08:27Z</time>
      </trkpt>
      <trkpt lat="44.7939" lon="1.59614">
        <ele>120.78</ele>
        <time>2020-07-15T07:08:51Z</time>
      </trkpt>
      <trkpt lat="44.79371" lon="1.59601">
        <ele>123.67</ele>
        <time>2020-07-15T07:09:15Z</time>
      </trkpt>
      <trkpt lat="44.79355" lon="1.59582">
        <ele>125.59</ele>
        <time>2020-07-15T07:09:39Z</time>
      </trkpt>
      <trkpt lat="44.79338" lon="1.59567">
        <ele>127.99</ele>
        <time>2020-07-15T07:10:00Z</time>
      </trkpt>
      <trkpt lat="44.79317" lon="1.5955">
        <ele>129.43</ele>
        <time>2020-07-15T07:10:21Z</time>
      </trkpt>
      <trkpt lat="44.79296" lon="1.59527">
        <ele>131.36</ele>
        <time>2020-07-15T07:10:42Z</time>
      </trkpt>
      <trkpt lat="44.7928" lon="1.59505">
        <ele>133.28</ele>
        <time>2020-07-15T07:11:03Z</time>
      </trkpt>
      <trkpt lat="44.79272" lon="1.59484">
        <ele>134.72</ele>
        <time>2020-07-15T07:11:22Z</time>
      </trkpt>
      <trkpt lat="44.79265" lon="1.59458">
        <ele>136.64</ele>
        <time>2020-07-15T07:11:43Z</time>
      </trkpt>
      <trkpt lat="44.79257" lon="1.59432">
        <ele>138.09</ele>
        <time>2020-07-15T07:12:05Z</time>
      </trkpt>
      <trkpt lat="44.79244" lon="1.59405">
        <ele>140.01</ele>
        <time>2020-07-15T07:12:27Z</time>
      </trkpt>
      <trkpt lat="44.79231" lon="1.59382">
        <ele>141.45</ele>
        <time>2020-07-15T07:12:48Z</time>
      </trkpt>
      <trkpt lat="44.79231" lon="1.59372">
        <ele>141.93</ele>
        <time>2020-07-15T07:13:10Z</time>
      </trkpt>
      <trkpt lat="44.79228" lon="1.59369">
        <ele>141.93</ele>
        <time>2020-07-15T07:13:37Z</time>
      </trkpt>
      <trkpt lat="44.79221" lon="1.59371">
        <ele>141.93</ele>
        <time>2020-07-15T07:14:03Z</time>
      </trkpt>
      <trkpt lat="44.79217" lon="1.59354">
        <ele>141.93</ele>
        <time>2020-07-15T07:14:27Z</time>
      </trkpt>
      <trkpt lat="44.79233" lon="1.59336">
        <ele>142.89</ele>
        <time>2020-07-15T07:14:47Z</time>
      </trkpt>
      <trkpt lat="44.79249" lon="1.59305">
        <ele>145.78</ele>
        <time>2020-07-15T07:15:10Z</time>
      </trkpt>
      <trkpt lat="44.79254" lon="1.59279">
        <ele>147.22</ele>
        <time>2020-07-15T07:15:30Z</time>
      </trkpt>
      <trkpt lat="44.79262" lon="1.59245">
        <ele>150.1</ele>
        <time>2020-07-15T07:15:54Z</time>
      </trkpt>
      <trkpt lat="44.7927" lon="1.59222">
        <ele>152.51</ele>
        <time>2020-07-15T07:16:15Z</time>
      </trkpt>
      <trkpt lat="44.79273" lon="1.59181">
        <ele>154.43</ele>
        <time>2020-07-15T07:16:40Z</time>
      </trkpt>
      <trkpt lat="44.79277" lon="1.59162">
        <ele>156.35</ele>
        <time>2020-07-15T07:16:55Z</time>
      </trkpt>
      <trkpt lat="44.79275" lon="1.59158">
        <ele>156.83</ele>
        <time>2020-07-15T07:17:19Z</time>
      </trkpt>
      <trkpt lat="44.79275" lon="1.59157">
        <ele>156.83</ele>
        <time>2020-07-15T07:17:43Z</time>
      </trkpt>
      <trkpt lat="44.79278" lon="1.59158">
        <ele>157.31</ele>
        <time>2020-07-15T07:18:02Z</time>
      </trkpt>
      <trkpt lat="44.79278" lon="1.59161">
        <ele>155.39</ele>
        <time>2020-07-15T07:18:25Z</time>
      </trkpt>
      <trkpt lat="44.79279" lon="1.59159">
        <ele>157.31</ele>
        <time>2020-07-15T07:18:44Z</time>
      </trkpt>
      <trkpt lat="44.79288" lon="1.59164">
        <ele>155.39</ele>
        <time>2020-07-15T07:19:03Z</time>
      </trkpt>
      <trkpt lat="44.7929" lon="1.59166">
        <ele>155.39</ele>
        <time>2020-07-15T07:19:32Z</time>
      </trkpt>
      <trkpt lat="44.7929" lon="1.59163">
        <ele>156.35</ele>
        <time>2020-07-15T07:19:43Z</time>
      </trkpt>
      <trkpt lat="44.79283" lon="1.59157">
        <ele>157.79</ele>
        <time>2020-07-15T07:20:02Z</time>
      </trkpt>
      <trkpt lat="44.79277" lon="1.59132">
        <ele>157.79</ele>
        <time>2020-07-15T07:20:21Z</time>
      </trkpt>
      <trkpt lat="44.79276" lon="1.59116">
        <ele>157.31</ele>
        <time>2020-07-15T07:20:36Z</time>
      </trkpt>
      <trkpt lat="44.79274" lon="1.5911">
        <ele>156.83</ele>
        <time>2020-07-15T07:20:41Z</time>
      </trkpt>
      <trkpt lat="44.79272" lon="1.59111">
        <ele>153.95</ele>
        <time>2020-07-15T07:20:56Z</time>
      </trkpt>
      <trkpt lat="44.79274" lon="1.59105">
        <ele>157.31</ele>
        <time>2020-07-15T07:21:17Z</time>
      </trkpt>
      <trkpt lat="44.79275" lon="1.59105">
        <ele>157.31</ele>
        <time>2020-07-15T07:21:18Z</time>
      </trkpt>
      <trkpt lat="44.79276" lon="1.59096">
        <ele>155.87</ele>
        <time>2020-07-15T07:21:35Z</time>
      </trkpt>
      <trkpt lat="44.79278" lon="1.59086">
        <ele>155.39</ele>
        <time>2020-07-15T07:21:45Z</time>
      </trkpt>
      <trkpt lat="44.79279" lon="1.5908">
        <ele>155.39</ele>
        <time>2020-07-15T07:21:49Z</time>
      </trkpt>
      <trkpt lat="44.79279" lon="1.59045">
        <ele>154.43</ele>
        <time>2020-07-15T07:22:12Z</time>
      </trkpt>
      <trkpt lat="44.79279" lon="1.59009">
        <ele>152.51</ele>
        <time>2020-07-15T07:22:35Z</time>
      </trkpt>
      <trkpt lat="44.79276" lon="1.58985">
        <ele>152.03</ele>
        <time>2020-07-15T07:22:49Z</time>
      </trkpt>
      <trkpt lat="44.79273" lon="1.58976">
        <ele>152.03</ele>
        <time>2020-07-15T07:23:06Z</time>
      </trkpt>
      <trkpt lat="44.79272" lon="1.58966">
        <ele>152.03</ele>
        <time>2020-07-15T07:23:29Z</time>
      </trkpt>
      <trkpt lat="44.79272" lon="1.58959">
        <ele>152.51</ele>
        <time>2020-07-15T07:23:34Z</time>
      </trkpt>
      <trkpt lat="44.79272" lon="1.58955">
        <ele>150.1</ele>
        <time>2020-07-15T07:23:37Z</time>
      </trkpt>
      <trkpt lat="44.79272" lon="1.58917">
        <ele>148.66</ele>
        <time>2020-07-15T07:24:01Z</time>
      </trkpt>
      <trkpt lat="44.79271" lon="1.58883">
        <ele>148.18</ele>
        <time>2020-07-15T07:24:20Z</time>
      </trkpt>
      <trkpt lat="44.79269" lon="1.58875">
        <ele>146.74</ele>
        <time>2020-07-15T07:24:24Z</time>
      </trkpt>
      <trkpt lat="44.79268" lon="1.58853">
        <ele>146.26</ele>
        <time>2020-07-15T07:24:34Z</time>
      </trkpt>
      <trkpt lat="44.79266" lon="1.58847">
        <ele>146.26</ele>
        <time>2020-07-15T07:24:37Z</time>
      </trkpt>
      <trkpt lat="44.79266" lon="1.58836">
        <ele>145.78</ele>
        <time>2020-07-15T07:24:43Z</time>
      </trkpt>
      <trkpt lat="44.79265" lon="1.58788">
        <ele>143.85</ele>
        <time>2020-07-15T07:25:05Z</time>
      </trkpt>
      <trkpt lat="44.79263" lon="1.58753">
        <ele>142.41</ele>
        <time>2020-07-15T07:25:25Z</time>
      </trkpt>
      <trkpt lat="44.7926" lon="1.5873">
        <ele>140.97</ele>
        <time>2020-07-15T07:25:37Z</time>
      </trkpt>
      <trkpt lat="44.7926" lon="1.58727">
        <ele>142.41</ele>
        <time>2020-07-15T07:25:39Z</time>
      </trkpt>
      <trkpt lat="44.79256" lon="1.58695">
        <ele>141.45</ele>
        <time>2020-07-15T07:25:56Z</time>
      </trkpt>
      <trkpt lat="44.79256" lon="1.5869">
        <ele>140.01</ele>
        <time>2020-07-15T07:25:59Z</time>
      </trkpt>
      <trkpt lat="44.79248" lon="1.58656">
        <ele>138.57</ele>
        <time>2020-07-15T07:26:17Z</time>
      </trkpt>
      <trkpt lat="44.79244" lon="1.58627">
        <ele>138.57</ele>
        <time>2020-07-15T07:26:33Z</time>
      </trkpt>
      <trkpt lat="44.79239" lon="1.58612">
        <ele>137.13</ele>
        <time>2020-07-15T07:26:45Z</time>
      </trkpt>
      <trkpt lat="44.79231" lon="1.58585">
        <ele>137.61</ele>
        <time>2020-07-15T07:27:02Z</time>
      </trkpt>
      <trkpt lat="44.79225" lon="1.58574">
        <ele>136.16</ele>
        <time>2020-07-15T07:27:10Z</time>
      </trkpt>
      <trkpt lat="44.79216" lon="1.58551">
        <ele>137.13</ele>
        <time>2020-07-15T07:27:23Z</time>
      </trkpt>
      <trkpt lat="44.79206" lon="1.58531">
        <ele>135.68</ele>
        <time>2020-07-15T07:27:40Z</time>
      </trkpt>
      <trkpt lat="44.79194" lon="1.58499">
        <ele>135.2</ele>
        <time>2020-07-15T07:28:01Z</time>
      </trkpt>
      <trkpt lat="44.79194" lon="1.58497">
        <ele>134.72</ele>
        <time>2020-07-15T07:28:02Z</time>
      </trkpt>
      <trkpt lat="44.79185" lon="1.5846">
        <ele>133.76</ele>
        <time>2020-07-15T07:28:26Z</time>
      </trkpt>
      <trkpt lat="44.79178" lon="1.58431">
        <ele>131.84</ele>
        <time>2020-07-15T07:28:44Z</time>
      </trkpt>
      <trkpt lat="44.79176" lon="1.58414">
        <ele>131.84</ele>
        <time>2020-07-15T07:28:54Z</time>
      </trkpt>
      <trkpt lat="44.79174" lon="1.58404">
        <ele>131.84</ele>
        <time>2020-07-15T07:28:59Z</time>
      </trkpt>
      <trkpt lat="44.79174" lon="1.58395">
        <ele>131.84</ele>
        <time>2020-07-15T07:29:06Z</time>
      </trkpt>
      <trkpt lat="44.79173" lon="1.58389">
        <ele>131.84</ele>
        <time>2020-07-15T07:29:09Z</time>
      </trkpt>
      <trkpt lat="44.79169" lon="1.58356">
        <ele>129.92</ele>
        <time>2020-07-15T07:29:29Z</time>
      </trkpt>
      <trkpt lat="44.79171" lon="1.58331">
        <ele>128.47</ele>
        <time>2020-07-15T07:29:47Z</time>
      </trkpt>
      <trkpt lat="44.79179" lon="1.58297">
        <ele>125.59</ele>
        <time>2020-07-15T07:30:10Z</time>
      </trkpt>
      <trkpt lat="44.79176" lon="1.58296">
        <ele>125.59</ele>
        <time>2020-07-15T07:30:34Z</time>
      </trkpt>
      <trkpt lat="44.79181" lon="1.58287">
        <ele>125.11</ele>
        <time>2020-07-15T07:31:06Z</time>
      </trkpt>
      <trkpt lat="44.79182" lon="1.58284">
        <ele>125.11</ele>
        <time>2020-07-15T07:31:08Z</time>
      </trkpt>
      <trkpt lat="44.79186" lon="1.58273">
        <ele>125.11</ele>
        <time>2020-07-15T07:31:16Z</time>
      </trkpt>
      <trkpt lat="44.79186" lon="1.58248">
        <ele>123.67</ele>
        <time>2020-07-15T07:31:29Z</time>
      </trkpt>
      <trkpt lat="44.79177" lon="1.58233">
        <ele>126.07</ele>
        <time>2020-07-15T07:31:44Z</time>
      </trkpt>
      <trkpt lat="44.79166" lon="1.58219">
        <ele>128.47</ele>
        <time>2020-07-15T07:32:02Z</time>
      </trkpt>
      <trkpt lat="44.79161" lon="1.58192">
        <ele>129.92</ele>
        <time>2020-07-15T07:32:21Z</time>
      </trkpt>
      <trkpt lat="44.79155" lon="1.58161">
        <ele>130.88</ele>
        <time>2020-07-15T07:32:41Z</time>
      </trkpt>
      <trkpt lat="44.79153" lon="1.58147">
        <ele>131.36</ele>
        <time>2020-07-15T07:32:51Z</time>
      </trkpt>
      <trkpt lat="44.79149" lon="1.5812">
        <ele>130.4</ele>
        <time>2020-07-15T07:33:08Z</time>
      </trkpt>
      <trkpt lat="44.79144" lon="1.5809">
        <ele>130.88</ele>
        <time>2020-07-15T07:33:27Z</time>
      </trkpt>
      <trkpt lat="44.79143" lon="1.58085">
        <ele>132.32</ele>
        <time>2020-07-15T07:33:30Z</time>
      </trkpt>
      <trkpt lat="44.79143" lon="1.58059">
        <ele>132.32</ele>
        <time>2020-07-15T07:33:48Z</time>
      </trkpt>
      <trkpt lat="44.79141" lon="1.58028">
        <ele>132.8</ele>
        <time>2020-07-15T07:34:06Z</time>
      </trkpt>
      <trkpt lat="44.79139" lon="1.57996">
        <ele>132.8</ele>
        <time>2020-07-15T07:34:26Z</time>
      </trkpt>
      <trkpt lat="44.79139" lon="1.57968">
        <ele>130.4</ele>
        <time>2020-07-15T07:34:45Z</time>
      </trkpt>
      <trkpt lat="44.79139" lon="1.57961">
        <ele>132.32</ele>
        <time>2020-07-15T07:34:49Z</time>
      </trkpt>
      <trkpt lat="44.7914" lon="1.57949">
        <ele>130.88</ele>
        <time>2020-07-15T07:34:57Z</time>
      </trkpt>
      <trkpt lat="44.79139" lon="1.57946">
        <ele>130.88</ele>
        <time>2020-07-15T07:35:00Z</time>
      </trkpt>
      <trkpt lat="44.79136" lon="1.5791">
        <ele>131.84</ele>
        <time>2020-07-15T07:35:22Z</time>
      </trkpt>
      <trkpt lat="44.79135" lon="1.57906">
        <ele>131.84</ele>
        <time>2020-07-15T07:35:25Z</time>
      </trkpt>
      <trkpt lat="44.79137" lon="1.5789">
        <ele>132.8</ele>
        <time>2020-07-15T07:35:37Z</time>
      </trkpt>
      <trkpt lat="44.79138" lon="1.5786">
        <ele>133.76</ele>
        <time>2020-07-15T07:35:57Z</time>
      </trkpt>
      <trkpt lat="44.79142" lon="1.57828">
        <ele>135.2</ele>
        <time>2020-07-15T07:36:18Z</time>
      </trkpt>
      <trkpt lat="44.79145" lon="1.5781">
        <ele>135.68</ele>
        <time>2020-07-15T07:36:29Z</time>
      </trkpt>
      <trkpt lat="44.79149" lon="1.57798">
        <ele>136.16</ele>
        <time>2020-07-15T07:36:38Z</time>
      </trkpt>
      <trkpt lat="44.79151" lon="1.57796">
        <ele>136.16</ele>
        <time>2020-07-15T07:36:40Z</time>
      </trkpt>
      <trkpt lat="44.79159" lon="1.57771">
        <ele>136.64</ele>
        <time>2020-07-15T07:36:58Z</time>
      </trkpt>
      <trkpt lat="44.79161" lon="1.57763">
        <ele>135.2</ele>
        <time>2020-07-15T07:37:03Z</time>
      </trkpt>
      <trkpt lat="44.79164" lon="1.57742">
        <ele>133.76</ele>
        <time>2020-07-15T07:37:17Z</time>
      </trkpt>
      <trkpt lat="44.7917" lon="1.57719">
        <ele>132.8</ele>
        <time>2020-07-15T07:37:32Z</time>
      </trkpt>
      <trkpt lat="44.79172" lon="1.57711">
        <ele>131.84</ele>
        <time>2020-07-15T07:37:37Z</time>
      </trkpt>
      <trkpt lat="44.79176" lon="1.57694">
        <ele>130.4</ele>
        <time>2020-07-15T07:37:48Z</time>
      </trkpt>
      <trkpt lat="44.79183" lon="1.57662">
        <ele>128.95</ele>
        <time>2020-07-15T07:38:09Z</time>
      </trkpt>
      <trkpt lat="44.79193" lon="1.57632">
        <ele>127.99</ele>
        <time>2020-07-15T07:38:29Z</time>
      </trkpt>
      <trkpt lat="44.79203" lon="1.57608">
        <ele>126.07</ele>
        <time>2020-07-15T07:38:46Z</time>
      </trkpt>
      <trkpt lat="44.79214" lon="1.57588">
        <ele>126.55</ele>
        <time>2020-07-15T07:39:01Z</time>
      </trkpt>
      <trkpt lat="44.79224" lon="1.5757">
        <ele>126.07</ele>
        <time>2020-07-15T07:39:14Z</time>
      </trkpt>
      <trkpt lat="44.79238" lon="1.57548">
        <ele>125.59</ele>
        <time>2020-07-15T07:39:32Z</time>
      </trkpt>
      <trkpt lat="44.79251" lon="1.57529">
        <ele>124.63</ele>
        <time>2020-07-15T07:39:49Z</time>
      </trkpt>
      <trkpt lat="44.7926" lon="1.57517">
        <ele>123.19</ele>
        <time>2020-07-15T07:40:04Z</time>
      </trkpt>
      <trkpt lat="44.79262" lon="1.57505">
        <ele>122.71</ele>
        <time>2020-07-15T07:40:28Z</time>
      </trkpt>
      <trkpt lat="44.79277" lon="1.57483">
        <ele>119.82</ele>
        <time>2020-07-15T07:40:49Z</time>
      </trkpt>
      <trkpt lat="44.7929" lon="1.57471">
        <ele>118.86</ele>
        <time>2020-07-15T07:41:06Z</time>
      </trkpt>
      <trkpt lat="44.79305" lon="1.57448">
        <ele>117.9</ele>
        <time>2020-07-15T07:41:24Z</time>
      </trkpt>
      <trkpt lat="44.79319" lon="1.57423">
        <ele>117.9</ele>
        <time>2020-07-15T07:41:42Z</time>
      </trkpt>
      <trkpt lat="44.79327" lon="1.57397">
        <ele>119.34</ele>
        <time>2020-07-15T07:42:00Z</time>
      </trkpt>
      <trkpt lat="44.79329" lon="1.57374">
        <ele>120.78</ele>
        <time>2020-07-15T07:42:16Z</time>
      </trkpt>
      <trkpt lat="44.79334" lon="1.5735">
        <ele>121.26</ele>
        <time>2020-07-15T07:42:33Z</time>
      </trkpt>
      <trkpt lat="44.79338" lon="1.57342">
        <ele>121.74</ele>
        <time>2020-07-15T07:42:39Z</time>
      </trkpt>
      <trkpt lat="44.79339" lon="1.5734">
        <ele>122.22</ele>
        <time>2020-07-15T07:42:41Z</time>
      </trkpt>
      <trkpt lat="44.7934" lon="1.57336">
        <ele>122.22</ele>
        <time>2020-07-15T07:42:44Z</time>
      </trkpt>
      <trkpt lat="44.79354" lon="1.57313">
        <ele>123.67</ele>
        <time>2020-07-15T07:43:05Z</time>
      </trkpt>
      <trkpt lat="44.79354" lon="1.57312">
        <ele>123.67</ele>
        <time>2020-07-15T07:43:06Z</time>
      </trkpt>
      <trkpt lat="44.79359" lon="1.57305">
        <ele>124.63</ele>
        <time>2020-07-15T07:43:13Z</time>
      </trkpt>
      <trkpt lat="44.79362" lon="1.57294">
        <ele>124.63</ele>
        <time>2020-07-15T07:43:21Z</time>
      </trkpt>
      <trkpt lat="44.79366" lon="1.57279">
        <ele>124.63</ele>
        <time>2020-07-15T07:43:30Z</time>
      </trkpt>
      <trkpt lat="44.79376" lon="1.57255">
        <ele>123.67</ele>
        <time>2020-07-15T07:43:48Z</time>
      </trkpt>
      <trkpt lat="44.79387" lon="1.57239">
        <ele>123.67</ele>
        <time>2020-07-15T07:44:04Z</time>
      </trkpt>
      <trkpt lat="44.79397" lon="1.57217">
        <ele>125.11</ele>
        <time>2020-07-15T07:44:20Z</time>
      </trkpt>
      <trkpt lat="44.79404" lon="1.57211">
        <ele>125.11</ele>
        <time>2020-07-15T07:44:30Z</time>
      </trkpt>
      <trkpt lat="44.79418" lon="1.57198">
        <ele>125.11</ele>
        <time>2020-07-15T07:44:47Z</time>
      </trkpt>
      <trkpt lat="44.79439" lon="1.57174">
        <ele>126.55</ele>
        <time>2020-07-15T07:45:10Z</time>
      </trkpt>
      <trkpt lat="44.79444" lon="1.57167">
        <ele>127.03</ele>
        <time>2020-07-15T07:45:16Z</time>
      </trkpt>
      <trkpt lat="44.79462" lon="1.5715">
        <ele>127.51</ele>
        <time>2020-07-15T07:45:35Z</time>
      </trkpt>
      <trkpt lat="44.79476" lon="1.57126">
        <ele>127.99</ele>
        <time>2020-07-15T07:45:54Z</time>
      </trkpt>
      <trkpt lat="44.79488" lon="1.57113">
        <ele>127.99</ele>
        <time>2020-07-15T07:46:07Z</time>
      </trkpt>
      <trkpt lat="44.7949" lon="1.57108">
        <ele>126.55</ele>
        <time>2020-07-15T07:46:11Z</time>
      </trkpt>
      <trkpt lat="44.79508" lon="1.57081">
        <ele>127.03</ele>
        <time>2020-07-15T07:46:32Z</time>
      </trkpt>
      <trkpt lat="44.79512" lon="1.57076">
        <ele>127.03</ele>
        <time>2020-07-15T07:46:36Z</time>
      </trkpt>
      <trkpt lat="44.79526" lon="1.57055">
        <ele>127.99</ele>
        <time>2020-07-15T07:46:54Z</time>
      </trkpt>
      <trkpt lat="44.79534" lon="1.57047">
        <ele>128.95</ele>
        <time>2020-07-15T07:47:03Z</time>
      </trkpt>
      <trkpt lat="44.7955" lon="1.57025">
        <ele>130.4</ele>
        <time>2020-07-15T07:47:22Z</time>
      </trkpt>
      <trkpt lat="44.79564" lon="1.57004">
        <ele>131.84</ele>
        <time>2020-07-15T07:47:43Z</time>
      </trkpt>
      <trkpt lat="44.79574" lon="1.56986">
        <ele>133.76</ele>
        <time>2020-07-15T07:47:59Z</time>
      </trkpt>
      <trkpt lat="44.79588" lon="1.56974">
        <ele>135.2</ele>
        <time>2020-07-15T07:48:17Z</time>
      </trkpt>
      <trkpt lat="44.79588" lon="1.56947">
        <ele>136.16</ele>
        <time>2020-07-15T07:48:37Z</time>
      </trkpt>
      <trkpt lat="44.79587" lon="1.56944">
        <ele>136.64</ele>
        <time>2020-07-15T07:48:38Z</time>
      </trkpt>
      <trkpt lat="44.79589" lon="1.56925">
        <ele>136.64</ele>
        <time>2020-07-15T07:48:54Z</time>
      </trkpt>
      <trkpt lat="44.79588" lon="1.56934">
        <ele>136.64</ele>
        <time>2020-07-15T07:49:16Z</time>
      </trkpt>
      <trkpt lat="44.79591" lon="1.56928">
        <ele>137.13</ele>
        <time>2020-07-15T07:49:30Z</time>
      </trkpt>
      <trkpt lat="44.79591" lon="1.56929">
        <ele>137.61</ele>
        <time>2020-07-15T07:50:08Z</time>
      </trkpt>
      <trkpt lat="44.79592" lon="1.56929">
        <ele>137.61</ele>
        <time>2020-07-15T07:50:35Z</time>
      </trkpt>
      <trkpt lat="44.79591" lon="1.56929">
        <ele>137.61</ele>
        <time>2020-07-15T07:51:00Z</time>
      </trkpt>
      <trkpt lat="44.79588" lon="1.56932">
        <ele>137.61</ele>
        <time>2020-07-15T07:51:34Z</time>
      </trkpt>
      <trkpt lat="44.79586" lon="1.56925">
        <ele>137.61</ele>
        <time>2020-07-15T07:52:09Z</time>
      </trkpt>
      <trkpt lat="44.79586" lon="1.56926">
        <ele>138.09</ele>
        <time>2020-07-15T07:52:44Z</time>
      </trkpt>
      <trkpt lat="44.79593" lon="1.56915">
        <ele>138.09</ele>
        <time>2020-07-15T07:53:02Z</time>
      </trkpt>
      <trkpt lat="44.79597" lon="1.56911">
        <ele>138.57</ele>
        <time>2020-07-15T07:53:07Z</time>
      </trkpt>
      <trkpt lat="44.796" lon="1.56903">
        <ele>139.05</ele>
        <time>2020-07-15T07:53:15Z</time>
      </trkpt>
      <trkpt lat="44.79601" lon="1.56898">
        <ele>140.01</ele>
        <time>2020-07-15T07:53:20Z</time>
      </trkpt>
      <trkpt lat="44.79593" lon="1.56868">
        <ele>137.61</ele>
        <time>2020-07-15T07:53:40Z</time>
      </trkpt>
      <trkpt lat="44.79588" lon="1.56856">
        <ele>136.64</ele>
        <time>2020-07-15T07:53:54Z</time>
      </trkpt>
      <trkpt lat="44.79587" lon="1.56847">
        <ele>136.64</ele>
        <time>2020-07-15T07:53:59Z</time>
      </trkpt>
      <trkpt lat="44.79579" lon="1.5682">
        <ele>137.61</ele>
        <time>2020-07-15T07:54:17Z</time>
      </trkpt>
      <trkpt lat="44.79564" lon="1.56804">
        <ele>137.61</ele>
        <time>2020-07-15T07:54:34Z</time>
      </trkpt>
      <trkpt lat="44.79553" lon="1.56794">
        <ele>140.01</ele>
        <time>2020-07-15T07:54:51Z</time>
      </trkpt>
      <trkpt lat="44.79543" lon="1.56778">
        <ele>140.97</ele>
        <time>2020-07-15T07:55:09Z</time>
      </trkpt>
      <trkpt lat="44.79532" lon="1.56763">
        <ele>139.53</ele>
        <time>2020-07-15T07:55:26Z</time>
      </trkpt>
      <trkpt lat="44.79525" lon="1.56758">
        <ele>138.57</ele>
        <time>2020-07-15T07:55:33Z</time>
      </trkpt>
      <trkpt lat="44.79522" lon="1.56754">
        <ele>138.57</ele>
        <time>2020-07-15T07:55:37Z</time>
      </trkpt>
      <trkpt lat="44.7952" lon="1.56752">
        <ele>138.09</ele>
        <time>2020-07-15T07:55:39Z</time>
      </trkpt>
      <trkpt lat="44.79516" lon="1.56747">
        <ele>136.64</ele>
        <time>2020-07-15T07:55:44Z</time>
      </trkpt>
      <trkpt lat="44.79513" lon="1.56744">
        <ele>136.64</ele>
        <time>2020-07-15T07:55:47Z</time>
      </trkpt>
      <trkpt lat="44.79497" lon="1.56725">
        <ele>134.24</ele>
        <time>2020-07-15T07:56:05Z</time>
      </trkpt>
      <trkpt lat="44.79488" lon="1.56713">
        <ele>130.88</ele>
        <time>2020-07-15T07:56:19Z</time>
      </trkpt>
      <trkpt lat="44.79482" lon="1.56703">
        <ele>130.88</ele>
        <time>2020-07-15T07:56:29Z</time>
      </trkpt>
      <trkpt lat="44.79473" lon="1.5669">
        <ele>129.43</ele>
        <time>2020-07-15T07:56:45Z</time>
      </trkpt>
      <trkpt lat="44.79469" lon="1.56673">
        <ele>126.55</ele>
        <time>2020-07-15T07:56:57Z</time>
      </trkpt>
      <trkpt lat="44.79468" lon="1.56645">
        <ele>124.15</ele>
        <time>2020-07-15T07:57:19Z</time>
      </trkpt>
      <trkpt lat="44.79471" lon="1.56626">
        <ele>122.71</ele>
        <time>2020-07-15T07:57:38Z</time>
      </trkpt>
      <trkpt lat="44.79479" lon="1.56612">
        <ele>121.26</ele>
        <time>2020-07-15T07:58:00Z</time>
      </trkpt>
      <trkpt lat="44.79483" lon="1.56598">
        <ele>118.86</ele>
        <time>2020-07-15T07:58:12Z</time>
      </trkpt>
      <trkpt lat="44.79502" lon="1.56584">
        <ele>116.46</ele>
        <time>2020-07-15T07:58:31Z</time>
      </trkpt>
      <trkpt lat="44.79515" lon="1.56573">
        <ele>113.09</ele>
        <time>2020-07-15T07:58:50Z</time>
      </trkpt>
      <trkpt lat="44.7952" lon="1.56563">
        <ele>111.65</ele>
        <time>2020-07-15T07:59:00Z</time>
      </trkpt>
      <trkpt lat="44.79536" lon="1.5655">
        <ele>112.61</ele>
        <time>2020-07-15T07:59:11Z</time>
      </trkpt>
      <trkpt lat="44.7955" lon="1.56539">
        <ele>111.17</ele>
        <time>2020-07-15T07:59:25Z</time>
      </trkpt>
      <trkpt lat="44.79565" lon="1.56526">
        <ele>112.13</ele>
        <time>2020-07-15T07:59:41Z</time>
      </trkpt>
      <trkpt lat="44.7957" lon="1.56515">
        <ele>111.17</ele>
        <time>2020-07-15T07:59:50Z</time>
      </trkpt>
      <trkpt lat="44.79573" lon="1.56506">
        <ele>112.61</ele>
        <time>2020-07-15T07:59:59Z</time>
      </trkpt>
      <trkpt lat="44.79586" lon="1.56483">
        <ele>113.57</ele>
        <time>2020-07-15T08:00:18Z</time>
      </trkpt>
      <trkpt lat="44.79591" lon="1.56477">
        <ele>112.61</ele>
        <time>2020-07-15T08:00:27Z</time>
      </trkpt>
      <trkpt lat="44.79601" lon="1.56461">
        <ele>112.13</ele>
        <time>2020-07-15T08:00:47Z</time>
      </trkpt>
      <trkpt lat="44.79612" lon="1.56444">
        <ele>111.65</ele>
        <time>2020-07-15T08:01:07Z</time>
      </trkpt>
      <trkpt lat="44.7962" lon="1.56436">
        <ele>113.09</ele>
        <time>2020-07-15T08:01:17Z</time>
      </trkpt>
      <trkpt lat="44.79641" lon="1.56421">
        <ele>115.5</ele>
        <time>2020-07-15T08:01:37Z</time>
      </trkpt>
      <trkpt lat="44.79659" lon="1.56403">
        <ele>116.46</ele>
        <time>2020-07-15T08:01:59Z</time>
      </trkpt>
      <trkpt lat="44.79662" lon="1.56399">
        <ele>114.53</ele>
        <time>2020-07-15T08:02:04Z</time>
      </trkpt>
      <trkpt lat="44.79676" lon="1.5638">
        <ele>112.13</ele>
        <time>2020-07-15T08:02:25Z</time>
      </trkpt>
      <trkpt lat="44.79688" lon="1.56356">
        <ele>111.17</ele>
        <time>2020-07-15T08:02:42Z</time>
      </trkpt>
      <trkpt lat="44.79699" lon="1.56339">
        <ele>111.17</ele>
        <time>2020-07-15T08:02:56Z</time>
      </trkpt>
      <trkpt lat="44.79707" lon="1.56324">
        <ele>112.61</ele>
        <time>2020-07-15T08:03:09Z</time>
      </trkpt>
      <trkpt lat="44.79713" lon="1.56314">
        <ele>111.65</ele>
        <time>2020-07-15T08:03:17Z</time>
      </trkpt>
      <trkpt lat="44.79723" lon="1.563">
        <ele>111.65</ele>
        <time>2020-07-15T08:03:33Z</time>
      </trkpt>
      <trkpt lat="44.79723" lon="1.56286">
        <ele>111.65</ele>
        <time>2020-07-15T08:03:52Z</time>
      </trkpt>
      <trkpt lat="44.79724" lon="1.56288">
        <ele>111.65</ele>
        <time>2020-07-15T08:04:13Z</time>
      </trkpt>
      <trkpt lat="44.79732" lon="1.56274">
        <ele>111.65</ele>
        <time>2020-07-15T08:04:33Z</time>
      </trkpt>
      <trkpt lat="44.79738" lon="1.56258">
        <ele>111.65</ele>
        <time>2020-07-15T08:04:49Z</time>
      </trkpt>
      <trkpt lat="44.79742" lon="1.56248">
        <ele>111.65</ele>
        <time>2020-07-15T08:05:11Z</time>
      </trkpt>
      <trkpt lat="44.79749" lon="1.56228">
        <ele>111.65</ele>
        <time>2020-07-15T08:05:29Z</time>
      </trkpt>
      <trkpt lat="44.79759" lon="1.56206">
        <ele>113.09</ele>
        <time>2020-07-15T08:05:50Z</time>
      </trkpt>
      <trkpt lat="44.79768" lon="1.56196">
        <ele>113.09</ele>
        <time>2020-07-15T08:06:01Z</time>
      </trkpt>
      <trkpt lat="44.79774" lon="1.56186">
        <ele>113.09</ele>
        <time>2020-07-15T08:06:18Z</time>
      </trkpt>
      <trkpt lat="44.79773" lon="1.56186">
        <ele>113.09</ele>
        <time>2020-07-15T08:06:42Z</time>
      </trkpt>
      <trkpt lat="44.79781" lon="1.56175">
        <ele>113.09</ele>
        <time>2020-07-15T08:07:03Z</time>
      </trkpt>
      <trkpt lat="44.79785" lon="1.56167">
        <ele>113.57</ele>
        <time>2020-07-15T08:07:08Z</time>
      </trkpt>
      <trkpt lat="44.79798" lon="1.5615">
        <ele>112.13</ele>
        <time>2020-07-15T08:07:23Z</time>
      </trkpt>
      <trkpt lat="44.79801" lon="1.56147">
        <ele>113.57</ele>
        <time>2020-07-15T08:07:26Z</time>
      </trkpt>
      <trkpt lat="44.79819" lon="1.56127">
        <ele>113.57</ele>
        <time>2020-07-15T08:07:46Z</time>
      </trkpt>
      <trkpt lat="44.79845" lon="1.56107">
        <ele>113.57</ele>
        <time>2020-07-15T08:08:06Z</time>
      </trkpt>
      <trkpt lat="44.79849" lon="1.56102">
        <ele>111.65</ele>
        <time>2020-07-15T08:08:10Z</time>
      </trkpt>
      <trkpt lat="44.79861" lon="1.5609">
        <ele>111.17</ele>
        <time>2020-07-15T08:08:28Z</time>
      </trkpt>
      <trkpt lat="44.79868" lon="1.56084">
        <ele>111.17</ele>
        <time>2020-07-15T08:08:34Z</time>
      </trkpt>
      <trkpt lat="44.7987" lon="1.56082">
        <ele>111.17</ele>
        <time>2020-07-15T08:08:36Z</time>
      </trkpt>
      <trkpt lat="44.79888" lon="1.56068">
        <ele>110.21</ele>
        <time>2020-07-15T08:08:51Z</time>
      </trkpt>
      <trkpt lat="44.79903" lon="1.56048">
        <ele>110.21</ele>
        <time>2020-07-15T08:09:05Z</time>
      </trkpt>
      <trkpt lat="44.79901" lon="1.56049">
        <ele>110.21</ele>
        <time>2020-07-15T08:09:22Z</time>
      </trkpt>
      <trkpt lat="44.79897" lon="1.56047">
        <ele>110.21</ele>
        <time>2020-07-15T08:09:49Z</time>
      </trkpt>
      <trkpt lat="44.79907" lon="1.56078">
        <ele>109.25</ele>
        <time>2020-07-15T08:10:12Z</time>
      </trkpt>
      <trkpt lat="44.799" lon="1.56099">
        <ele>111.17</ele>
        <time>2020-07-15T08:10:29Z</time>
      </trkpt>
      <trkpt lat="44.79887" lon="1.56124">
        <ele>113.57</ele>
        <time>2020-07-15T08:10:49Z</time>
      </trkpt>
      <trkpt lat="44.799" lon="1.56075">
        <ele>110.21</ele>
        <time>2020-07-15T08:14:48Z</time>
      </trkpt>
      <trkpt lat="44.79894" lon="1.56069">
        <ele>110.21</ele>
        <time>2020-07-15T08:14:54Z</time>
      </trkpt>
      <trkpt lat="44.79894" lon="1.56048">
        <ele>110.21</ele>
        <time>2020-07-15T08:15:13Z</time>
      </trkpt>
      <trkpt lat="44.79903" lon="1.56036">
        <ele>111.65</ele>
        <time>2020-07-15T08:15:26Z</time>
      </trkpt>
      <trkpt lat="44.79914" lon="1.56025">
        <ele>109.73</ele>
        <time>2020-07-15T08:15:38Z</time>
      </trkpt>
      <trkpt lat="44.79917" lon="1.56025">
        <ele>111.17</ele>
        <time>2020-07-15T08:15:40Z</time>
      </trkpt>
      <trkpt lat="44.79933" lon="1.5603">
        <ele>111.17</ele>
        <time>2020-07-15T08:15:57Z</time>
      </trkpt>
      <trkpt lat="44.79945" lon="1.56054">
        <ele>111.17</ele>
        <time>2020-07-15T08:16:14Z</time>
      </trkpt>
      <trkpt lat="44.79954" lon="1.56071">
        <ele>110.69</ele>
        <time>2020-07-15T08:16:26Z</time>
      </trkpt>
      <trkpt lat="44.79964" lon="1.56085">
        <ele>112.13</ele>
        <time>2020-07-15T08:16:39Z</time>
      </trkpt>
      <trkpt lat="44.79979" lon="1.56075">
        <ele>112.61</ele>
        <time>2020-07-15T08:16:56Z</time>
      </trkpt>
      <trkpt lat="44.79985" lon="1.56065">
        <ele>112.13</ele>
        <time>2020-07-15T08:17:05Z</time>
      </trkpt>
      <trkpt lat="44.79986" lon="1.56062">
        <ele>113.57</ele>
        <time>2020-07-15T08:17:07Z</time>
      </trkpt>
      <trkpt lat="44.79999" lon="1.56041">
        <ele>111.65</ele>
        <time>2020-07-15T08:17:26Z</time>
      </trkpt>
      <trkpt lat="44.79999" lon="1.56039">
        <ele>111.65</ele>
        <time>2020-07-15T08:17:27Z</time>
      </trkpt>
      <trkpt lat="44.80001" lon="1.56034">
        <ele>111.65</ele>
        <time>2020-07-15T08:17:31Z</time>
      </trkpt>
      <trkpt lat="44.80003" lon="1.56029">
        <ele>113.09</ele>
        <time>2020-07-15T08:17:34Z</time>
      </trkpt>
      <trkpt lat="44.8001" lon="1.56019">
        <ele>111.65</ele>
        <time>2020-07-15T08:17:42Z</time>
      </trkpt>
      <trkpt lat="44.80022" lon="1.56011">
        <ele>115.5</ele>
        <time>2020-07-15T08:17:56Z</time>
      </trkpt>
      <trkpt lat="44.80023" lon="1.5601">
        <ele>115.5</ele>
        <time>2020-07-15T08:17:57Z</time>
      </trkpt>
      <trkpt lat="44.80038" lon="1.56005">
        <ele>116.94</ele>
        <time>2020-07-15T08:18:14Z</time>
      </trkpt>
      <trkpt lat="44.80051" lon="1.55985">
        <ele>115.5</ele>
        <time>2020-07-15T08:18:34Z</time>
      </trkpt>
      <trkpt lat="44.80062" lon="1.55977">
        <ele>116.46</ele>
        <time>2020-07-15T08:18:45Z</time>
      </trkpt>
      <trkpt lat="44.80073" lon="1.55976">
        <ele>116.46</ele>
        <time>2020-07-15T08:18:54Z</time>
      </trkpt>
      <trkpt lat="44.80093" lon="1.55971">
        <ele>115.5</ele>
        <time>2020-07-15T08:19:13Z</time>
      </trkpt>
      <trkpt lat="44.80107" lon="1.5596">
        <ele>116.94</ele>
        <time>2020-07-15T08:19:30Z</time>
      </trkpt>
      <trkpt lat="44.80128" lon="1.55949">
        <ele>115.98</ele>
        <time>2020-07-15T08:19:50Z</time>
      </trkpt>
      <trkpt lat="44.80152" lon="1.55926">
        <ele>116.46</ele>
        <time>2020-07-15T08:20:09Z</time>
      </trkpt>
      <trkpt lat="44.80163" lon="1.55921">
        <ele>115.01</ele>
        <time>2020-07-15T08:20:19Z</time>
      </trkpt>
      <trkpt lat="44.80183" lon="1.55911">
        <ele>115.5</ele>
        <time>2020-07-15T08:20:38Z</time>
      </trkpt>
      <trkpt lat="44.80191" lon="1.55902">
        <ele>116.94</ele>
        <time>2020-07-15T08:20:46Z</time>
      </trkpt>
      <trkpt lat="44.80197" lon="1.55895">
        <ele>115.01</ele>
        <time>2020-07-15T08:20:52Z</time>
      </trkpt>
      <trkpt lat="44.802" lon="1.55893">
        <ele>116.46</ele>
        <time>2020-07-15T08:20:55Z</time>
      </trkpt>
      <trkpt lat="44.80212" lon="1.55884">
        <ele>115.98</ele>
        <time>2020-07-15T08:21:06Z</time>
      </trkpt>
      <trkpt lat="44.80215" lon="1.55882">
        <ele>117.42</ele>
        <time>2020-07-15T08:21:09Z</time>
      </trkpt>
      <trkpt lat="44.8022" lon="1.55878">
        <ele>115.98</ele>
        <time>2020-07-15T08:21:14Z</time>
      </trkpt>
      <trkpt lat="44.80221" lon="1.55877">
        <ele>117.9</ele>
        <time>2020-07-15T08:21:16Z</time>
      </trkpt>
      <trkpt lat="44.80228" lon="1.55871">
        <ele>116.46</ele>
        <time>2020-07-15T08:21:22Z</time>
      </trkpt>
      <trkpt lat="44.80235" lon="1.55867">
        <ele>117.9</ele>
        <time>2020-07-15T08:21:28Z</time>
      </trkpt>
      <trkpt lat="44.80251" lon="1.55849">
        <ele>117.9</ele>
        <time>2020-07-15T08:21:46Z</time>
      </trkpt>
      <trkpt lat="44.80269" lon="1.55833">
        <ele>116.94</ele>
        <time>2020-07-15T08:22:04Z</time>
      </trkpt>
      <trkpt lat="44.80273" lon="1.55831">
        <ele>118.38</ele>
        <time>2020-07-15T08:22:08Z</time>
      </trkpt>
      <trkpt lat="44.80286" lon="1.55823">
        <ele>117.42</ele>
        <time>2020-07-15T08:22:19Z</time>
      </trkpt>
      <trkpt lat="44.80302" lon="1.55815">
        <ele>118.38</ele>
        <time>2020-07-15T08:22:32Z</time>
      </trkpt>
      <trkpt lat="44.80304" lon="1.55813">
        <ele>118.38</ele>
        <time>2020-07-15T08:22:34Z</time>
      </trkpt>
      <trkpt lat="44.80323" lon="1.558">
        <ele>116.46</ele>
        <time>2020-07-15T08:22:52Z</time>
      </trkpt>
      <trkpt lat="44.80323" lon="1.55799">
        <ele>116.46</ele>
        <time>2020-07-15T08:22:53Z</time>
      </trkpt>
      <trkpt lat="44.80325" lon="1.55797">
        <ele>117.9</ele>
        <time>2020-07-15T08:22:55Z</time>
      </trkpt>
      <trkpt lat="44.8034" lon="1.55789">
        <ele>116.46</ele>
        <time>2020-07-15T08:23:07Z</time>
      </trkpt>
      <trkpt lat="44.80345" lon="1.55788">
        <ele>117.9</ele>
        <time>2020-07-15T08:23:12Z</time>
      </trkpt>
      <trkpt lat="44.80347" lon="1.55786">
        <ele>116.94</ele>
        <time>2020-07-15T08:23:14Z</time>
      </trkpt>
      <trkpt lat="44.80349" lon="1.55784">
        <ele>118.38</ele>
        <time>2020-07-15T08:23:16Z</time>
      </trkpt>
      <trkpt lat="44.80358" lon="1.55776">
        <ele>116.94</ele>
        <time>2020-07-15T08:23:25Z</time>
      </trkpt>
      <trkpt lat="44.80364" lon="1.55771">
        <ele>118.38</ele>
        <time>2020-07-15T08:23:30Z</time>
      </trkpt>
      <trkpt lat="44.80371" lon="1.55763">
        <ele>116.94</ele>
        <time>2020-07-15T08:23:36Z</time>
      </trkpt>
      <trkpt lat="44.80373" lon="1.55762">
        <ele>117.9</ele>
        <time>2020-07-15T08:23:38Z</time>
      </trkpt>
      <trkpt lat="44.80384" lon="1.55756">
        <ele>116.94</ele>
        <time>2020-07-15T08:23:47Z</time>
      </trkpt>
      <trkpt lat="44.80386" lon="1.55754">
        <ele>118.38</ele>
        <time>2020-07-15T08:23:49Z</time>
      </trkpt>
      <trkpt lat="44.80392" lon="1.55745">
        <ele>116.46</ele>
        <time>2020-07-15T08:23:55Z</time>
      </trkpt>
      <trkpt lat="44.80397" lon="1.55736">
        <ele>117.9</ele>
        <time>2020-07-15T08:24:01Z</time>
      </trkpt>
      <trkpt lat="44.80401" lon="1.55724">
        <ele>117.42</ele>
        <time>2020-07-15T08:24:10Z</time>
      </trkpt>
      <trkpt lat="44.80405" lon="1.55708">
        <ele>118.86</ele>
        <time>2020-07-15T08:24:19Z</time>
      </trkpt>
      <trkpt lat="44.80405" lon="1.55704">
        <ele>117.42</ele>
        <time>2020-07-15T08:24:21Z</time>
      </trkpt>
      <trkpt lat="44.80407" lon="1.55697">
        <ele>118.86</ele>
        <time>2020-07-15T08:24:25Z</time>
      </trkpt>
      <trkpt lat="44.80408" lon="1.55694">
        <ele>119.34</ele>
        <time>2020-07-15T08:24:42Z</time>
      </trkpt>
      <trkpt lat="44.80406" lon="1.55686">
        <ele>119.34</ele>
        <time>2020-07-15T08:25:00Z</time>
      </trkpt>
      <trkpt lat="44.80407" lon="1.55684">
        <ele>119.34</ele>
        <time>2020-07-15T08:25:03Z</time>
      </trkpt>
      <trkpt lat="44.80408" lon="1.55677">
        <ele>118.38</ele>
        <time>2020-07-15T08:25:07Z</time>
      </trkpt>
      <trkpt lat="44.8041" lon="1.55674">
        <ele>118.38</ele>
        <time>2020-07-15T08:25:23Z</time>
      </trkpt>
      <trkpt lat="44.80411" lon="1.55679">
        <ele>118.38</ele>
        <time>2020-07-15T08:25:38Z</time>
      </trkpt>
      <trkpt lat="44.80412" lon="1.55673">
        <ele>118.38</ele>
        <time>2020-07-15T08:26:17Z</time>
      </trkpt>
      <trkpt lat="44.80409" lon="1.55649">
        <ele>117.9</ele>
        <time>2020-07-15T08:26:35Z</time>
      </trkpt>
      <trkpt lat="44.80409" lon="1.55638">
        <ele>118.86</ele>
        <time>2020-07-15T08:26:49Z</time>
      </trkpt>
      <trkpt lat="44.80407" lon="1.55634">
        <ele>118.86</ele>
        <time>2020-07-15T08:27:06Z</time>
      </trkpt>
      <trkpt lat="44.80405" lon="1.55636">
        <ele>118.86</ele>
        <time>2020-07-15T08:27:36Z</time>
      </trkpt>
      <trkpt lat="44.80404" lon="1.55636">
        <ele>118.86</ele>
        <time>2020-07-15T08:28:13Z</time>
      </trkpt>
      <trkpt lat="44.80399" lon="1.55635">
        <ele>117.42</ele>
        <time>2020-07-15T08:28:18Z</time>
      </trkpt>
      <trkpt lat="44.80393" lon="1.55635">
        <ele>118.86</ele>
        <time>2020-07-15T08:28:23Z</time>
      </trkpt>
      <trkpt lat="44.80365" lon="1.55633">
        <ele>120.78</ele>
        <time>2020-07-15T08:28:44Z</time>
      </trkpt>
      <trkpt lat="44.80341" lon="1.55635">
        <ele>121.26</ele>
        <time>2020-07-15T08:29:05Z</time>
      </trkpt>
      <trkpt lat="44.80339" lon="1.55635">
        <ele>121.26</ele>
        <time>2020-07-15T08:29:06Z</time>
      </trkpt>
      <trkpt lat="44.80324" lon="1.55637">
        <ele>122.22</ele>
        <time>2020-07-15T08:29:22Z</time>
      </trkpt>
      <trkpt lat="44.8031" lon="1.55637">
        <ele>122.22</ele>
        <time>2020-07-15T08:29:39Z</time>
      </trkpt>
      <trkpt lat="44.80289" lon="1.55638">
        <ele>123.19</ele>
        <time>2020-07-15T08:29:56Z</time>
      </trkpt>
      <trkpt lat="44.80264" lon="1.55638">
        <ele>124.63</ele>
        <time>2020-07-15T08:30:16Z</time>
      </trkpt>
      <trkpt lat="44.80252" lon="1.55636">
        <ele>125.11</ele>
        <time>2020-07-15T08:30:26Z</time>
      </trkpt>
      <trkpt lat="44.80231" lon="1.55643">
        <ele>125.59</ele>
        <time>2020-07-15T08:30:45Z</time>
      </trkpt>
      <trkpt lat="44.80206" lon="1.55649">
        <ele>127.03</ele>
        <time>2020-07-15T08:31:05Z</time>
      </trkpt>
      <trkpt lat="44.80177" lon="1.55669">
        <ele>127.99</ele>
        <time>2020-07-15T08:31:27Z</time>
      </trkpt>
      <trkpt lat="44.80144" lon="1.55686">
        <ele>128.95</ele>
        <time>2020-07-15T08:31:52Z</time>
      </trkpt>
      <trkpt lat="44.80134" lon="1.55691">
        <ele>129.43</ele>
        <time>2020-07-15T08:32:07Z</time>
      </trkpt>
      <trkpt lat="44.80117" lon="1.55717">
        <ele>130.88</ele>
        <time>2020-07-15T08:32:27Z</time>
      </trkpt>
      <trkpt lat="44.80091" lon="1.55735">
        <ele>132.32</ele>
        <time>2020-07-15T08:32:50Z</time>
      </trkpt>
      <trkpt lat="44.8007" lon="1.55735">
        <ele>132.8</ele>
        <time>2020-07-15T08:33:06Z</time>
      </trkpt>
      <trkpt lat="44.80051" lon="1.55729">
        <ele>134.72</ele>
        <time>2020-07-15T08:33:23Z</time>
      </trkpt>
      <trkpt lat="44.80029" lon="1.55717">
        <ele>135.68</ele>
        <time>2020-07-15T08:33:42Z</time>
      </trkpt>
      <trkpt lat="44.80019" lon="1.5571">
        <ele>135.68</ele>
        <time>2020-07-15T08:33:54Z</time>
      </trkpt>
      <trkpt lat="44.8" lon="1.55699">
        <ele>136.64</ele>
        <time>2020-07-15T08:34:11Z</time>
      </trkpt>
      <trkpt lat="44.79987" lon="1.55692">
        <ele>137.13</ele>
        <time>2020-07-15T08:34:29Z</time>
      </trkpt>
      <trkpt lat="44.79984" lon="1.55685">
        <ele>137.61</ele>
        <time>2020-07-15T08:34:42Z</time>
      </trkpt>
      <trkpt lat="44.79983" lon="1.55686">
        <ele>138.09</ele>
        <time>2020-07-15T08:35:08Z</time>
      </trkpt>
      <trkpt lat="44.79983" lon="1.55686">
        <ele>138.09</ele>
        <time>2020-07-15T08:35:32Z</time>
      </trkpt>
      <trkpt lat="44.79983" lon="1.55688">
        <ele>138.09</ele>
        <time>2020-07-15T08:35:58Z</time>
      </trkpt>
      <trkpt lat="44.79983" lon="1.55686">
        <ele>138.09</ele>
        <time>2020-07-15T08:36:18Z</time>
      </trkpt>
      <trkpt lat="44.79983" lon="1.55687">
        <ele>138.09</ele>
        <time>2020-07-15T08:36:40Z</time>
      </trkpt>
      <trkpt lat="44.79984" lon="1.55687">
        <ele>138.09</ele>
        <time>2020-07-15T08:36:55Z</time>
      </trkpt>
      <trkpt lat="44.79983" lon="1.55685">
        <ele>138.09</ele>
        <time>2020-07-15T08:37:16Z</time>
      </trkpt>
      <trkpt lat="44.79986" lon="1.55687">
        <ele>138.09</ele>
        <time>2020-07-15T08:37:48Z</time>
      </trkpt>
      <trkpt lat="44.79986" lon="1.55688">
        <ele>138.09</ele>
        <time>2020-07-15T08:38:08Z</time>
      </trkpt>
      <trkpt lat="44.79987" lon="1.55687">
        <ele>138.09</ele>
        <time>2020-07-15T08:38:26Z</time>
      </trkpt>
      <trkpt lat="44.79986" lon="1.5569">
        <ele>138.09</ele>
        <time>2020-07-15T08:38:47Z</time>
      </trkpt>
      <trkpt lat="44.79985" lon="1.55689">
        <ele>138.09</ele>
        <time>2020-07-15T08:39:16Z</time>
      </trkpt>
      <trkpt lat="44.79987" lon="1.55691">
        <ele>138.09</ele>
        <time>2020-07-15T08:39:31Z</time>
      </trkpt>
      <trkpt lat="44.79993" lon="1.55689">
        <ele>136.64</ele>
        <time>2020-07-15T08:39:36Z</time>
      </trkpt>
      <trkpt lat="44.80004" lon="1.55698">
        <ele>136.16</ele>
        <time>2020-07-15T08:39:52Z</time>
      </trkpt>
      <trkpt lat="44.80008" lon="1.55701">
        <ele>136.16</ele>
        <time>2020-07-15T08:39:57Z</time>
      </trkpt>
      <trkpt lat="44.80028" lon="1.55713">
        <ele>135.2</ele>
        <time>2020-07-15T08:40:16Z</time>
      </trkpt>
      <trkpt lat="44.80048" lon="1.55724">
        <ele>134.24</ele>
        <time>2020-07-15T08:40:34Z</time>
      </trkpt>
      <trkpt lat="44.80062" lon="1.55727">
        <ele>133.28</ele>
        <time>2020-07-15T08:40:44Z</time>
      </trkpt>
      <trkpt lat="44.80087" lon="1.5573">
        <ele>132.32</ele>
        <time>2020-07-15T08:41:06Z</time>
      </trkpt>
      <trkpt lat="44.80091" lon="1.55727">
        <ele>131.36</ele>
        <time>2020-07-15T08:41:10Z</time>
      </trkpt>
      <trkpt lat="44.80106" lon="1.55712">
        <ele>131.36</ele>
        <time>2020-07-15T08:41:25Z</time>
      </trkpt>
      <trkpt lat="44.80112" lon="1.55704">
        <ele>129.92</ele>
        <time>2020-07-15T08:41:31Z</time>
      </trkpt>
      <trkpt lat="44.80129" lon="1.55683">
        <ele>128.95</ele>
        <time>2020-07-15T08:41:47Z</time>
      </trkpt>
      <trkpt lat="44.80131" lon="1.5568">
        <ele>128.95</ele>
        <time>2020-07-15T08:41:49Z</time>
      </trkpt>
      <trkpt lat="44.80142" lon="1.55669">
        <ele>127.99</ele>
        <time>2020-07-15T08:42:02Z</time>
      </trkpt>
      <trkpt lat="44.80146" lon="1.55667">
        <ele>129.43</ele>
        <time>2020-07-15T08:42:05Z</time>
      </trkpt>
      <trkpt lat="44.80152" lon="1.55664">
        <ele>129.43</ele>
        <time>2020-07-15T08:42:10Z</time>
      </trkpt>
      <trkpt lat="44.80157" lon="1.5566">
        <ele>127.99</ele>
        <time>2020-07-15T08:42:15Z</time>
      </trkpt>
      <trkpt lat="44.8017" lon="1.55658">
        <ele>128.47</ele>
        <time>2020-07-15T08:42:28Z</time>
      </trkpt>
      <trkpt lat="44.80173" lon="1.55658">
        <ele>126.55</ele>
        <time>2020-07-15T08:42:30Z</time>
      </trkpt>
      <trkpt lat="44.80183" lon="1.55653">
        <ele>126.07</ele>
        <time>2020-07-15T08:42:37Z</time>
      </trkpt>
      <trkpt lat="44.80186" lon="1.5565">
        <ele>127.51</ele>
        <time>2020-07-15T08:42:40Z</time>
      </trkpt>
      <trkpt lat="44.80191" lon="1.55647">
        <ele>126.07</ele>
        <time>2020-07-15T08:42:44Z</time>
      </trkpt>
      <trkpt lat="44.80213" lon="1.55637">
        <ele>124.63</ele>
        <time>2020-07-15T08:43:04Z</time>
      </trkpt>
      <trkpt lat="44.80214" lon="1.55637">
        <ele>125.11</ele>
        <time>2020-07-15T08:43:05Z</time>
      </trkpt>
      <trkpt lat="44.80237" lon="1.55638">
        <ele>124.15</ele>
        <time>2020-07-15T08:43:20Z</time>
      </trkpt>
      <trkpt lat="44.80239" lon="1.55638">
        <ele>125.59</ele>
        <time>2020-07-15T08:43:22Z</time>
      </trkpt>
      <trkpt lat="44.80251" lon="1.55637">
        <ele>124.63</ele>
        <time>2020-07-15T08:43:33Z</time>
      </trkpt>
      <trkpt lat="44.80258" lon="1.55639">
        <ele>124.63</ele>
        <time>2020-07-15T08:43:37Z</time>
      </trkpt>
      <trkpt lat="44.80289" lon="1.5564">
        <ele>123.19</ele>
        <time>2020-07-15T08:43:59Z</time>
      </trkpt>
      <trkpt lat="44.8029" lon="1.5564">
        <ele>123.19</ele>
        <time>2020-07-15T08:44:00Z</time>
      </trkpt>
      <trkpt lat="44.80317" lon="1.55639">
        <ele>122.22</ele>
        <time>2020-07-15T08:44:20Z</time>
      </trkpt>
      <trkpt lat="44.80343" lon="1.55639">
        <ele>121.26</ele>
        <time>2020-07-15T08:44:41Z</time>
      </trkpt>
      <trkpt lat="44.80345" lon="1.55638">
        <ele>121.26</ele>
        <time>2020-07-15T08:44:55Z</time>
      </trkpt>
      <trkpt lat="44.80362" lon="1.55634">
        <ele>120.3</ele>
        <time>2020-07-15T08:45:09Z</time>
      </trkpt>
      <trkpt lat="44.80391" lon="1.55636">
        <ele>118.38</ele>
        <time>2020-07-15T08:45:31Z</time>
      </trkpt>
      <trkpt lat="44.80403" lon="1.55638">
        <ele>118.38</ele>
        <time>2020-07-15T08:45:47Z</time>
      </trkpt>
      <trkpt lat="44.80407" lon="1.5564">
        <ele>118.38</ele>
        <time>2020-07-15T08:45:51Z</time>
      </trkpt>
      <trkpt lat="44.80412" lon="1.55649">
        <ele>118.38</ele>
        <time>2020-07-15T08:46:06Z</time>
      </trkpt>
      <trkpt lat="44.80411" lon="1.55672">
        <ele>117.9</ele>
        <time>2020-07-15T08:46:22Z</time>
      </trkpt>
      <trkpt lat="44.80407" lon="1.5569">
        <ele>117.42</ele>
        <time>2020-07-15T08:46:38Z</time>
      </trkpt>
      <trkpt lat="44.80406" lon="1.55702">
        <ele>116.94</ele>
        <time>2020-07-15T08:47:10Z</time>
      </trkpt>
      <trkpt lat="44.80409" lon="1.55723">
        <ele>116.46</ele>
        <time>2020-07-15T08:47:24Z</time>
      </trkpt>
      <trkpt lat="44.80405" lon="1.5575">
        <ele>116.46</ele>
        <time>2020-07-15T08:47:39Z</time>
      </trkpt>
      <trkpt lat="44.80407" lon="1.55756">
        <ele>116.46</ele>
        <time>2020-07-15T08:47:50Z</time>
      </trkpt>
      <trkpt lat="44.80405" lon="1.55756">
        <ele>116.46</ele>
        <time>2020-07-15T08:47:51Z</time>
      </trkpt>
      <trkpt lat="44.80404" lon="1.55756">
        <ele>116.46</ele>
        <time>2020-07-15T08:47:52Z</time>
      </trkpt>
      <trkpt lat="44.80403" lon="1.55757">
        <ele>116.46</ele>
        <time>2020-07-15T08:47:53Z</time>
      </trkpt>
      <trkpt lat="44.80403" lon="1.55759">
        <ele>116.46</ele>
        <time>2020-07-15T08:48:03Z</time>
      </trkpt>
      <trkpt lat="44.80404" lon="1.55759">
        <ele>116.46</ele>
        <time>2020-07-15T08:48:04Z</time>
      </trkpt>
      <trkpt lat="44.80406" lon="1.55759">
        <ele>116.46</ele>
        <time>2020-07-15T08:48:05Z</time>
      </trkpt>
      <trkpt lat="44.80412" lon="1.55759">
        <ele>115.98</ele>
        <time>2020-07-15T08:48:10Z</time>
      </trkpt>
      <trkpt lat="44.80413" lon="1.55759">
        <ele>115.98</ele>
        <time>2020-07-15T08:48:11Z</time>
      </trkpt>
      <trkpt lat="44.80434" lon="1.55772">
        <ele>115.01</ele>
        <time>2020-07-15T08:48:28Z</time>
      </trkpt>
      <trkpt lat="44.80454" lon="1.55784">
        <ele>114.53</ele>
        <time>2020-07-15T08:48:43Z</time>
      </trkpt>
      <trkpt lat="44.8047" lon="1.55804">
        <ele>114.05</ele>
        <time>2020-07-15T08:49:01Z</time>
      </trkpt>
      <trkpt lat="44.80488" lon="1.55825">
        <ele>114.53</ele>
        <time>2020-07-15T08:49:17Z</time>
      </trkpt>
      <trkpt lat="44.80488" lon="1.55827">
        <ele>114.53</ele>
        <time>2020-07-15T08:49:18Z</time>
      </trkpt>
      <trkpt lat="44.80502" lon="1.55852">
        <ele>113.09</ele>
        <time>2020-07-15T08:49:39Z</time>
      </trkpt>
      <trkpt lat="44.80515" lon="1.55873">
        <ele>113.09</ele>
        <time>2020-07-15T08:49:55Z</time>
      </trkpt>
      <trkpt lat="44.8052" lon="1.55878">
        <ele>114.53</ele>
        <time>2020-07-15T08:49:59Z</time>
      </trkpt>
      <trkpt lat="44.8053" lon="1.55887">
        <ele>113.09</ele>
        <time>2020-07-15T08:50:09Z</time>
      </trkpt>
      <trkpt lat="44.80545" lon="1.55904">
        <ele>114.05</ele>
        <time>2020-07-15T08:50:26Z</time>
      </trkpt>
      <trkpt lat="44.80547" lon="1.55906">
        <ele>112.61</ele>
        <time>2020-07-15T08:50:28Z</time>
      </trkpt>
      <trkpt lat="44.80564" lon="1.55931">
        <ele>113.57</ele>
        <time>2020-07-15T08:50:45Z</time>
      </trkpt>
      <trkpt lat="44.80578" lon="1.55953">
        <ele>113.09</ele>
        <time>2020-07-15T08:51:02Z</time>
      </trkpt>
      <trkpt lat="44.80585" lon="1.55964">
        <ele>112.13</ele>
        <time>2020-07-15T08:51:10Z</time>
      </trkpt>
      <trkpt lat="44.80598" lon="1.55987">
        <ele>110.69</ele>
        <time>2020-07-15T08:51:28Z</time>
      </trkpt>
      <trkpt lat="44.80607" lon="1.55998">
        <ele>112.13</ele>
        <time>2020-07-15T08:51:37Z</time>
      </trkpt>
      <trkpt lat="44.80614" lon="1.56006">
        <ele>113.09</ele>
        <time>2020-07-15T08:51:46Z</time>
      </trkpt>
      <trkpt lat="44.80631" lon="1.56024">
        <ele>114.53</ele>
        <time>2020-07-15T08:52:04Z</time>
      </trkpt>
      <trkpt lat="44.80643" lon="1.5604">
        <ele>114.53</ele>
        <time>2020-07-15T08:52:20Z</time>
      </trkpt>
      <trkpt lat="44.80657" lon="1.56061">
        <ele>114.53</ele>
        <time>2020-07-15T08:52:38Z</time>
      </trkpt>
      <trkpt lat="44.80659" lon="1.56073">
        <ele>115.01</ele>
        <time>2020-07-15T08:52:58Z</time>
      </trkpt>
      <trkpt lat="44.80662" lon="1.56074">
        <ele>115.5</ele>
        <time>2020-07-15T08:53:27Z</time>
      </trkpt>
      <trkpt lat="44.80663" lon="1.56075">
        <ele>115.5</ele>
        <time>2020-07-15T08:54:02Z</time>
      </trkpt>
      <trkpt lat="44.80664" lon="1.56074">
        <ele>115.5</ele>
        <time>2020-07-15T08:54:18Z</time>
      </trkpt>
      <trkpt lat="44.80661" lon="1.56071">
        <ele>115.98</ele>
        <time>2020-07-15T08:54:51Z</time>
      </trkpt>
      <trkpt lat="44.80661" lon="1.56074">
        <ele>114.53</ele>
        <time>2020-07-15T08:55:10Z</time>
      </trkpt>
      <trkpt lat="44.80651" lon="1.56087">
        <ele>115.5</ele>
        <time>2020-07-15T08:55:33Z</time>
      </trkpt>
      <trkpt lat="44.80653" lon="1.5608">
        <ele>115.01</ele>
        <time>2020-07-15T09:03:25Z</time>
      </trkpt>
      <trkpt lat="44.80652" lon="1.56077">
        <ele>115.01</ele>
        <time>2020-07-15T09:03:50Z</time>
      </trkpt>
      <trkpt lat="44.80659" lon="1.56074">
        <ele>115.01</ele>
        <time>2020-07-15T09:04:19Z</time>
      </trkpt>
      <trkpt lat="44.80663" lon="1.56071">
        <ele>115.01</ele>
        <time>2020-07-15T09:04:44Z</time>
      </trkpt>
      <trkpt lat="44.80661" lon="1.56071">
        <ele>114.53</ele>
        <time>2020-07-15T09:05:09Z</time>
      </trkpt>
      <trkpt lat="44.80663" lon="1.56074">
        <ele>114.53</ele>
        <time>2020-07-15T09:05:40Z</time>
      </trkpt>
      <trkpt lat="44.80664" lon="1.56075">
        <ele>114.53</ele>
        <time>2020-07-15T09:06:06Z</time>
      </trkpt>
      <trkpt lat="44.80669" lon="1.56091">
        <ele>114.53</ele>
        <time>2020-07-15T09:06:29Z</time>
      </trkpt>
      <trkpt lat="44.8067" lon="1.56095">
        <ele>114.53</ele>
        <time>2020-07-15T09:06:31Z</time>
      </trkpt>
      <trkpt lat="44.80675" lon="1.56106">
        <ele>114.53</ele>
        <time>2020-07-15T09:06:38Z</time>
      </trkpt>
      <trkpt lat="44.8068" lon="1.56135">
        <ele>113.57</ele>
        <time>2020-07-15T09:06:54Z</time>
      </trkpt>
      <trkpt lat="44.80684" lon="1.56169">
        <ele>114.05</ele>
        <time>2020-07-15T09:07:13Z</time>
      </trkpt>
      <trkpt lat="44.80693" lon="1.56204">
        <ele>112.61</ele>
        <time>2020-07-15T09:07:32Z</time>
      </trkpt>
      <trkpt lat="44.80706" lon="1.56228">
        <ele>112.13</ele>
        <time>2020-07-15T09:07:49Z</time>
      </trkpt>
      <trkpt lat="44.80707" lon="1.5623">
        <ele>110.69</ele>
        <time>2020-07-15T09:07:51Z</time>
      </trkpt>
      <trkpt lat="44.80723" lon="1.56259">
        <ele>110.69</ele>
        <time>2020-07-15T09:08:13Z</time>
      </trkpt>
      <trkpt lat="44.80748" lon="1.56292">
        <ele>109.73</ele>
        <time>2020-07-15T09:08:35Z</time>
      </trkpt>
      <trkpt lat="44.8076" lon="1.56309">
        <ele>111.17</ele>
        <time>2020-07-15T09:08:52Z</time>
      </trkpt>
      <trkpt lat="44.80774" lon="1.56319">
        <ele>111.65</ele>
        <time>2020-07-15T09:09:05Z</time>
      </trkpt>
      <trkpt lat="44.80796" lon="1.56329">
        <ele>112.61</ele>
        <time>2020-07-15T09:09:24Z</time>
      </trkpt>
      <trkpt lat="44.8082" lon="1.56335">
        <ele>112.13</ele>
        <time>2020-07-15T09:09:40Z</time>
      </trkpt>
      <trkpt lat="44.80822" lon="1.56335">
        <ele>112.13</ele>
        <time>2020-07-15T09:09:41Z</time>
      </trkpt>
      <trkpt lat="44.80838" lon="1.56332">
        <ele>113.09</ele>
        <time>2020-07-15T09:09:53Z</time>
      </trkpt>
      <trkpt lat="44.80843" lon="1.56323">
        <ele>113.09</ele>
        <time>2020-07-15T09:09:58Z</time>
      </trkpt>
      <trkpt lat="44.80858" lon="1.56315">
        <ele>111.65</ele>
        <time>2020-07-15T09:10:11Z</time>
      </trkpt>
      <trkpt lat="44.80861" lon="1.56311">
        <ele>111.65</ele>
        <time>2020-07-15T09:10:16Z</time>
      </trkpt>
      <trkpt lat="44.80869" lon="1.56308">
        <ele>112.13</ele>
        <time>2020-07-15T09:10:32Z</time>
      </trkpt>
      <trkpt lat="44.80872" lon="1.56314">
        <ele>112.13</ele>
        <time>2020-07-15T09:10:52Z</time>
      </trkpt>
      <trkpt lat="44.80868" lon="1.56313">
        <ele>112.13</ele>
        <time>2020-07-15T09:11:14Z</time>
      </trkpt>
      <trkpt lat="44.80865" lon="1.56314">
        <ele>112.13</ele>
        <time>2020-07-15T09:11:34Z</time>
      </trkpt>
      <trkpt lat="44.80864" lon="1.56312">
        <ele>112.13</ele>
        <time>2020-07-15T09:11:52Z</time>
      </trkpt>
      <trkpt lat="44.80865" lon="1.56306">
        <ele>112.13</ele>
        <time>2020-07-15T09:12:15Z</time>
      </trkpt>
      <trkpt lat="44.8087" lon="1.56309">
        <ele>112.13</ele>
        <time>2020-07-15T09:12:30Z</time>
      </trkpt>
      <trkpt lat="44.8086" lon="1.56338">
        <ele>112.13</ele>
        <time>2020-07-15T09:12:57Z</time>
      </trkpt>
      <trkpt lat="44.80867" lon="1.56312">
        <ele>112.13</ele>
        <time>2020-07-15T09:13:23Z</time>
      </trkpt>
      <trkpt lat="44.80872" lon="1.56303">
        <ele>112.61</ele>
        <time>2020-07-15T09:13:44Z</time>
      </trkpt>
      <trkpt lat="44.80877" lon="1.56298">
        <ele>113.57</ele>
        <time>2020-07-15T09:14:01Z</time>
      </trkpt>
      <trkpt lat="44.80889" lon="1.56267">
        <ele>113.57</ele>
        <time>2020-07-15T09:14:22Z</time>
      </trkpt>
      <trkpt lat="44.80891" lon="1.56259">
        <ele>113.57</ele>
        <time>2020-07-15T09:14:27Z</time>
      </trkpt>
      <trkpt lat="44.80894" lon="1.56247">
        <ele>112.13</ele>
        <time>2020-07-15T09:14:33Z</time>
      </trkpt>
      <trkpt lat="44.80896" lon="1.56213">
        <ele>110.69</ele>
        <time>2020-07-15T09:14:52Z</time>
      </trkpt>
      <trkpt lat="44.80895" lon="1.56198">
        <ele>110.69</ele>
        <time>2020-07-15T09:15:02Z</time>
      </trkpt>
      <trkpt lat="44.80891" lon="1.56154">
        <ele>110.21</ele>
        <time>2020-07-15T09:15:25Z</time>
      </trkpt>
      <trkpt lat="44.80887" lon="1.56123">
        <ele>110.21</ele>
        <time>2020-07-15T09:15:42Z</time>
      </trkpt>
      <trkpt lat="44.80889" lon="1.56092">
        <ele>110.21</ele>
        <time>2020-07-15T09:16:00Z</time>
      </trkpt>
      <trkpt lat="44.80897" lon="1.56058">
        <ele>110.21</ele>
        <time>2020-07-15T09:16:19Z</time>
      </trkpt>
      <trkpt lat="44.80897" lon="1.56052">
        <ele>110.21</ele>
        <time>2020-07-15T09:16:36Z</time>
      </trkpt>
      <trkpt lat="44.80904" lon="1.56029">
        <ele>110.21</ele>
        <time>2020-07-15T09:16:51Z</time>
      </trkpt>
      <trkpt lat="44.8091" lon="1.56026">
        <ele>114.53</ele>
        <time>2020-07-15T09:17:04Z</time>
      </trkpt>
      <trkpt lat="44.80909" lon="1.56025">
        <ele>111.65</ele>
        <time>2020-07-15T09:17:05Z</time>
      </trkpt>
      <trkpt lat="44.80908" lon="1.56023">
        <ele>110.69</ele>
        <time>2020-07-15T09:17:06Z</time>
      </trkpt>
      <trkpt lat="44.80906" lon="1.56012">
        <ele>110.69</ele>
        <time>2020-07-15T09:17:11Z</time>
      </trkpt>
      <trkpt lat="44.80916" lon="1.55983">
        <ele>110.21</ele>
        <time>2020-07-15T09:17:30Z</time>
      </trkpt>
      <trkpt lat="44.80935" lon="1.5597">
        <ele>111.17</ele>
        <time>2020-07-15T09:17:46Z</time>
      </trkpt>
      <trkpt lat="44.80948" lon="1.55968">
        <ele>109.73</ele>
        <time>2020-07-15T09:17:55Z</time>
      </trkpt>
      <trkpt lat="44.80949" lon="1.55968">
        <ele>111.65</ele>
        <time>2020-07-15T09:17:56Z</time>
      </trkpt>
      <trkpt lat="44.80965" lon="1.55973">
        <ele>110.21</ele>
        <time>2020-07-15T09:18:08Z</time>
      </trkpt>
      <trkpt lat="44.80972" lon="1.55974">
        <ele>111.17</ele>
        <time>2020-07-15T09:18:15Z</time>
      </trkpt>
      <trkpt lat="44.80987" lon="1.55993">
        <ele>111.17</ele>
        <time>2020-07-15T09:18:29Z</time>
      </trkpt>
      <trkpt lat="44.81005" lon="1.56012">
        <ele>111.17</ele>
        <time>2020-07-15T09:18:47Z</time>
      </trkpt>
      <trkpt lat="44.8102" lon="1.56026">
        <ele>110.21</ele>
        <time>2020-07-15T09:19:01Z</time>
      </trkpt>
      <trkpt lat="44.8103" lon="1.56044">
        <ele>111.65</ele>
        <time>2020-07-15T09:19:14Z</time>
      </trkpt>
      <trkpt lat="44.81033" lon="1.56046">
        <ele>111.65</ele>
        <time>2020-07-15T09:19:17Z</time>
      </trkpt>
      <trkpt lat="44.81038" lon="1.56052">
        <ele>111.65</ele>
        <time>2020-07-15T09:19:24Z</time>
      </trkpt>
      <trkpt lat="44.81047" lon="1.5606">
        <ele>111.17</ele>
        <time>2020-07-15T09:19:40Z</time>
      </trkpt>
      <trkpt lat="44.81047" lon="1.56067">
        <ele>111.17</ele>
        <time>2020-07-15T09:20:07Z</time>
      </trkpt>
      <trkpt lat="44.81047" lon="1.56066">
        <ele>111.17</ele>
        <time>2020-07-15T09:20:10Z</time>
      </trkpt>
      <trkpt lat="44.81063" lon="1.56074">
        <ele>110.21</ele>
        <time>2020-07-15T09:20:26Z</time>
      </trkpt>
      <trkpt lat="44.81085" lon="1.56096">
        <ele>111.17</ele>
        <time>2020-07-15T09:20:44Z</time>
      </trkpt>
      <trkpt lat="44.81107" lon="1.56105">
        <ele>111.17</ele>
        <time>2020-07-15T09:21:02Z</time>
      </trkpt>
      <trkpt lat="44.81111" lon="1.56106">
        <ele>111.17</ele>
        <time>2020-07-15T09:21:06Z</time>
      </trkpt>
      <trkpt lat="44.81116" lon="1.56105">
        <ele>111.17</ele>
        <time>2020-07-15T09:21:11Z</time>
      </trkpt>
      <trkpt lat="44.81131" lon="1.56092">
        <ele>111.17</ele>
        <time>2020-07-15T09:21:24Z</time>
      </trkpt>
      <trkpt lat="44.81144" lon="1.56078">
        <ele>111.17</ele>
        <time>2020-07-15T09:21:39Z</time>
      </trkpt>
      <trkpt lat="44.81149" lon="1.56074">
        <ele>110.21</ele>
        <time>2020-07-15T09:21:55Z</time>
      </trkpt>
      <trkpt lat="44.81151" lon="1.56075">
        <ele>110.21</ele>
        <time>2020-07-15T09:22:10Z</time>
      </trkpt>
      <trkpt lat="44.81155" lon="1.5608">
        <ele>109.73</ele>
        <time>2020-07-15T09:22:26Z</time>
      </trkpt>
      <trkpt lat="44.81159" lon="1.5608">
        <ele>109.73</ele>
        <time>2020-07-15T09:22:43Z</time>
      </trkpt>
      <trkpt lat="44.81165" lon="1.56089">
        <ele>111.17</ele>
        <time>2020-07-15T09:22:57Z</time>
      </trkpt>
      <trkpt lat="44.81185" lon="1.5609">
        <ele>112.61</ele>
        <time>2020-07-15T09:23:16Z</time>
      </trkpt>
      <trkpt lat="44.8119" lon="1.56086">
        <ele>112.61</ele>
        <time>2020-07-15T09:23:22Z</time>
      </trkpt>
      <trkpt lat="44.81201" lon="1.56072">
        <ele>112.61</ele>
        <time>2020-07-15T09:23:33Z</time>
      </trkpt>
      <trkpt lat="44.81216" lon="1.56047">
        <ele>111.65</ele>
        <time>2020-07-15T09:23:51Z</time>
      </trkpt>
      <trkpt lat="44.81231" lon="1.56027">
        <ele>111.65</ele>
        <time>2020-07-15T09:24:09Z</time>
      </trkpt>
      <trkpt lat="44.81245" lon="1.56027">
        <ele>111.65</ele>
        <time>2020-07-15T09:24:25Z</time>
      </trkpt>
      <trkpt lat="44.8125" lon="1.56012">
        <ele>111.17</ele>
        <time>2020-07-15T09:24:39Z</time>
      </trkpt>
      <trkpt lat="44.81268" lon="1.55995">
        <ele>111.17</ele>
        <time>2020-07-15T09:24:57Z</time>
      </trkpt>
      <trkpt lat="44.81277" lon="1.55992">
        <ele>112.13</ele>
        <time>2020-07-15T09:25:06Z</time>
      </trkpt>
      <trkpt lat="44.81288" lon="1.55985">
        <ele>110.69</ele>
        <time>2020-07-15T09:25:16Z</time>
      </trkpt>
      <trkpt lat="44.81301" lon="1.55968">
        <ele>109.73</ele>
        <time>2020-07-15T09:25:32Z</time>
      </trkpt>
      <trkpt lat="44.81304" lon="1.55961">
        <ele>109.73</ele>
        <time>2020-07-15T09:25:39Z</time>
      </trkpt>
      <trkpt lat="44.81315" lon="1.55927">
        <ele>109.25</ele>
        <time>2020-07-15T09:25:59Z</time>
      </trkpt>
      <trkpt lat="44.81331" lon="1.55902">
        <ele>108.29</ele>
        <time>2020-07-15T09:26:18Z</time>
      </trkpt>
      <trkpt lat="44.81345" lon="1.55872">
        <ele>107.81</ele>
        <time>2020-07-15T09:26:39Z</time>
      </trkpt>
      <trkpt lat="44.81354" lon="1.55849">
        <ele>107.32</ele>
        <time>2020-07-15T09:26:55Z</time>
      </trkpt>
      <trkpt lat="44.81363" lon="1.55823">
        <ele>107.32</ele>
        <time>2020-07-15T09:27:12Z</time>
      </trkpt>
      <trkpt lat="44.81376" lon="1.5579">
        <ele>108.77</ele>
        <time>2020-07-15T09:27:32Z</time>
      </trkpt>
      <trkpt lat="44.81382" lon="1.5576">
        <ele>108.77</ele>
        <time>2020-07-15T09:27:52Z</time>
      </trkpt>
      <trkpt lat="44.81392" lon="1.55722">
        <ele>108.77</ele>
        <time>2020-07-15T09:28:15Z</time>
      </trkpt>
      <trkpt lat="44.81398" lon="1.55687">
        <ele>109.73</ele>
        <time>2020-07-15T09:28:37Z</time>
      </trkpt>
      <trkpt lat="44.81399" lon="1.55682">
        <ele>108.29</ele>
        <time>2020-07-15T09:28:40Z</time>
      </trkpt>
      <trkpt lat="44.81402" lon="1.55666">
        <ele>109.25</ele>
        <time>2020-07-15T09:28:49Z</time>
      </trkpt>
      <trkpt lat="44.81402" lon="1.55659">
        <ele>109.25</ele>
        <time>2020-07-15T09:28:53Z</time>
      </trkpt>
      <trkpt lat="44.81402" lon="1.55651">
        <ele>107.32</ele>
        <time>2020-07-15T09:28:57Z</time>
      </trkpt>
      <trkpt lat="44.81403" lon="1.55643">
        <ele>108.77</ele>
        <time>2020-07-15T09:29:02Z</time>
      </trkpt>
      <trkpt lat="44.81412" lon="1.55608">
        <ele>107.32</ele>
        <time>2020-07-15T09:29:21Z</time>
      </trkpt>
      <trkpt lat="44.81417" lon="1.55576">
        <ele>108.29</ele>
        <time>2020-07-15T09:29:40Z</time>
      </trkpt>
      <trkpt lat="44.81424" lon="1.55544">
        <ele>108.77</ele>
        <time>2020-07-15T09:29:59Z</time>
      </trkpt>
      <trkpt lat="44.81433" lon="1.55526">
        <ele>110.21</ele>
        <time>2020-07-15T09:30:15Z</time>
      </trkpt>
      <trkpt lat="44.81449" lon="1.55509">
        <ele>112.13</ele>
        <time>2020-07-15T09:30:35Z</time>
      </trkpt>
      <trkpt lat="44.81462" lon="1.55493">
        <ele>114.05</ele>
        <time>2020-07-15T09:30:52Z</time>
      </trkpt>
      <trkpt lat="44.81479" lon="1.55481">
        <ele>113.09</ele>
        <time>2020-07-15T09:31:10Z</time>
      </trkpt>
      <trkpt lat="44.81497" lon="1.55478">
        <ele>112.13</ele>
        <time>2020-07-15T09:31:27Z</time>
      </trkpt>
      <trkpt lat="44.81503" lon="1.55477">
        <ele>111.65</ele>
        <time>2020-07-15T09:31:54Z</time>
      </trkpt>
      <trkpt lat="44.81509" lon="1.55477">
        <ele>112.61</ele>
        <time>2020-07-15T09:32:23Z</time>
      </trkpt>
      <trkpt lat="44.81506" lon="1.55477">
        <ele>112.61</ele>
        <time>2020-07-15T09:32:52Z</time>
      </trkpt>
      <trkpt lat="44.8152" lon="1.55478">
        <ele>112.61</ele>
        <time>2020-07-15T09:33:05Z</time>
      </trkpt>
      <trkpt lat="44.81542" lon="1.55484">
        <ele>111.17</ele>
        <time>2020-07-15T09:33:23Z</time>
      </trkpt>
      <trkpt lat="44.81565" lon="1.55499">
        <ele>112.13</ele>
        <time>2020-07-15T09:33:41Z</time>
      </trkpt>
      <trkpt lat="44.81566" lon="1.555">
        <ele>112.13</ele>
        <time>2020-07-15T09:33:42Z</time>
      </trkpt>
      <trkpt lat="44.81586" lon="1.55517">
        <ele>112.61</ele>
        <time>2020-07-15T09:34:00Z</time>
      </trkpt>
      <trkpt lat="44.81608" lon="1.55531">
        <ele>110.69</ele>
        <time>2020-07-15T09:34:19Z</time>
      </trkpt>
      <trkpt lat="44.81634" lon="1.55535">
        <ele>109.73</ele>
        <time>2020-07-15T09:34:41Z</time>
      </trkpt>
      <trkpt lat="44.81657" lon="1.55534">
        <ele>108.77</ele>
        <time>2020-07-15T09:35:01Z</time>
      </trkpt>
      <trkpt lat="44.8168" lon="1.55526">
        <ele>106.84</ele>
        <time>2020-07-15T09:35:19Z</time>
      </trkpt>
      <trkpt lat="44.81706" lon="1.5552">
        <ele>106.36</ele>
        <time>2020-07-15T09:35:40Z</time>
      </trkpt>
      <trkpt lat="44.81727" lon="1.55509">
        <ele>106.36</ele>
        <time>2020-07-15T09:35:56Z</time>
      </trkpt>
      <trkpt lat="44.81747" lon="1.55498">
        <ele>106.36</ele>
        <time>2020-07-15T09:36:14Z</time>
      </trkpt>
      <trkpt lat="44.81768" lon="1.55485">
        <ele>106.84</ele>
        <time>2020-07-15T09:36:34Z</time>
      </trkpt>
      <trkpt lat="44.81773" lon="1.55481">
        <ele>105.4</ele>
        <time>2020-07-15T09:36:38Z</time>
      </trkpt>
      <trkpt lat="44.81786" lon="1.55465">
        <ele>105.4</ele>
        <time>2020-07-15T09:36:55Z</time>
      </trkpt>
      <trkpt lat="44.81791" lon="1.55463">
        <ele>106.84</ele>
        <time>2020-07-15T09:36:59Z</time>
      </trkpt>
      <trkpt lat="44.81807" lon="1.55445">
        <ele>108.29</ele>
        <time>2020-07-15T09:37:18Z</time>
      </trkpt>
      <trkpt lat="44.81814" lon="1.55415">
        <ele>109.73</ele>
        <time>2020-07-15T09:37:37Z</time>
      </trkpt>
      <trkpt lat="44.81817" lon="1.55388">
        <ele>111.17</ele>
        <time>2020-07-15T09:37:54Z</time>
      </trkpt>
      <trkpt lat="44.81817" lon="1.55386">
        <ele>111.17</ele>
        <time>2020-07-15T09:37:55Z</time>
      </trkpt>
      <trkpt lat="44.81817" lon="1.55383">
        <ele>111.17</ele>
        <time>2020-07-15T09:37:57Z</time>
      </trkpt>
      <trkpt lat="44.81817" lon="1.55379">
        <ele>111.17</ele>
        <time>2020-07-15T09:37:59Z</time>
      </trkpt>
      <trkpt lat="44.81817" lon="1.55373">
        <ele>109.73</ele>
        <time>2020-07-15T09:38:02Z</time>
      </trkpt>
      <trkpt lat="44.81831" lon="1.55354">
        <ele>108.77</ele>
        <time>2020-07-15T09:38:20Z</time>
      </trkpt>
      <trkpt lat="44.81847" lon="1.55343">
        <ele>110.21</ele>
        <time>2020-07-15T09:38:37Z</time>
      </trkpt>
      <trkpt lat="44.81856" lon="1.55343">
        <ele>110.21</ele>
        <time>2020-07-15T09:38:40Z</time>
      </trkpt>
      <trkpt lat="44.81879" lon="1.55336">
        <ele>111.17</ele>
        <time>2020-07-15T09:38:57Z</time>
      </trkpt>
      <trkpt lat="44.81899" lon="1.55332">
        <ele>111.17</ele>
        <time>2020-07-15T09:39:14Z</time>
      </trkpt>
      <trkpt lat="44.81907" lon="1.55332">
        <ele>110.21</ele>
        <time>2020-07-15T09:39:21Z</time>
      </trkpt>
      <trkpt lat="44.81909" lon="1.55331">
        <ele>109.25</ele>
        <time>2020-07-15T09:39:23Z</time>
      </trkpt>
      <trkpt lat="44.81935" lon="1.55326">
        <ele>109.73</ele>
        <time>2020-07-15T09:39:43Z</time>
      </trkpt>
      <trkpt lat="44.81959" lon="1.5532">
        <ele>108.77</ele>
        <time>2020-07-15T09:40:02Z</time>
      </trkpt>
      <trkpt lat="44.81984" lon="1.55316">
        <ele>108.29</ele>
        <time>2020-07-15T09:40:21Z</time>
      </trkpt>
      <trkpt lat="44.82001" lon="1.55304">
        <ele>107.81</ele>
        <time>2020-07-15T09:40:40Z</time>
      </trkpt>
      <trkpt lat="44.82014" lon="1.55294">
        <ele>105.88</ele>
        <time>2020-07-15T09:40:52Z</time>
      </trkpt>
      <trkpt lat="44.82031" lon="1.55272">
        <ele>105.4</ele>
        <time>2020-07-15T09:41:12Z</time>
      </trkpt>
      <trkpt lat="44.8205" lon="1.55255">
        <ele>105.4</ele>
        <time>2020-07-15T09:41:32Z</time>
      </trkpt>
      <trkpt lat="44.8206" lon="1.55244">
        <ele>105.4</ele>
        <time>2020-07-15T09:41:47Z</time>
      </trkpt>
      <trkpt lat="44.82077" lon="1.55226">
        <ele>106.36</ele>
        <time>2020-07-15T09:42:04Z</time>
      </trkpt>
      <trkpt lat="44.82092" lon="1.55209">
        <ele>106.36</ele>
        <time>2020-07-15T09:42:21Z</time>
      </trkpt>
      <trkpt lat="44.82103" lon="1.55194">
        <ele>106.84</ele>
        <time>2020-07-15T09:42:38Z</time>
      </trkpt>
      <trkpt lat="44.82117" lon="1.55163">
        <ele>106.84</ele>
        <time>2020-07-15T09:42:58Z</time>
      </trkpt>
      <trkpt lat="44.82118" lon="1.55158">
        <ele>106.84</ele>
        <time>2020-07-15T09:43:01Z</time>
      </trkpt>
      <trkpt lat="44.82118" lon="1.55154">
        <ele>105.4</ele>
        <time>2020-07-15T09:43:03Z</time>
      </trkpt>
      <trkpt lat="44.82127" lon="1.55132">
        <ele>104.44</ele>
        <time>2020-07-15T09:43:19Z</time>
      </trkpt>
      <trkpt lat="44.82137" lon="1.55092">
        <ele>103.48</ele>
        <time>2020-07-15T09:43:39Z</time>
      </trkpt>
      <trkpt lat="44.82146" lon="1.55065">
        <ele>103.48</ele>
        <time>2020-07-15T09:43:58Z</time>
      </trkpt>
      <trkpt lat="44.82147" lon="1.55063">
        <ele>104.92</ele>
        <time>2020-07-15T09:44:00Z</time>
      </trkpt>
      <trkpt lat="44.82154" lon="1.55036">
        <ele>106.84</ele>
        <time>2020-07-15T09:44:18Z</time>
      </trkpt>
      <trkpt lat="44.82156" lon="1.55017">
        <ele>105.4</ele>
        <time>2020-07-15T09:44:28Z</time>
      </trkpt>
      <trkpt lat="44.82156" lon="1.55012">
        <ele>104.92</ele>
        <time>2020-07-15T09:44:31Z</time>
      </trkpt>
      <trkpt lat="44.8216" lon="1.54979">
        <ele>103.96</ele>
        <time>2020-07-15T09:44:49Z</time>
      </trkpt>
      <trkpt lat="44.82159" lon="1.5495">
        <ele>102.52</ele>
        <time>2020-07-15T09:45:05Z</time>
      </trkpt>
      <trkpt lat="44.82162" lon="1.5492">
        <ele>102.04</ele>
        <time>2020-07-15T09:45:23Z</time>
      </trkpt>
      <trkpt lat="44.82166" lon="1.54891">
        <ele>103.48</ele>
        <time>2020-07-15T09:45:42Z</time>
      </trkpt>
      <trkpt lat="44.82172" lon="1.54864">
        <ele>106.36</ele>
        <time>2020-07-15T09:46:04Z</time>
      </trkpt>
      <trkpt lat="44.82175" lon="1.54826">
        <ele>107.81</ele>
        <time>2020-07-15T09:46:24Z</time>
      </trkpt>
      <trkpt lat="44.82186" lon="1.54795">
        <ele>108.29</ele>
        <time>2020-07-15T09:46:44Z</time>
      </trkpt>
      <trkpt lat="44.82201" lon="1.54779">
        <ele>109.25</ele>
        <time>2020-07-15T09:47:04Z</time>
      </trkpt>
      <trkpt lat="44.82213" lon="1.54774">
        <ele>109.25</ele>
        <time>2020-07-15T09:47:19Z</time>
      </trkpt>
      <trkpt lat="44.82234" lon="1.54764">
        <ele>110.21</ele>
        <time>2020-07-15T09:47:41Z</time>
      </trkpt>
      <trkpt lat="44.8226" lon="1.5477">
        <ele>110.69</ele>
        <time>2020-07-15T09:48:04Z</time>
      </trkpt>
      <trkpt lat="44.82284" lon="1.54786">
        <ele>112.13</ele>
        <time>2020-07-15T09:48:26Z</time>
      </trkpt>
      <trkpt lat="44.82303" lon="1.54802">
        <ele>112.61</ele>
        <time>2020-07-15T09:48:46Z</time>
      </trkpt>
      <trkpt lat="44.82323" lon="1.54821">
        <ele>112.61</ele>
        <time>2020-07-15T09:49:07Z</time>
      </trkpt>
      <trkpt lat="44.82326" lon="1.54824">
        <ele>110.69</ele>
        <time>2020-07-15T09:49:10Z</time>
      </trkpt>
      <trkpt lat="44.82348" lon="1.54839">
        <ele>108.77</ele>
        <time>2020-07-15T09:49:29Z</time>
      </trkpt>
      <trkpt lat="44.82363" lon="1.54861">
        <ele>106.84</ele>
        <time>2020-07-15T09:49:49Z</time>
      </trkpt>
      <trkpt lat="44.82377" lon="1.54887">
        <ele>103</ele>
        <time>2020-07-15T09:50:07Z</time>
      </trkpt>
      <trkpt lat="44.82379" lon="1.54888">
        <ele>103</ele>
        <time>2020-07-15T09:50:08Z</time>
      </trkpt>
      <trkpt lat="44.82381" lon="1.54891">
        <ele>103</ele>
        <time>2020-07-15T09:50:12Z</time>
      </trkpt>
      <trkpt lat="44.82395" lon="1.54906">
        <ele>102.52</ele>
        <time>2020-07-15T09:50:28Z</time>
      </trkpt>
      <trkpt lat="44.82399" lon="1.54911">
        <ele>102.04</ele>
        <time>2020-07-15T09:50:32Z</time>
      </trkpt>
      <trkpt lat="44.82408" lon="1.54926">
        <ele>100.6</ele>
        <time>2020-07-15T09:50:44Z</time>
      </trkpt>
      <trkpt lat="44.8242" lon="1.54951">
        <ele>100.6</ele>
        <time>2020-07-15T09:51:01Z</time>
      </trkpt>
      <trkpt lat="44.8243" lon="1.54973">
        <ele>102.04</ele>
        <time>2020-07-15T09:51:17Z</time>
      </trkpt>
      <trkpt lat="44.8245" lon="1.55002">
        <ele>103.96</ele>
        <time>2020-07-15T09:51:39Z</time>
      </trkpt>
      <trkpt lat="44.82466" lon="1.55022">
        <ele>103.48</ele>
        <time>2020-07-15T09:51:58Z</time>
      </trkpt>
      <trkpt lat="44.82485" lon="1.55049">
        <ele>102.04</ele>
        <time>2020-07-15T09:52:19Z</time>
      </trkpt>
      <trkpt lat="44.82497" lon="1.55072">
        <ele>99.63</ele>
        <time>2020-07-15T09:52:39Z</time>
      </trkpt>
      <trkpt lat="44.82506" lon="1.55079">
        <ele>99.63</ele>
        <time>2020-07-15T09:53:01Z</time>
      </trkpt>
      <trkpt lat="44.82513" lon="1.55076">
        <ele>100.6</ele>
        <time>2020-07-15T09:53:24Z</time>
      </trkpt>
      <trkpt lat="44.82516" lon="1.55075">
        <ele>101.08</ele>
        <time>2020-07-15T09:53:51Z</time>
      </trkpt>
      <trkpt lat="44.82517" lon="1.55071">
        <ele>101.08</ele>
        <time>2020-07-15T09:54:16Z</time>
      </trkpt>
      <trkpt lat="44.82515" lon="1.55074">
        <ele>101.08</ele>
        <time>2020-07-15T09:54:49Z</time>
      </trkpt>
      <trkpt lat="44.82513" lon="1.55074">
        <ele>101.08</ele>
        <time>2020-07-15T09:55:21Z</time>
      </trkpt>
      <trkpt lat="44.8251" lon="1.55072">
        <ele>101.08</ele>
        <time>2020-07-15T09:55:50Z</time>
      </trkpt>
      <trkpt lat="44.82515" lon="1.5508">
        <ele>101.56</ele>
        <time>2020-07-15T09:56:14Z</time>
      </trkpt>
      <trkpt lat="44.82545" lon="1.55077">
        <ele>101.56</ele>
        <time>2020-07-15T09:56:33Z</time>
      </trkpt>
      <trkpt lat="44.82558" lon="1.55077">
        <ele>100.11</ele>
        <time>2020-07-15T09:56:46Z</time>
      </trkpt>
      <trkpt lat="44.82577" lon="1.55081">
        <ele>100.11</ele>
        <time>2020-07-15T09:57:08Z</time>
      </trkpt>
      <trkpt lat="44.82608" lon="1.55075">
        <ele>100.11</ele>
        <time>2020-07-15T09:57:33Z</time>
      </trkpt>
      <trkpt lat="44.82625" lon="1.5507">
        <ele>100.11</ele>
        <time>2020-07-15T09:57:48Z</time>
      </trkpt>
      <trkpt lat="44.82645" lon="1.55063">
        <ele>100.11</ele>
        <time>2020-07-15T09:58:08Z</time>
      </trkpt>
      <trkpt lat="44.82662" lon="1.55057">
        <ele>100.11</ele>
        <time>2020-07-15T09:58:25Z</time>
      </trkpt>
      <trkpt lat="44.8268" lon="1.55053">
        <ele>100.11</ele>
        <time>2020-07-15T09:58:44Z</time>
      </trkpt>
      <trkpt lat="44.8268" lon="1.55043">
        <ele>100.11</ele>
        <time>2020-07-15T09:59:07Z</time>
      </trkpt>
      <trkpt lat="44.82685" lon="1.55047">
        <ele>100.11</ele>
        <time>2020-07-15T09:59:28Z</time>
      </trkpt>
      <trkpt lat="44.82686" lon="1.55049">
        <ele>100.11</ele>
        <time>2020-07-15T09:59:54Z</time>
      </trkpt>
      <trkpt lat="44.82689" lon="1.5505">
        <ele>100.11</ele>
        <time>2020-07-15T10:00:22Z</time>
      </trkpt>
      <trkpt lat="44.82689" lon="1.55054">
        <ele>100.6</ele>
        <time>2020-07-15T10:00:52Z</time>
      </trkpt>
      <trkpt lat="44.82683" lon="1.55052">
        <ele>100.6</ele>
        <time>2020-07-15T10:01:16Z</time>
      </trkpt>
      <trkpt lat="44.82694" lon="1.55068">
        <ele>102.04</ele>
        <time>2020-07-15T10:01:35Z</time>
      </trkpt>
      <trkpt lat="44.82716" lon="1.55064">
        <ele>102.52</ele>
        <time>2020-07-15T10:01:55Z</time>
      </trkpt>
      <trkpt lat="44.82738" lon="1.55045">
        <ele>100.11</ele>
        <time>2020-07-15T10:02:15Z</time>
      </trkpt>
      <trkpt lat="44.8274" lon="1.55043">
        <ele>101.08</ele>
        <time>2020-07-15T10:02:18Z</time>
      </trkpt>
      <trkpt lat="44.82752" lon="1.55034">
        <ele>100.11</ele>
        <time>2020-07-15T10:02:30Z</time>
      </trkpt>
      <trkpt lat="44.82778" lon="1.55013">
        <ele>101.08</ele>
        <time>2020-07-15T10:02:49Z</time>
      </trkpt>
      <trkpt lat="44.82798" lon="1.54995">
        <ele>101.56</ele>
        <time>2020-07-15T10:03:09Z</time>
      </trkpt>
      <trkpt lat="44.828" lon="1.54994">
        <ele>101.56</ele>
        <time>2020-07-15T10:03:11Z</time>
      </trkpt>
      <trkpt lat="44.82806" lon="1.54993">
        <ele>101.56</ele>
        <time>2020-07-15T10:03:15Z</time>
      </trkpt>
      <trkpt lat="44.82826" lon="1.54989">
        <ele>102.04</ele>
        <time>2020-07-15T10:03:33Z</time>
      </trkpt>
      <trkpt lat="44.82836" lon="1.55004">
        <ele>104.92</ele>
        <time>2020-07-15T10:03:52Z</time>
      </trkpt>
      <trkpt lat="44.82843" lon="1.55027">
        <ele>106.84</ele>
        <time>2020-07-15T10:04:12Z</time>
      </trkpt>
      <trkpt lat="44.82853" lon="1.55055">
        <ele>107.81</ele>
        <time>2020-07-15T10:04:32Z</time>
      </trkpt>
      <trkpt lat="44.82863" lon="1.5508">
        <ele>107.81</ele>
        <time>2020-07-15T10:04:52Z</time>
      </trkpt>
      <trkpt lat="44.82869" lon="1.55108">
        <ele>107.81</ele>
        <time>2020-07-15T10:05:09Z</time>
      </trkpt>
      <trkpt lat="44.8287" lon="1.5511">
        <ele>107.81</ele>
        <time>2020-07-15T10:05:10Z</time>
      </trkpt>
      <trkpt lat="44.82873" lon="1.55124">
        <ele>106.36</ele>
        <time>2020-07-15T10:05:19Z</time>
      </trkpt>
      <trkpt lat="44.82878" lon="1.55163">
        <ele>105.4</ele>
        <time>2020-07-15T10:05:41Z</time>
      </trkpt>
      <trkpt lat="44.82879" lon="1.55179">
        <ele>105.4</ele>
        <time>2020-07-15T10:05:55Z</time>
      </trkpt>
      <trkpt lat="44.82886" lon="1.55201">
        <ele>104.44</ele>
        <time>2020-07-15T10:06:10Z</time>
      </trkpt>
      <trkpt lat="44.82905" lon="1.55233">
        <ele>103.96</ele>
        <time>2020-07-15T10:06:32Z</time>
      </trkpt>
      <trkpt lat="44.82924" lon="1.55253">
        <ele>103.48</ele>
        <time>2020-07-15T10:06:52Z</time>
      </trkpt>
      <trkpt lat="44.82955" lon="1.55261">
        <ele>102.52</ele>
        <time>2020-07-15T10:07:14Z</time>
      </trkpt>
      <trkpt lat="44.82976" lon="1.55268">
        <ele>100.6</ele>
        <time>2020-07-15T10:07:35Z</time>
      </trkpt>
      <trkpt lat="44.83005" lon="1.55267">
        <ele>99.63</ele>
        <time>2020-07-15T10:07:57Z</time>
      </trkpt>
      <trkpt lat="44.83028" lon="1.55268">
        <ele>98.67</ele>
        <time>2020-07-15T10:08:15Z</time>
      </trkpt>
      <trkpt lat="44.83046" lon="1.55265">
        <ele>100.6</ele>
        <time>2020-07-15T10:08:31Z</time>
      </trkpt>
      <trkpt lat="44.83068" lon="1.5525">
        <ele>101.56</ele>
        <time>2020-07-15T10:08:53Z</time>
      </trkpt>
      <trkpt lat="44.8307" lon="1.55248">
        <ele>99.63</ele>
        <time>2020-07-15T10:08:55Z</time>
      </trkpt>
      <trkpt lat="44.8308" lon="1.55243">
        <ele>99.63</ele>
        <time>2020-07-15T10:09:03Z</time>
      </trkpt>
      <trkpt lat="44.83098" lon="1.55222">
        <ele>99.63</ele>
        <time>2020-07-15T10:09:22Z</time>
      </trkpt>
      <trkpt lat="44.83114" lon="1.552">
        <ele>99.63</ele>
        <time>2020-07-15T10:09:44Z</time>
      </trkpt>
      <trkpt lat="44.83132" lon="1.55172">
        <ele>100.6</ele>
        <time>2020-07-15T10:10:04Z</time>
      </trkpt>
      <trkpt lat="44.83156" lon="1.5515">
        <ele>100.11</ele>
        <time>2020-07-15T10:10:27Z</time>
      </trkpt>
      <trkpt lat="44.83161" lon="1.55141">
        <ele>100.6</ele>
        <time>2020-07-15T10:10:50Z</time>
      </trkpt>
      <trkpt lat="44.83162" lon="1.55139">
        <ele>102.04</ele>
        <time>2020-07-15T10:11:09Z</time>
      </trkpt>
      <trkpt lat="44.83179" lon="1.55118">
        <ele>103</ele>
        <time>2020-07-15T10:11:31Z</time>
      </trkpt>
      <trkpt lat="44.83193" lon="1.55104">
        <ele>104.44</ele>
        <time>2020-07-15T10:11:46Z</time>
      </trkpt>
      <trkpt lat="44.83211" lon="1.55076">
        <ele>104.92</ele>
        <time>2020-07-15T10:12:09Z</time>
      </trkpt>
      <trkpt lat="44.83231" lon="1.55047">
        <ele>106.36</ele>
        <time>2020-07-15T10:12:32Z</time>
      </trkpt>
      <trkpt lat="44.8325" lon="1.5502">
        <ele>107.32</ele>
        <time>2020-07-15T10:12:52Z</time>
      </trkpt>
      <trkpt lat="44.83257" lon="1.55009">
        <ele>106.36</ele>
        <time>2020-07-15T10:13:00Z</time>
      </trkpt>
      <trkpt lat="44.83261" lon="1.55004">
        <ele>107.32</ele>
        <time>2020-07-15T10:13:04Z</time>
      </trkpt>
      <trkpt lat="44.83267" lon="1.54995">
        <ele>105.88</ele>
        <time>2020-07-15T10:13:11Z</time>
      </trkpt>
      <trkpt lat="44.83269" lon="1.54991">
        <ele>105.88</ele>
        <time>2020-07-15T10:13:14Z</time>
      </trkpt>
      <trkpt lat="44.83274" lon="1.54981">
        <ele>107.32</ele>
        <time>2020-07-15T10:13:20Z</time>
      </trkpt>
      <trkpt lat="44.83287" lon="1.54958">
        <ele>106.36</ele>
        <time>2020-07-15T10:13:37Z</time>
      </trkpt>
      <trkpt lat="44.83298" lon="1.54936">
        <ele>105.4</ele>
        <time>2020-07-15T10:13:54Z</time>
      </trkpt>
      <trkpt lat="44.83309" lon="1.54897">
        <ele>105.4</ele>
        <time>2020-07-15T10:14:15Z</time>
      </trkpt>
      <trkpt lat="44.83315" lon="1.54891">
        <ele>105.4</ele>
        <time>2020-07-15T10:14:38Z</time>
      </trkpt>
      <trkpt lat="44.83337" lon="1.54877">
        <ele>106.84</ele>
        <time>2020-07-15T10:14:57Z</time>
      </trkpt>
      <trkpt lat="44.83363" lon="1.54867">
        <ele>108.77</ele>
        <time>2020-07-15T10:15:22Z</time>
      </trkpt>
      <trkpt lat="44.83387" lon="1.54868">
        <ele>108.29</ele>
        <time>2020-07-15T10:15:42Z</time>
      </trkpt>
      <trkpt lat="44.83389" lon="1.54868">
        <ele>106.84</ele>
        <time>2020-07-15T10:15:44Z</time>
      </trkpt>
      <trkpt lat="44.83407" lon="1.54874">
        <ele>107.32</ele>
        <time>2020-07-15T10:16:00Z</time>
      </trkpt>
      <trkpt lat="44.83434" lon="1.5486">
        <ele>105.4</ele>
        <time>2020-07-15T10:16:20Z</time>
      </trkpt>
      <trkpt lat="44.83444" lon="1.54835">
        <ele>104.92</ele>
        <time>2020-07-15T10:16:35Z</time>
      </trkpt>
      <trkpt lat="44.83447" lon="1.54803">
        <ele>102.52</ele>
        <time>2020-07-15T10:16:55Z</time>
      </trkpt>
      <trkpt lat="44.83447" lon="1.548">
        <ele>102.52</ele>
        <time>2020-07-15T10:16:57Z</time>
      </trkpt>
      <trkpt lat="44.83449" lon="1.54797">
        <ele>102.52</ele>
        <time>2020-07-15T10:16:59Z</time>
      </trkpt>
      <trkpt lat="44.83469" lon="1.54801">
        <ele>102.52</ele>
        <time>2020-07-15T10:17:15Z</time>
      </trkpt>
      <trkpt lat="44.83478" lon="1.54807">
        <ele>102.52</ele>
        <time>2020-07-15T10:17:28Z</time>
      </trkpt>
      <trkpt lat="44.835" lon="1.54818">
        <ele>102.52</ele>
        <time>2020-07-15T10:17:46Z</time>
      </trkpt>
      <trkpt lat="44.83516" lon="1.54833">
        <ele>102.04</ele>
        <time>2020-07-15T10:18:02Z</time>
      </trkpt>
      <trkpt lat="44.83535" lon="1.54849">
        <ele>102.04</ele>
        <time>2020-07-15T10:18:21Z</time>
      </trkpt>
      <trkpt lat="44.83539" lon="1.54853">
        <ele>102.04</ele>
        <time>2020-07-15T10:18:24Z</time>
      </trkpt>
      <trkpt lat="44.83542" lon="1.5486">
        <ele>103.48</ele>
        <time>2020-07-15T10:18:27Z</time>
      </trkpt>
      <trkpt lat="44.83562" lon="1.54878">
        <ele>103.48</ele>
        <time>2020-07-15T10:18:46Z</time>
      </trkpt>
      <trkpt lat="44.83577" lon="1.54887">
        <ele>102.52</ele>
        <time>2020-07-15T10:18:58Z</time>
      </trkpt>
      <trkpt lat="44.83598" lon="1.54888">
        <ele>103.48</ele>
        <time>2020-07-15T10:19:17Z</time>
      </trkpt>
      <trkpt lat="44.83618" lon="1.54895">
        <ele>102.52</ele>
        <time>2020-07-15T10:19:35Z</time>
      </trkpt>
      <trkpt lat="44.83642" lon="1.54903">
        <ele>103</ele>
        <time>2020-07-15T10:19:54Z</time>
      </trkpt>
      <trkpt lat="44.83661" lon="1.54925">
        <ele>101.56</ele>
        <time>2020-07-15T10:20:10Z</time>
      </trkpt>
      <trkpt lat="44.83665" lon="1.54929">
        <ele>103</ele>
        <time>2020-07-15T10:20:14Z</time>
      </trkpt>
      <trkpt lat="44.83668" lon="1.54933">
        <ele>103</ele>
        <time>2020-07-15T10:20:18Z</time>
      </trkpt>
      <trkpt lat="44.83679" lon="1.54957">
        <ele>103</ele>
        <time>2020-07-15T10:20:32Z</time>
      </trkpt>
      <trkpt lat="44.83691" lon="1.54984">
        <ele>103.48</ele>
        <time>2020-07-15T10:20:51Z</time>
      </trkpt>
      <trkpt lat="44.83693" lon="1.54993">
        <ele>102.04</ele>
        <time>2020-07-15T10:20:57Z</time>
      </trkpt>
      <trkpt lat="44.83696" lon="1.55002">
        <ele>103.48</ele>
        <time>2020-07-15T10:21:02Z</time>
      </trkpt>
      <trkpt lat="44.83703" lon="1.55013">
        <ele>103.48</ele>
        <time>2020-07-15T10:21:18Z</time>
      </trkpt>
      <trkpt lat="44.83718" lon="1.55041">
        <ele>104.44</ele>
        <time>2020-07-15T10:21:38Z</time>
      </trkpt>
      <trkpt lat="44.8372" lon="1.55054">
        <ele>103.48</ele>
        <time>2020-07-15T10:21:53Z</time>
      </trkpt>
      <trkpt lat="44.8373" lon="1.5507">
        <ele>103.48</ele>
        <time>2020-07-15T10:22:11Z</time>
      </trkpt>
      <trkpt lat="44.8374" lon="1.55093">
        <ele>103.96</ele>
        <time>2020-07-15T10:22:27Z</time>
      </trkpt>
      <trkpt lat="44.83748" lon="1.55109">
        <ele>105.4</ele>
        <time>2020-07-15T10:22:40Z</time>
      </trkpt>
      <trkpt lat="44.83757" lon="1.55135">
        <ele>104.44</ele>
        <time>2020-07-15T10:22:57Z</time>
      </trkpt>
      <trkpt lat="44.83757" lon="1.55154">
        <ele>105.88</ele>
        <time>2020-07-15T10:23:12Z</time>
      </trkpt>
      <trkpt lat="44.8374" lon="1.55146">
        <ele>106.36</ele>
        <time>2020-07-15T10:23:40Z</time>
      </trkpt>
      <trkpt lat="44.83753" lon="1.55164">
        <ele>106.36</ele>
        <time>2020-07-15T10:23:59Z</time>
      </trkpt>
      <trkpt lat="44.8377" lon="1.55193">
        <ele>106.36</ele>
        <time>2020-07-15T10:24:21Z</time>
      </trkpt>
      <trkpt lat="44.83777" lon="1.5523">
        <ele>106.84</ele>
        <time>2020-07-15T10:24:42Z</time>
      </trkpt>
      <trkpt lat="44.83779" lon="1.5524">
        <ele>106.84</ele>
        <time>2020-07-15T10:24:47Z</time>
      </trkpt>
      <trkpt lat="44.83779" lon="1.55249">
        <ele>106.84</ele>
        <time>2020-07-15T10:24:52Z</time>
      </trkpt>
      <trkpt lat="44.83779" lon="1.55276">
        <ele>106.84</ele>
        <time>2020-07-15T10:25:09Z</time>
      </trkpt>
      <trkpt lat="44.8378" lon="1.55288">
        <ele>106.84</ele>
        <time>2020-07-15T10:25:16Z</time>
      </trkpt>
      <trkpt lat="44.83782" lon="1.55322">
        <ele>106.84</ele>
        <time>2020-07-15T10:25:35Z</time>
      </trkpt>
      <trkpt lat="44.8379" lon="1.55358">
        <ele>106.84</ele>
        <time>2020-07-15T10:25:55Z</time>
      </trkpt>
      <trkpt lat="44.83791" lon="1.55361">
        <ele>105.88</ele>
        <time>2020-07-15T10:25:58Z</time>
      </trkpt>
      <trkpt lat="44.83804" lon="1.55383">
        <ele>105.4</ele>
        <time>2020-07-15T10:26:14Z</time>
      </trkpt>
      <trkpt lat="44.83808" lon="1.55391">
        <ele>103.96</ele>
        <time>2020-07-15T10:26:19Z</time>
      </trkpt>
      <trkpt lat="44.83824" lon="1.55419">
        <ele>105.4</ele>
        <time>2020-07-15T10:26:38Z</time>
      </trkpt>
      <trkpt lat="44.83843" lon="1.55437">
        <ele>105.4</ele>
        <time>2020-07-15T10:26:58Z</time>
      </trkpt>
      <trkpt lat="44.83851" lon="1.55445">
        <ele>105.4</ele>
        <time>2020-07-15T10:27:06Z</time>
      </trkpt>
      <trkpt lat="44.83857" lon="1.55446">
        <ele>105.4</ele>
        <time>2020-07-15T10:27:21Z</time>
      </trkpt>
      <trkpt lat="44.83871" lon="1.55455">
        <ele>104.44</ele>
        <time>2020-07-15T10:27:31Z</time>
      </trkpt>
      <trkpt lat="44.83886" lon="1.55457">
        <ele>104.44</ele>
        <time>2020-07-15T10:27:51Z</time>
      </trkpt>
      <trkpt lat="44.83903" lon="1.55449">
        <ele>104.44</ele>
        <time>2020-07-15T10:28:08Z</time>
      </trkpt>
      <trkpt lat="44.83905" lon="1.55447">
        <ele>104.44</ele>
        <time>2020-07-15T10:28:10Z</time>
      </trkpt>
      <trkpt lat="44.83927" lon="1.55451">
        <ele>105.4</ele>
        <time>2020-07-15T10:28:29Z</time>
      </trkpt>
      <trkpt lat="44.83928" lon="1.55452">
        <ele>105.4</ele>
        <time>2020-07-15T10:29:04Z</time>
      </trkpt>
      <trkpt lat="44.83928" lon="1.55451">
        <ele>105.4</ele>
        <time>2020-07-15T10:29:36Z</time>
      </trkpt>
      <trkpt lat="44.83932" lon="1.55451">
        <ele>105.4</ele>
        <time>2020-07-15T10:29:59Z</time>
      </trkpt>
      <trkpt lat="44.83929" lon="1.55443">
        <ele>104.44</ele>
        <time>2020-07-15T10:30:35Z</time>
      </trkpt>
      <trkpt lat="44.83936" lon="1.55443">
        <ele>104.44</ele>
        <time>2020-07-15T10:30:44Z</time>
      </trkpt>
      <trkpt lat="44.83947" lon="1.55448">
        <ele>105.4</ele>
        <time>2020-07-15T10:31:02Z</time>
      </trkpt>
      <trkpt lat="44.83947" lon="1.5544">
        <ele>105.4</ele>
        <time>2020-07-15T10:31:08Z</time>
      </trkpt>
      <trkpt lat="44.83951" lon="1.55428">
        <ele>106.84</ele>
        <time>2020-07-15T10:31:24Z</time>
      </trkpt>
      <trkpt lat="44.83965" lon="1.55423">
        <ele>108.77</ele>
        <time>2020-07-15T10:31:42Z</time>
      </trkpt>
      <trkpt lat="44.83983" lon="1.5542">
        <ele>109.25</ele>
        <time>2020-07-15T10:31:57Z</time>
      </trkpt>
      <trkpt lat="44.84004" lon="1.55415">
        <ele>109.73</ele>
        <time>2020-07-15T10:32:14Z</time>
      </trkpt>
      <trkpt lat="44.84029" lon="1.5541">
        <ele>109.73</ele>
        <time>2020-07-15T10:32:35Z</time>
      </trkpt>
      <trkpt lat="44.8405" lon="1.55396">
        <ele>110.69</ele>
        <time>2020-07-15T10:32:54Z</time>
      </trkpt>
      <trkpt lat="44.84063" lon="1.5538">
        <ele>109.73</ele>
        <time>2020-07-15T10:33:14Z</time>
      </trkpt>
      <trkpt lat="44.84087" lon="1.55372">
        <ele>110.69</ele>
        <time>2020-07-15T10:33:36Z</time>
      </trkpt>
      <trkpt lat="44.84111" lon="1.55378">
        <ele>111.65</ele>
        <time>2020-07-15T10:33:57Z</time>
      </trkpt>
      <trkpt lat="44.84132" lon="1.55376">
        <ele>112.13</ele>
        <time>2020-07-15T10:34:15Z</time>
      </trkpt>
      <trkpt lat="44.84156" lon="1.55372">
        <ele>113.09</ele>
        <time>2020-07-15T10:34:35Z</time>
      </trkpt>
      <trkpt lat="44.8418" lon="1.55374">
        <ele>114.53</ele>
        <time>2020-07-15T10:34:55Z</time>
      </trkpt>
      <trkpt lat="44.84179" lon="1.55376">
        <ele>115.01</ele>
        <time>2020-07-15T10:35:07Z</time>
      </trkpt>
      <trkpt lat="44.8418" lon="1.55375">
        <ele>115.01</ele>
        <time>2020-07-15T10:35:30Z</time>
      </trkpt>
      <trkpt lat="44.84189" lon="1.55372">
        <ele>115.5</ele>
        <time>2020-07-15T10:35:49Z</time>
      </trkpt>
      <trkpt lat="44.84194" lon="1.55366">
        <ele>115.5</ele>
        <time>2020-07-15T10:36:04Z</time>
      </trkpt>
      <trkpt lat="44.84196" lon="1.55363">
        <ele>114.53</ele>
        <time>2020-07-15T10:36:07Z</time>
      </trkpt>
      <trkpt lat="44.84198" lon="1.55339">
        <ele>111.65</ele>
        <time>2020-07-15T10:36:25Z</time>
      </trkpt>
      <trkpt lat="44.84206" lon="1.55318">
        <ele>108.29</ele>
        <time>2020-07-15T10:36:42Z</time>
      </trkpt>
      <trkpt lat="44.84216" lon="1.55294">
        <ele>106.84</ele>
        <time>2020-07-15T10:36:56Z</time>
      </trkpt>
      <trkpt lat="44.8423" lon="1.55274">
        <ele>105.88</ele>
        <time>2020-07-15T10:37:16Z</time>
      </trkpt>
      <trkpt lat="44.84253" lon="1.55255">
        <ele>105.4</ele>
        <time>2020-07-15T10:37:35Z</time>
      </trkpt>
      <trkpt lat="44.84277" lon="1.55246">
        <ele>104.92</ele>
        <time>2020-07-15T10:37:52Z</time>
      </trkpt>
      <trkpt lat="44.84295" lon="1.55237">
        <ele>105.88</ele>
        <time>2020-07-15T10:38:08Z</time>
      </trkpt>
      <trkpt lat="44.84305" lon="1.55228">
        <ele>105.88</ele>
        <time>2020-07-15T10:38:16Z</time>
      </trkpt>
      <trkpt lat="44.84305" lon="1.55212">
        <ele>105.88</ele>
        <time>2020-07-15T10:38:24Z</time>
      </trkpt>
      <trkpt lat="44.84318" lon="1.55193">
        <ele>105.88</ele>
        <time>2020-07-15T10:38:45Z</time>
      </trkpt>
      <trkpt lat="44.84322" lon="1.5519">
        <ele>105.88</ele>
        <time>2020-07-15T10:39:06Z</time>
      </trkpt>
      <trkpt lat="44.84331" lon="1.55188">
        <ele>105.88</ele>
        <time>2020-07-15T10:39:21Z</time>
      </trkpt>
      <trkpt lat="44.8434" lon="1.55192">
        <ele>105.88</ele>
        <time>2020-07-15T10:39:38Z</time>
      </trkpt>
      <trkpt lat="44.8435" lon="1.5519">
        <ele>105.88</ele>
        <time>2020-07-15T10:39:59Z</time>
      </trkpt>
      <trkpt lat="44.8436" lon="1.55197">
        <ele>105.88</ele>
        <time>2020-07-15T10:40:24Z</time>
      </trkpt>
      <trkpt lat="44.84357" lon="1.55195">
        <ele>105.88</ele>
        <time>2020-07-15T10:40:54Z</time>
      </trkpt>
      <trkpt lat="44.84349" lon="1.55194">
        <ele>105.88</ele>
        <time>2020-07-15T10:41:25Z</time>
      </trkpt>
      <trkpt lat="44.84345" lon="1.5518">
        <ele>105.88</ele>
        <time>2020-07-15T10:41:51Z</time>
      </trkpt>
      <trkpt lat="44.84349" lon="1.55189">
        <ele>105.88</ele>
        <time>2020-07-15T10:42:20Z</time>
      </trkpt>
      <trkpt lat="44.84345" lon="1.55193">
        <ele>105.88</ele>
        <time>2020-07-15T10:42:47Z</time>
      </trkpt>
      <trkpt lat="44.84342" lon="1.55198">
        <ele>105.88</ele>
        <time>2020-07-15T10:43:10Z</time>
      </trkpt>
      <trkpt lat="44.84345" lon="1.55197">
        <ele>105.88</ele>
        <time>2020-07-15T10:43:44Z</time>
      </trkpt>
      <trkpt lat="44.8434" lon="1.55191">
        <ele>105.88</ele>
        <time>2020-07-15T10:44:00Z</time>
      </trkpt>
      <trkpt lat="44.84339" lon="1.55194">
        <ele>105.88</ele>
        <time>2020-07-15T10:44:26Z</time>
      </trkpt>
      <trkpt lat="44.84345" lon="1.55192">
        <ele>105.88</ele>
        <time>2020-07-15T10:44:39Z</time>
      </trkpt>
      <trkpt lat="44.84348" lon="1.5519">
        <ele>105.88</ele>
        <time>2020-07-15T10:45:08Z</time>
      </trkpt>
      <trkpt lat="44.84347" lon="1.55194">
        <ele>105.88</ele>
        <time>2020-07-15T10:45:19Z</time>
      </trkpt>
      <trkpt lat="44.84339" lon="1.55195">
        <ele>105.88</ele>
        <time>2020-07-15T10:45:25Z</time>
      </trkpt>
      <trkpt lat="44.84329" lon="1.55196">
        <ele>105.88</ele>
        <time>2020-07-15T10:45:32Z</time>
      </trkpt>
      <trkpt lat="44.84326" lon="1.55193">
        <ele>105.88</ele>
        <time>2020-07-15T10:45:35Z</time>
      </trkpt>
      <trkpt lat="44.84318" lon="1.5519">
        <ele>105.88</ele>
        <time>2020-07-15T10:45:44Z</time>
      </trkpt>
      <trkpt lat="44.84313" lon="1.5519">
        <ele>105.88</ele>
        <time>2020-07-15T10:45:48Z</time>
      </trkpt>
      <trkpt lat="44.84295" lon="1.55189">
        <ele>106.36</ele>
        <time>2020-07-15T10:46:05Z</time>
      </trkpt>
      <trkpt lat="44.8428" lon="1.55186">
        <ele>106.84</ele>
        <time>2020-07-15T10:46:16Z</time>
      </trkpt>
      <trkpt lat="44.84263" lon="1.55172">
        <ele>108.29</ele>
        <time>2020-07-15T10:46:32Z</time>
      </trkpt>
      <trkpt lat="44.84254" lon="1.55166">
        <ele>108.29</ele>
        <time>2020-07-15T10:46:41Z</time>
      </trkpt>
      <trkpt lat="44.84252" lon="1.55163">
        <ele>108.29</ele>
        <time>2020-07-15T10:46:43Z</time>
      </trkpt>
      <trkpt lat="44.84248" lon="1.55156">
        <ele>108.29</ele>
        <time>2020-07-15T10:46:53Z</time>
      </trkpt>
      <trkpt lat="44.84232" lon="1.55145">
        <ele>108.29</ele>
        <time>2020-07-15T10:47:04Z</time>
      </trkpt>
      <trkpt lat="44.8423" lon="1.55137">
        <ele>106.84</ele>
        <time>2020-07-15T10:47:13Z</time>
      </trkpt>
      <trkpt lat="44.84234" lon="1.55124">
        <ele>106.36</ele>
        <time>2020-07-15T10:47:23Z</time>
      </trkpt>
      <trkpt lat="44.84237" lon="1.55118">
        <ele>105.4</ele>
        <time>2020-07-15T10:47:36Z</time>
      </trkpt>
      <trkpt lat="44.84239" lon="1.55117">
        <ele>105.4</ele>
        <time>2020-07-15T10:47:37Z</time>
      </trkpt>
      <trkpt lat="44.84241" lon="1.55116">
        <ele>104.92</ele>
        <time>2020-07-15T10:47:38Z</time>
      </trkpt>
      <trkpt lat="44.84244" lon="1.55115">
        <ele>104.92</ele>
        <time>2020-07-15T10:47:39Z</time>
      </trkpt>
      <trkpt lat="44.84246" lon="1.55113">
        <ele>104.92</ele>
        <time>2020-07-15T10:47:40Z</time>
      </trkpt>
      <trkpt lat="44.84249" lon="1.55111">
        <ele>104.92</ele>
        <time>2020-07-15T10:47:41Z</time>
      </trkpt>
      <trkpt lat="44.84256" lon="1.55107">
        <ele>104.92</ele>
        <time>2020-07-15T10:47:53Z</time>
      </trkpt>
      <trkpt lat="44.84257" lon="1.55106">
        <ele>104.92</ele>
        <time>2020-07-15T10:48:00Z</time>
      </trkpt>
      <trkpt lat="44.84258" lon="1.55105">
        <ele>104.92</ele>
        <time>2020-07-15T10:48:01Z</time>
      </trkpt>
      <trkpt lat="44.84258" lon="1.55104">
        <ele>104.92</ele>
        <time>2020-07-15T10:48:02Z</time>
      </trkpt>
      <trkpt lat="44.84273" lon="1.5509">
        <ele>104.92</ele>
        <time>2020-07-15T10:48:18Z</time>
      </trkpt>
      <trkpt lat="44.84275" lon="1.55092">
        <ele>104.92</ele>
        <time>2020-07-15T10:48:39Z</time>
      </trkpt>
      <trkpt lat="44.84285" lon="1.55097">
        <ele>104.44</ele>
        <time>2020-07-15T10:49:08Z</time>
      </trkpt>
      <trkpt lat="44.84297" lon="1.55079">
        <ele>104.44</ele>
        <time>2020-07-15T10:49:27Z</time>
      </trkpt>
      <trkpt lat="44.84306" lon="1.55074">
        <ele>104.44</ele>
        <time>2020-07-15T10:49:57Z</time>
      </trkpt>
      <trkpt lat="44.84326" lon="1.55062">
        <ele>104.44</ele>
        <time>2020-07-15T10:50:15Z</time>
      </trkpt>
      <trkpt lat="44.84334" lon="1.55066">
        <ele>104.44</ele>
        <time>2020-07-15T10:50:31Z</time>
      </trkpt>
      <trkpt lat="44.84343" lon="1.55056">
        <ele>104.44</ele>
        <time>2020-07-15T10:51:01Z</time>
      </trkpt>
      <trkpt lat="44.84349" lon="1.55054">
        <ele>105.88</ele>
        <time>2020-07-15T10:51:07Z</time>
      </trkpt>
      <trkpt lat="44.84358" lon="1.55056">
        <ele>105.88</ele>
        <time>2020-07-15T10:51:27Z</time>
      </trkpt>
      <trkpt lat="44.84352" lon="1.55056">
        <ele>105.88</ele>
        <time>2020-07-15T10:51:49Z</time>
      </trkpt>
      <trkpt lat="44.84367" lon="1.55049">
        <ele>105.88</ele>
        <time>2020-07-15T10:52:07Z</time>
      </trkpt>
      <trkpt lat="44.84389" lon="1.55049">
        <ele>106.36</ele>
        <time>2020-07-15T10:52:26Z</time>
      </trkpt>
      <trkpt lat="44.84395" lon="1.5505">
        <ele>106.36</ele>
        <time>2020-07-15T10:52:30Z</time>
      </trkpt>
      <trkpt lat="44.84396" lon="1.5505">
        <ele>106.36</ele>
        <time>2020-07-15T10:52:31Z</time>
      </trkpt>
      <trkpt lat="44.84417" lon="1.55059">
        <ele>106.84</ele>
        <time>2020-07-15T10:52:48Z</time>
      </trkpt>
      <trkpt lat="44.84435" lon="1.55069">
        <ele>107.32</ele>
        <time>2020-07-15T10:53:04Z</time>
      </trkpt>
      <trkpt lat="44.84439" lon="1.55071">
        <ele>107.32</ele>
        <time>2020-07-15T10:53:08Z</time>
      </trkpt>
      <trkpt lat="44.84447" lon="1.55081">
        <ele>105.88</ele>
        <time>2020-07-15T10:53:18Z</time>
      </trkpt>
      <trkpt lat="44.84447" lon="1.55082">
        <ele>105.88</ele>
        <time>2020-07-15T10:53:19Z</time>
      </trkpt>
      <trkpt lat="44.84451" lon="1.55096">
        <ele>104.92</ele>
        <time>2020-07-15T10:53:34Z</time>
      </trkpt>
      <trkpt lat="44.84449" lon="1.55102">
        <ele>103.96</ele>
        <time>2020-07-15T10:53:49Z</time>
      </trkpt>
      <trkpt lat="44.84452" lon="1.55105">
        <ele>103.96</ele>
        <time>2020-07-15T10:54:07Z</time>
      </trkpt>
      <trkpt lat="44.84454" lon="1.55102">
        <ele>103.48</ele>
        <time>2020-07-15T10:54:33Z</time>
      </trkpt>
      <trkpt lat="44.84463" lon="1.55104">
        <ele>103.48</ele>
        <time>2020-07-15T10:55:00Z</time>
      </trkpt>
      <trkpt lat="44.84459" lon="1.55109">
        <ele>103.48</ele>
        <time>2020-07-15T10:55:21Z</time>
      </trkpt>
      <trkpt lat="44.84455" lon="1.55105">
        <ele>103.48</ele>
        <time>2020-07-15T10:55:41Z</time>
      </trkpt>
      <trkpt lat="44.84456" lon="1.551">
        <ele>103.48</ele>
        <time>2020-07-15T10:56:05Z</time>
      </trkpt>
      <trkpt lat="44.84466" lon="1.55107">
        <ele>103.48</ele>
        <time>2020-07-15T10:56:32Z</time>
      </trkpt>
      <trkpt lat="44.84473" lon="1.55104">
        <ele>103.48</ele>
        <time>2020-07-15T10:56:47Z</time>
      </trkpt>
      <trkpt lat="44.84473" lon="1.55101">
        <ele>103.48</ele>
        <time>2020-07-15T10:57:02Z</time>
      </trkpt>
      <trkpt lat="44.84472" lon="1.55098">
        <ele>103</ele>
        <time>2020-07-15T10:57:36Z</time>
      </trkpt>
      <trkpt lat="44.84477" lon="1.5509">
        <ele>103</ele>
        <time>2020-07-15T10:58:07Z</time>
      </trkpt>
      <trkpt lat="44.84476" lon="1.55094">
        <ele>102.52</ele>
        <time>2020-07-15T10:58:41Z</time>
      </trkpt>
      <trkpt lat="44.84471" lon="1.55097">
        <ele>102.52</ele>
        <time>2020-07-15T10:59:07Z</time>
      </trkpt>
      <trkpt lat="44.84473" lon="1.55091">
        <ele>102.52</ele>
        <time>2020-07-15T10:59:31Z</time>
      </trkpt>
      <trkpt lat="44.84475" lon="1.55093">
        <ele>102.52</ele>
        <time>2020-07-15T10:59:56Z</time>
      </trkpt>
      <trkpt lat="44.84475" lon="1.55099">
        <ele>102.52</ele>
        <time>2020-07-15T11:00:23Z</time>
      </trkpt>
      <trkpt lat="44.84474" lon="1.55101">
        <ele>103.48</ele>
        <time>2020-07-15T11:00:27Z</time>
      </trkpt>
      <trkpt lat="44.84474" lon="1.55098">
        <ele>103.48</ele>
        <time>2020-07-15T11:00:52Z</time>
      </trkpt>
      <trkpt lat="44.84473" lon="1.55099">
        <ele>102.52</ele>
        <time>2020-07-15T11:01:18Z</time>
      </trkpt>
      <trkpt lat="44.8447" lon="1.55094">
        <ele>102.04</ele>
        <time>2020-07-15T11:01:47Z</time>
      </trkpt>
      <trkpt lat="44.84471" lon="1.5509">
        <ele>102.04</ele>
        <time>2020-07-15T11:02:11Z</time>
      </trkpt>
      <trkpt lat="44.84469" lon="1.55096">
        <ele>102.04</ele>
        <time>2020-07-15T11:02:35Z</time>
      </trkpt>
      <trkpt lat="44.84476" lon="1.5509">
        <ele>102.04</ele>
        <time>2020-07-15T11:02:59Z</time>
      </trkpt>
      <trkpt lat="44.8447" lon="1.55092">
        <ele>102.04</ele>
        <time>2020-07-15T11:03:19Z</time>
      </trkpt>
      <trkpt lat="44.84472" lon="1.55105">
        <ele>101.56</ele>
        <time>2020-07-15T11:03:44Z</time>
      </trkpt>
      <trkpt lat="44.84478" lon="1.55115">
        <ele>101.56</ele>
        <time>2020-07-15T11:04:06Z</time>
      </trkpt>
      <trkpt lat="44.8446" lon="1.55115">
        <ele>101.56</ele>
        <time>2020-07-15T11:04:36Z</time>
      </trkpt>
      <trkpt lat="44.84462" lon="1.55114">
        <ele>101.56</ele>
        <time>2020-07-15T11:04:57Z</time>
      </trkpt>
      <trkpt lat="44.84472" lon="1.55102">
        <ele>101.56</ele>
        <time>2020-07-15T11:05:17Z</time>
      </trkpt>
      <trkpt lat="44.84473" lon="1.55098">
        <ele>101.56</ele>
        <time>2020-07-15T11:05:39Z</time>
      </trkpt>
      <trkpt lat="44.8447" lon="1.55101">
        <ele>101.56</ele>
        <time>2020-07-15T11:06:13Z</time>
      </trkpt>
      <trkpt lat="44.84471" lon="1.55095">
        <ele>102.04</ele>
        <time>2020-07-15T11:06:33Z</time>
      </trkpt>
      <trkpt lat="44.84472" lon="1.55101">
        <ele>102.04</ele>
        <time>2020-07-15T11:06:59Z</time>
      </trkpt>
      <trkpt lat="44.84472" lon="1.55102">
        <ele>102.04</ele>
        <time>2020-07-15T11:07:25Z</time>
      </trkpt>
      <trkpt lat="44.84472" lon="1.55098">
        <ele>102.04</ele>
        <time>2020-07-15T11:07:49Z</time>
      </trkpt>
      <trkpt lat="44.84471" lon="1.551">
        <ele>102.04</ele>
        <time>2020-07-15T11:08:17Z</time>
      </trkpt>
      <trkpt lat="44.84471" lon="1.551">
        <ele>102.04</ele>
        <time>2020-07-15T11:08:40Z</time>
      </trkpt>
      <trkpt lat="44.84472" lon="1.55103">
        <ele>102.04</ele>
        <time>2020-07-15T11:09:07Z</time>
      </trkpt>
      <trkpt lat="44.84472" lon="1.55096">
        <ele>102.04</ele>
        <time>2020-07-15T11:09:37Z</time>
      </trkpt>
      <trkpt lat="44.84474" lon="1.55097">
        <ele>102.04</ele>
        <time>2020-07-15T11:10:03Z</time>
      </trkpt>
      <trkpt lat="44.84471" lon="1.55094">
        <ele>102.04</ele>
        <time>2020-07-15T11:10:29Z</time>
      </trkpt>
      <trkpt lat="44.84472" lon="1.55101">
        <ele>102.04</ele>
        <time>2020-07-15T11:10:55Z</time>
      </trkpt>
      <trkpt lat="44.84474" lon="1.55103">
        <ele>102.04</ele>
        <time>2020-07-15T11:11:23Z</time>
      </trkpt>
      <trkpt lat="44.84473" lon="1.55101">
        <ele>102.04</ele>
        <time>2020-07-15T11:11:49Z</time>
      </trkpt>
      <trkpt lat="44.84475" lon="1.55099">
        <ele>102.04</ele>
        <time>2020-07-15T11:12:10Z</time>
      </trkpt>
      <trkpt lat="44.84471" lon="1.55097">
        <ele>102.04</ele>
        <time>2020-07-15T11:12:36Z</time>
      </trkpt>
      <trkpt lat="44.84471" lon="1.55098">
        <ele>102.04</ele>
        <time>2020-07-15T11:12:58Z</time>
      </trkpt>
      <trkpt lat="44.84473" lon="1.55102">
        <ele>101.56</ele>
        <time>2020-07-15T11:13:26Z</time>
      </trkpt>
      <trkpt lat="44.84472" lon="1.55102">
        <ele>101.08</ele>
        <time>2020-07-15T11:13:52Z</time>
      </trkpt>
      <trkpt lat="44.84472" lon="1.55101">
        <ele>100.6</ele>
        <time>2020-07-15T11:14:23Z</time>
      </trkpt>
      <trkpt lat="44.84472" lon="1.55103">
        <ele>100.11</ele>
        <time>2020-07-15T11:14:55Z</time>
      </trkpt>
      <trkpt lat="44.84473" lon="1.55102">
        <ele>99.63</ele>
        <time>2020-07-15T11:15:23Z</time>
      </trkpt>
      <trkpt lat="44.84475" lon="1.55104">
        <ele>101.08</ele>
        <time>2020-07-15T11:15:28Z</time>
      </trkpt>
      <trkpt lat="44.84475" lon="1.55105">
        <ele>101.08</ele>
        <time>2020-07-15T11:15:29Z</time>
      </trkpt>
      <trkpt lat="44.84482" lon="1.55113">
        <ele>101.56</ele>
        <time>2020-07-15T11:15:44Z</time>
      </trkpt>
      <trkpt lat="44.84493" lon="1.55118">
        <ele>101.56</ele>
        <time>2020-07-15T11:16:00Z</time>
      </trkpt>
      <trkpt lat="44.84488" lon="1.55118">
        <ele>100.11</ele>
        <time>2020-07-15T11:16:24Z</time>
      </trkpt>
      <trkpt lat="44.84491" lon="1.55119">
        <ele>100.11</ele>
        <time>2020-07-15T11:16:51Z</time>
      </trkpt>
      <trkpt lat="44.84485" lon="1.55118">
        <ele>99.63</ele>
        <time>2020-07-15T11:17:18Z</time>
      </trkpt>
      <trkpt lat="44.84486" lon="1.55115">
        <ele>99.15</ele>
        <time>2020-07-15T11:17:41Z</time>
      </trkpt>
      <trkpt lat="44.84492" lon="1.55119">
        <ele>98.67</ele>
        <time>2020-07-15T11:18:00Z</time>
      </trkpt>
      <trkpt lat="44.84496" lon="1.55121">
        <ele>98.67</ele>
        <time>2020-07-15T11:18:26Z</time>
      </trkpt>
      <trkpt lat="44.84495" lon="1.55128">
        <ele>98.67</ele>
        <time>2020-07-15T11:18:51Z</time>
      </trkpt>
      <trkpt lat="44.84486" lon="1.55125">
        <ele>98.67</ele>
        <time>2020-07-15T11:19:11Z</time>
      </trkpt>
      <trkpt lat="44.84481" lon="1.55113">
        <ele>98.67</ele>
        <time>2020-07-15T11:19:38Z</time>
      </trkpt>
      <trkpt lat="44.84479" lon="1.55107">
        <ele>98.67</ele>
        <time>2020-07-15T11:20:02Z</time>
      </trkpt>
      <trkpt lat="44.84483" lon="1.55098">
        <ele>98.67</ele>
        <time>2020-07-15T11:20:28Z</time>
      </trkpt>
      <trkpt lat="44.84495" lon="1.55114">
        <ele>98.67</ele>
        <time>2020-07-15T11:20:51Z</time>
      </trkpt>
      <trkpt lat="44.84487" lon="1.55114">
        <ele>98.67</ele>
        <time>2020-07-15T11:21:14Z</time>
      </trkpt>
      <trkpt lat="44.8449" lon="1.55121">
        <ele>98.67</ele>
        <time>2020-07-15T11:21:33Z</time>
      </trkpt>
      <trkpt lat="44.84493" lon="1.55122">
        <ele>99.15</ele>
        <time>2020-07-15T11:22:07Z</time>
      </trkpt>
      <trkpt lat="44.84497" lon="1.55125">
        <ele>99.15</ele>
        <time>2020-07-15T11:22:32Z</time>
      </trkpt>
      <trkpt lat="44.84493" lon="1.55121">
        <ele>99.63</ele>
        <time>2020-07-15T11:23:04Z</time>
      </trkpt>
      <trkpt lat="44.8449" lon="1.55121">
        <ele>99.63</ele>
        <time>2020-07-15T11:23:30Z</time>
      </trkpt>
      <trkpt lat="44.84493" lon="1.55114">
        <ele>99.63</ele>
        <time>2020-07-15T11:23:58Z</time>
      </trkpt>
      <trkpt lat="44.84495" lon="1.55127">
        <ele>99.63</ele>
        <time>2020-07-15T11:24:21Z</time>
      </trkpt>
      <trkpt lat="44.84502" lon="1.55134">
        <ele>99.63</ele>
        <time>2020-07-15T11:24:41Z</time>
      </trkpt>
      <trkpt lat="44.845" lon="1.55137">
        <ele>99.63</ele>
        <time>2020-07-15T11:25:13Z</time>
      </trkpt>
      <trkpt lat="44.84496" lon="1.55135">
        <ele>99.63</ele>
        <time>2020-07-15T11:25:34Z</time>
      </trkpt>
      <trkpt lat="44.84494" lon="1.55124">
        <ele>99.63</ele>
        <time>2020-07-15T11:25:58Z</time>
      </trkpt>
      <trkpt lat="44.84492" lon="1.55127">
        <ele>99.63</ele>
        <time>2020-07-15T11:26:24Z</time>
      </trkpt>
      <trkpt lat="44.84495" lon="1.55125">
        <ele>99.63</ele>
        <time>2020-07-15T11:26:50Z</time>
      </trkpt>
      <trkpt lat="44.84493" lon="1.55106">
        <ele>99.15</ele>
        <time>2020-07-15T11:27:21Z</time>
      </trkpt>
      <trkpt lat="44.84496" lon="1.55117">
        <ele>99.15</ele>
        <time>2020-07-15T11:27:37Z</time>
      </trkpt>
      <trkpt lat="44.84498" lon="1.55144">
        <ele>99.15</ele>
        <time>2020-07-15T11:27:57Z</time>
      </trkpt>
      <trkpt lat="44.84501" lon="1.55169">
        <ele>97.23</ele>
        <time>2020-07-15T11:28:21Z</time>
      </trkpt>
      <trkpt lat="44.84506" lon="1.55163">
        <ele>97.23</ele>
        <time>2020-07-15T11:28:43Z</time>
      </trkpt>
      <trkpt lat="44.84493" lon="1.5515">
        <ele>98.67</ele>
        <time>2020-07-15T11:29:08Z</time>
      </trkpt>
      <trkpt lat="44.84491" lon="1.55129">
        <ele>99.63</ele>
        <time>2020-07-15T11:29:30Z</time>
      </trkpt>
      <trkpt lat="44.84492" lon="1.55114">
        <ele>99.63</ele>
        <time>2020-07-15T11:29:50Z</time>
      </trkpt>
      <trkpt lat="44.8449" lon="1.55116">
        <ele>99.63</ele>
        <time>2020-07-15T11:30:11Z</time>
      </trkpt>
      <trkpt lat="44.84494" lon="1.55113">
        <ele>99.63</ele>
        <time>2020-07-15T11:30:34Z</time>
      </trkpt>
      <trkpt lat="44.84496" lon="1.55113">
        <ele>99.63</ele>
        <time>2020-07-15T11:30:58Z</time>
      </trkpt>
      <trkpt lat="44.84491" lon="1.55125">
        <ele>99.63</ele>
        <time>2020-07-15T11:31:22Z</time>
      </trkpt>
      <trkpt lat="44.84492" lon="1.55125">
        <ele>99.63</ele>
        <time>2020-07-15T11:31:49Z</time>
      </trkpt>
      <trkpt lat="44.8449" lon="1.55128">
        <ele>99.63</ele>
        <time>2020-07-15T11:32:14Z</time>
      </trkpt>
      <trkpt lat="44.84491" lon="1.55124">
        <ele>100.11</ele>
        <time>2020-07-15T11:32:37Z</time>
      </trkpt>
      <trkpt lat="44.84493" lon="1.55123">
        <ele>100.11</ele>
        <time>2020-07-15T11:32:57Z</time>
      </trkpt>
      <trkpt lat="44.84491" lon="1.55125">
        <ele>100.11</ele>
        <time>2020-07-15T11:33:21Z</time>
      </trkpt>
      <trkpt lat="44.84506" lon="1.55117">
        <ele>100.11</ele>
        <time>2020-07-15T11:33:42Z</time>
      </trkpt>
      <trkpt lat="44.84489" lon="1.5511">
        <ele>100.11</ele>
        <time>2020-07-15T11:34:13Z</time>
      </trkpt>
      <trkpt lat="44.84492" lon="1.55108">
        <ele>100.11</ele>
        <time>2020-07-15T11:34:38Z</time>
      </trkpt>
      <trkpt lat="44.84494" lon="1.55114">
        <ele>100.11</ele>
        <time>2020-07-15T11:35:07Z</time>
      </trkpt>
      <trkpt lat="44.84497" lon="1.55109">
        <ele>100.11</ele>
        <time>2020-07-15T11:35:28Z</time>
      </trkpt>
      <trkpt lat="44.84491" lon="1.55125">
        <ele>100.11</ele>
        <time>2020-07-15T11:35:53Z</time>
      </trkpt>
      <trkpt lat="44.84493" lon="1.55127">
        <ele>100.11</ele>
        <time>2020-07-15T11:36:18Z</time>
      </trkpt>
      <trkpt lat="44.84494" lon="1.55128">
        <ele>100.11</ele>
        <time>2020-07-15T11:36:44Z</time>
      </trkpt>
      <trkpt lat="44.8449" lon="1.55119">
        <ele>100.6</ele>
        <time>2020-07-15T11:37:09Z</time>
      </trkpt>
      <trkpt lat="44.8449" lon="1.55119">
        <ele>99.15</ele>
        <time>2020-07-15T11:37:22Z</time>
      </trkpt>
      <trkpt lat="44.84488" lon="1.55113">
        <ele>100.6</ele>
        <time>2020-07-15T11:37:42Z</time>
      </trkpt>
      <trkpt lat="44.84474" lon="1.55102">
        <ele>99.15</ele>
        <time>2020-07-15T11:38:02Z</time>
      </trkpt>
      <trkpt lat="44.84474" lon="1.55101">
        <ele>99.15</ele>
        <time>2020-07-15T11:38:03Z</time>
      </trkpt>
      <trkpt lat="44.84461" lon="1.55089">
        <ele>98.67</ele>
        <time>2020-07-15T11:38:24Z</time>
      </trkpt>
      <trkpt lat="44.8445" lon="1.55096">
        <ele>98.67</ele>
        <time>2020-07-15T11:38:46Z</time>
      </trkpt>
      <trkpt lat="44.84448" lon="1.55083">
        <ele>98.19</ele>
        <time>2020-07-15T11:39:16Z</time>
      </trkpt>
      <trkpt lat="44.84439" lon="1.55071">
        <ele>101.56</ele>
        <time>2020-07-15T11:39:29Z</time>
      </trkpt>
      <trkpt lat="44.8444" lon="1.5506">
        <ele>102.52</ele>
        <time>2020-07-15T11:39:48Z</time>
      </trkpt>
      <trkpt lat="44.84441" lon="1.5505">
        <ele>103.48</ele>
        <time>2020-07-15T11:40:08Z</time>
      </trkpt>
      <trkpt lat="44.84435" lon="1.55033">
        <ele>105.4</ele>
        <time>2020-07-15T11:40:25Z</time>
      </trkpt>
      <trkpt lat="44.84427" lon="1.5502">
        <ele>106.84</ele>
        <time>2020-07-15T11:40:40Z</time>
      </trkpt>
      <trkpt lat="44.84422" lon="1.55006">
        <ele>108.29</ele>
        <time>2020-07-15T11:40:54Z</time>
      </trkpt>
      <trkpt lat="44.84416" lon="1.54992">
        <ele>109.73</ele>
        <time>2020-07-15T11:41:07Z</time>
      </trkpt>
      <trkpt lat="44.84417" lon="1.54991">
        <ele>110.69</ele>
        <time>2020-07-15T11:41:23Z</time>
      </trkpt>
      <trkpt lat="44.84401" lon="1.54986">
        <ele>112.61</ele>
        <time>2020-07-15T11:41:43Z</time>
      </trkpt>
      <trkpt lat="44.84393" lon="1.55004">
        <ele>115.5</ele>
        <time>2020-07-15T11:42:03Z</time>
      </trkpt>
      <trkpt lat="44.84391" lon="1.5501">
        <ele>115.5</ele>
        <time>2020-07-15T11:42:09Z</time>
      </trkpt>
      <trkpt lat="44.8438" lon="1.55017">
        <ele>116.94</ele>
        <time>2020-07-15T11:42:21Z</time>
      </trkpt>
      <trkpt lat="44.8436" lon="1.55008">
        <ele>120.3</ele>
        <time>2020-07-15T11:42:44Z</time>
      </trkpt>
      <trkpt lat="44.84341" lon="1.55004">
        <ele>122.22</ele>
        <time>2020-07-15T11:43:06Z</time>
      </trkpt>
      <trkpt lat="44.8433" lon="1.55006">
        <ele>125.11</ele>
        <time>2020-07-15T11:43:22Z</time>
      </trkpt>
      <trkpt lat="44.84315" lon="1.55008">
        <ele>127.51</ele>
        <time>2020-07-15T11:43:42Z</time>
      </trkpt>
      <trkpt lat="44.84304" lon="1.55006">
        <ele>129.43</ele>
        <time>2020-07-15T11:43:58Z</time>
      </trkpt>
      <trkpt lat="44.84293" lon="1.55002">
        <ele>131.36</ele>
        <time>2020-07-15T11:44:12Z</time>
      </trkpt>
      <trkpt lat="44.84285" lon="1.54991">
        <ele>133.28</ele>
        <time>2020-07-15T11:44:29Z</time>
      </trkpt>
      <trkpt lat="44.84277" lon="1.54987">
        <ele>133.76</ele>
        <time>2020-07-15T11:44:55Z</time>
      </trkpt>
      <trkpt lat="44.84267" lon="1.54977">
        <ele>136.16</ele>
        <time>2020-07-15T11:45:14Z</time>
      </trkpt>
      <trkpt lat="44.84266" lon="1.54966">
        <ele>137.61</ele>
        <time>2020-07-15T11:45:31Z</time>
      </trkpt>
      <trkpt lat="44.84276" lon="1.54952">
        <ele>140.49</ele>
        <time>2020-07-15T11:45:50Z</time>
      </trkpt>
      <trkpt lat="44.84291" lon="1.54946">
        <ele>141.45</ele>
        <time>2020-07-15T11:46:09Z</time>
      </trkpt>
      <trkpt lat="44.84297" lon="1.54943">
        <ele>141.45</ele>
        <time>2020-07-15T11:46:31Z</time>
      </trkpt>
      <trkpt lat="44.84298" lon="1.54938">
        <ele>143.37</ele>
        <time>2020-07-15T11:46:49Z</time>
      </trkpt>
      <trkpt lat="44.84298" lon="1.54939">
        <ele>143.37</ele>
        <time>2020-07-15T11:47:11Z</time>
      </trkpt>
      <trkpt lat="44.84311" lon="1.54927">
        <ele>143.37</ele>
        <time>2020-07-15T11:47:29Z</time>
      </trkpt>
      <trkpt lat="44.84325" lon="1.54919">
        <ele>143.37</ele>
        <time>2020-07-15T11:47:43Z</time>
      </trkpt>
      <trkpt lat="44.84334" lon="1.54916">
        <ele>141.45</ele>
        <time>2020-07-15T11:47:51Z</time>
      </trkpt>
      <trkpt lat="44.84337" lon="1.54924">
        <ele>139.53</ele>
        <time>2020-07-15T11:48:02Z</time>
      </trkpt>
      <trkpt lat="44.84338" lon="1.54921">
        <ele>139.53</ele>
        <time>2020-07-15T11:48:32Z</time>
      </trkpt>
      <trkpt lat="44.84338" lon="1.54926">
        <ele>139.05</ele>
        <time>2020-07-15T11:49:02Z</time>
      </trkpt>
      <trkpt lat="44.84335" lon="1.54922">
        <ele>140.49</ele>
        <time>2020-07-15T11:49:31Z</time>
      </trkpt>
      <trkpt lat="44.84346" lon="1.54909">
        <ele>140.49</ele>
        <time>2020-07-15T11:49:46Z</time>
      </trkpt>
      <trkpt lat="44.84372" lon="1.54893">
        <ele>140.01</ele>
        <time>2020-07-15T11:50:06Z</time>
      </trkpt>
      <trkpt lat="44.84392" lon="1.54883">
        <ele>138.57</ele>
        <time>2020-07-15T11:50:22Z</time>
      </trkpt>
      <trkpt lat="44.84401" lon="1.5488">
        <ele>140.01</ele>
        <time>2020-07-15T11:50:29Z</time>
      </trkpt>
      <trkpt lat="44.8442" lon="1.54871">
        <ele>141.93</ele>
        <time>2020-07-15T11:50:47Z</time>
      </trkpt>
      <trkpt lat="44.84431" lon="1.54871">
        <ele>143.85</ele>
        <time>2020-07-15T11:51:00Z</time>
      </trkpt>
      <trkpt lat="44.84443" lon="1.54883">
        <ele>146.26</ele>
        <time>2020-07-15T11:51:17Z</time>
      </trkpt>
      <trkpt lat="44.8445" lon="1.54891">
        <ele>147.7</ele>
        <time>2020-07-15T11:51:28Z</time>
      </trkpt>
      <trkpt lat="44.84452" lon="1.54887">
        <ele>148.18</ele>
        <time>2020-07-15T11:51:32Z</time>
      </trkpt>
      <trkpt lat="44.84453" lon="1.54873">
        <ele>148.66</ele>
        <time>2020-07-15T11:51:43Z</time>
      </trkpt>
      <trkpt lat="44.84452" lon="1.54848">
        <ele>150.58</ele>
        <time>2020-07-15T11:52:03Z</time>
      </trkpt>
      <trkpt lat="44.84452" lon="1.54824">
        <ele>152.51</ele>
        <time>2020-07-15T11:52:20Z</time>
      </trkpt>
      <trkpt lat="44.84447" lon="1.548">
        <ele>154.43</ele>
        <time>2020-07-15T11:52:36Z</time>
      </trkpt>
      <trkpt lat="44.84443" lon="1.54775">
        <ele>155.87</ele>
        <time>2020-07-15T11:52:53Z</time>
      </trkpt>
      <trkpt lat="44.84443" lon="1.54773">
        <ele>155.87</ele>
        <time>2020-07-15T11:52:55Z</time>
      </trkpt>
      <trkpt lat="44.84449" lon="1.54749">
        <ele>156.35</ele>
        <time>2020-07-15T11:53:10Z</time>
      </trkpt>
      <trkpt lat="44.84457" lon="1.54727">
        <ele>156.35</ele>
        <time>2020-07-15T11:53:26Z</time>
      </trkpt>
      <trkpt lat="44.84463" lon="1.54702">
        <ele>156.35</ele>
        <time>2020-07-15T11:53:43Z</time>
      </trkpt>
      <trkpt lat="44.84475" lon="1.54671">
        <ele>156.35</ele>
        <time>2020-07-15T11:54:01Z</time>
      </trkpt>
      <trkpt lat="44.84484" lon="1.54642">
        <ele>156.83</ele>
        <time>2020-07-15T11:54:19Z</time>
      </trkpt>
      <trkpt lat="44.84496" lon="1.54613">
        <ele>156.83</ele>
        <time>2020-07-15T11:54:37Z</time>
      </trkpt>
      <trkpt lat="44.84499" lon="1.5461">
        <ele>156.83</ele>
        <time>2020-07-15T11:54:40Z</time>
      </trkpt>
      <trkpt lat="44.84512" lon="1.54582">
        <ele>157.79</ele>
        <time>2020-07-15T11:54:58Z</time>
      </trkpt>
      <trkpt lat="44.84522" lon="1.54562">
        <ele>157.79</ele>
        <time>2020-07-15T11:55:14Z</time>
      </trkpt>
      <trkpt lat="44.84533" lon="1.54542">
        <ele>158.75</ele>
        <time>2020-07-15T11:55:30Z</time>
      </trkpt>
      <trkpt lat="44.84543" lon="1.54522">
        <ele>159.24</ele>
        <time>2020-07-15T11:55:45Z</time>
      </trkpt>
      <trkpt lat="44.84555" lon="1.54494">
        <ele>160.2</ele>
        <time>2020-07-15T11:56:03Z</time>
      </trkpt>
      <trkpt lat="44.84559" lon="1.54487">
        <ele>160.2</ele>
        <time>2020-07-15T11:56:16Z</time>
      </trkpt>
      <trkpt lat="44.84573" lon="1.5446">
        <ele>160.68</ele>
        <time>2020-07-15T11:56:35Z</time>
      </trkpt>
      <trkpt lat="44.84585" lon="1.54434">
        <ele>160.68</ele>
        <time>2020-07-15T11:56:54Z</time>
      </trkpt>
      <trkpt lat="44.84592" lon="1.54427">
        <ele>160.68</ele>
        <time>2020-07-15T11:57:01Z</time>
      </trkpt>
      <trkpt lat="44.84595" lon="1.54425">
        <ele>158.27</ele>
        <time>2020-07-15T11:57:04Z</time>
      </trkpt>
      <trkpt lat="44.84597" lon="1.54426">
        <ele>160.2</ele>
        <time>2020-07-15T11:57:06Z</time>
      </trkpt>
      <trkpt lat="44.84614" lon="1.54442">
        <ele>160.68</ele>
        <time>2020-07-15T11:57:26Z</time>
      </trkpt>
      <trkpt lat="44.84623" lon="1.54446">
        <ele>161.16</ele>
        <time>2020-07-15T11:57:43Z</time>
      </trkpt>
      <trkpt lat="44.8462" lon="1.54441">
        <ele>161.16</ele>
        <time>2020-07-15T11:58:07Z</time>
      </trkpt>
      <trkpt lat="44.84621" lon="1.54442">
        <ele>161.16</ele>
        <time>2020-07-15T11:58:41Z</time>
      </trkpt>
      <trkpt lat="44.84622" lon="1.54446">
        <ele>161.64</ele>
        <time>2020-07-15T11:59:09Z</time>
      </trkpt>
      <trkpt lat="44.84622" lon="1.54447">
        <ele>161.64</ele>
        <time>2020-07-15T11:59:32Z</time>
      </trkpt>
      <trkpt lat="44.8462" lon="1.54443">
        <ele>161.64</ele>
        <time>2020-07-15T11:59:57Z</time>
      </trkpt>
      <trkpt lat="44.84619" lon="1.54441">
        <ele>161.64</ele>
        <time>2020-07-15T12:00:20Z</time>
      </trkpt>
      <trkpt lat="44.84621" lon="1.54443">
        <ele>161.64</ele>
        <time>2020-07-15T12:00:38Z</time>
      </trkpt>
      <trkpt lat="44.84632" lon="1.54448">
        <ele>161.64</ele>
        <time>2020-07-15T12:00:56Z</time>
      </trkpt>
      <trkpt lat="44.84654" lon="1.54447">
        <ele>162.12</ele>
        <time>2020-07-15T12:01:16Z</time>
      </trkpt>
      <trkpt lat="44.84678" lon="1.54445">
        <ele>162.12</ele>
        <time>2020-07-15T12:01:37Z</time>
      </trkpt>
      <trkpt lat="44.84699" lon="1.54441">
        <ele>162.12</ele>
        <time>2020-07-15T12:01:57Z</time>
      </trkpt>
      <trkpt lat="44.84721" lon="1.54432">
        <ele>162.12</ele>
        <time>2020-07-15T12:02:16Z</time>
      </trkpt>
      <trkpt lat="44.84736" lon="1.54426">
        <ele>162.6</ele>
        <time>2020-07-15T12:02:33Z</time>
      </trkpt>
      <trkpt lat="44.84756" lon="1.54419">
        <ele>163.08</ele>
        <time>2020-07-15T12:02:53Z</time>
      </trkpt>
      <trkpt lat="44.84776" lon="1.54413">
        <ele>163.56</ele>
        <time>2020-07-15T12:03:11Z</time>
      </trkpt>
      <trkpt lat="44.84796" lon="1.54401">
        <ele>164.52</ele>
        <time>2020-07-15T12:03:30Z</time>
      </trkpt>
      <trkpt lat="44.84815" lon="1.5439">
        <ele>165.96</ele>
        <time>2020-07-15T12:03:49Z</time>
      </trkpt>
      <trkpt lat="44.84836" lon="1.54385">
        <ele>166.93</ele>
        <time>2020-07-15T12:04:07Z</time>
      </trkpt>
      <trkpt lat="44.84857" lon="1.54384">
        <ele>167.41</ele>
        <time>2020-07-15T12:04:27Z</time>
      </trkpt>
      <trkpt lat="44.84882" lon="1.54378">
        <ele>168.37</ele>
        <time>2020-07-15T12:04:49Z</time>
      </trkpt>
      <trkpt lat="44.84899" lon="1.54366">
        <ele>167.41</ele>
        <time>2020-07-15T12:05:05Z</time>
      </trkpt>
      <trkpt lat="44.84913" lon="1.54351">
        <ele>166.45</ele>
        <time>2020-07-15T12:05:23Z</time>
      </trkpt>
      <trkpt lat="44.84927" lon="1.54328">
        <ele>164.52</ele>
        <time>2020-07-15T12:05:43Z</time>
      </trkpt>
      <trkpt lat="44.84933" lon="1.54315">
        <ele>163.56</ele>
        <time>2020-07-15T12:06:01Z</time>
      </trkpt>
      <trkpt lat="44.84941" lon="1.54316">
        <ele>163.56</ele>
        <time>2020-07-15T12:06:28Z</time>
      </trkpt>
      <trkpt lat="44.84954" lon="1.54308">
        <ele>162.6</ele>
        <time>2020-07-15T12:06:47Z</time>
      </trkpt>
      <trkpt lat="44.84967" lon="1.54289">
        <ele>160.68</ele>
        <time>2020-07-15T12:07:06Z</time>
      </trkpt>
      <trkpt lat="44.84977" lon="1.54259">
        <ele>158.75</ele>
        <time>2020-07-15T12:07:26Z</time>
      </trkpt>
      <trkpt lat="44.84983" lon="1.54231">
        <ele>156.83</ele>
        <time>2020-07-15T12:07:46Z</time>
      </trkpt>
      <trkpt lat="44.84997" lon="1.54199">
        <ele>154.91</ele>
        <time>2020-07-15T12:08:09Z</time>
      </trkpt>
      <trkpt lat="44.85002" lon="1.54167">
        <ele>152.03</ele>
        <time>2020-07-15T12:08:29Z</time>
      </trkpt>
      <trkpt lat="44.85011" lon="1.54132">
        <ele>150.1</ele>
        <time>2020-07-15T12:08:49Z</time>
      </trkpt>
      <trkpt lat="44.85018" lon="1.5412">
        <ele>148.18</ele>
        <time>2020-07-15T12:08:59Z</time>
      </trkpt>
      <trkpt lat="44.8503" lon="1.54096">
        <ele>146.26</ele>
        <time>2020-07-15T12:09:20Z</time>
      </trkpt>
      <trkpt lat="44.85032" lon="1.54083">
        <ele>145.3</ele>
        <time>2020-07-15T12:09:25Z</time>
      </trkpt>
      <trkpt lat="44.85044" lon="1.54063">
        <ele>143.37</ele>
        <time>2020-07-15T12:09:41Z</time>
      </trkpt>
      <trkpt lat="44.85055" lon="1.54041">
        <ele>140.01</ele>
        <time>2020-07-15T12:09:59Z</time>
      </trkpt>
      <trkpt lat="44.85059" lon="1.54035">
        <ele>140.01</ele>
        <time>2020-07-15T12:10:15Z</time>
      </trkpt>
      <trkpt lat="44.8506" lon="1.54035">
        <ele>139.53</ele>
        <time>2020-07-15T12:10:31Z</time>
      </trkpt>
      <trkpt lat="44.85062" lon="1.54029">
        <ele>138.57</ele>
        <time>2020-07-15T12:10:46Z</time>
      </trkpt>
      <trkpt lat="44.85063" lon="1.5403">
        <ele>138.57</ele>
        <time>2020-07-15T12:10:52Z</time>
      </trkpt>
      <trkpt lat="44.85065" lon="1.54025">
        <ele>137.61</ele>
        <time>2020-07-15T12:10:56Z</time>
      </trkpt>
      <trkpt lat="44.85073" lon="1.5401">
        <ele>134.24</ele>
        <time>2020-07-15T12:11:09Z</time>
      </trkpt>
      <trkpt lat="44.85087" lon="1.53989">
        <ele>130.88</ele>
        <time>2020-07-15T12:11:30Z</time>
      </trkpt>
      <trkpt lat="44.85093" lon="1.53992">
        <ele>130.88</ele>
        <time>2020-07-15T12:11:52Z</time>
      </trkpt>
      <trkpt lat="44.85109" lon="1.54">
        <ele>128.95</ele>
        <time>2020-07-15T12:12:14Z</time>
      </trkpt>
      <trkpt lat="44.85123" lon="1.5401">
        <ele>127.03</ele>
        <time>2020-07-15T12:12:32Z</time>
      </trkpt>
      <trkpt lat="44.85145" lon="1.54021">
        <ele>124.63</ele>
        <time>2020-07-15T12:12:50Z</time>
      </trkpt>
      <trkpt lat="44.85152" lon="1.54022">
        <ele>124.63</ele>
        <time>2020-07-15T12:12:55Z</time>
      </trkpt>
      <trkpt lat="44.85178" lon="1.54031">
        <ele>123.19</ele>
        <time>2020-07-15T12:13:14Z</time>
      </trkpt>
      <trkpt lat="44.85179" lon="1.54031">
        <ele>123.19</ele>
        <time>2020-07-15T12:13:15Z</time>
      </trkpt>
      <trkpt lat="44.85201" lon="1.5404">
        <ele>121.74</ele>
        <time>2020-07-15T12:13:32Z</time>
      </trkpt>
      <trkpt lat="44.85224" lon="1.54043">
        <ele>120.78</ele>
        <time>2020-07-15T12:13:52Z</time>
      </trkpt>
      <trkpt lat="44.8523" lon="1.54046">
        <ele>119.82</ele>
        <time>2020-07-15T12:14:07Z</time>
      </trkpt>
      <trkpt lat="44.85239" lon="1.54039">
        <ele>121.26</ele>
        <time>2020-07-15T12:14:23Z</time>
      </trkpt>
      <trkpt lat="44.85248" lon="1.54032">
        <ele>119.82</ele>
        <time>2020-07-15T12:14:31Z</time>
      </trkpt>
      <trkpt lat="44.85265" lon="1.5401">
        <ele>119.34</ele>
        <time>2020-07-15T12:14:51Z</time>
      </trkpt>
      <trkpt lat="44.85282" lon="1.53989">
        <ele>118.38</ele>
        <time>2020-07-15T12:15:10Z</time>
      </trkpt>
      <trkpt lat="44.85286" lon="1.53983">
        <ele>118.38</ele>
        <time>2020-07-15T12:15:15Z</time>
      </trkpt>
      <trkpt lat="44.85294" lon="1.53971">
        <ele>118.86</ele>
        <time>2020-07-15T12:15:24Z</time>
      </trkpt>
      <trkpt lat="44.853" lon="1.5396">
        <ele>117.9</ele>
        <time>2020-07-15T12:15:32Z</time>
      </trkpt>
      <trkpt lat="44.85305" lon="1.5394">
        <ele>116.94</ele>
        <time>2020-07-15T12:15:50Z</time>
      </trkpt>
      <trkpt lat="44.85302" lon="1.53936">
        <ele>116.94</ele>
        <time>2020-07-15T12:15:54Z</time>
      </trkpt>
      <trkpt lat="44.85286" lon="1.53914">
        <ele>115.98</ele>
        <time>2020-07-15T12:16:14Z</time>
      </trkpt>
      <trkpt lat="44.85284" lon="1.5391">
        <ele>115.98</ele>
        <time>2020-07-15T12:16:17Z</time>
      </trkpt>
      <trkpt lat="44.85282" lon="1.53902">
        <ele>115.5</ele>
        <time>2020-07-15T12:16:21Z</time>
      </trkpt>
      <trkpt lat="44.85273" lon="1.53888">
        <ele>115.98</ele>
        <time>2020-07-15T12:16:33Z</time>
      </trkpt>
      <trkpt lat="44.8526" lon="1.53864">
        <ele>115.98</ele>
        <time>2020-07-15T12:16:49Z</time>
      </trkpt>
      <trkpt lat="44.85254" lon="1.5385">
        <ele>115.98</ele>
        <time>2020-07-15T12:17:04Z</time>
      </trkpt>
      <trkpt lat="44.85242" lon="1.53822">
        <ele>115.98</ele>
        <time>2020-07-15T12:17:25Z</time>
      </trkpt>
      <trkpt lat="44.85236" lon="1.53809">
        <ele>116.46</ele>
        <time>2020-07-15T12:17:35Z</time>
      </trkpt>
      <trkpt lat="44.85224" lon="1.53786">
        <ele>116.94</ele>
        <time>2020-07-15T12:17:52Z</time>
      </trkpt>
      <trkpt lat="44.85221" lon="1.5378">
        <ele>116.94</ele>
        <time>2020-07-15T12:17:56Z</time>
      </trkpt>
      <trkpt lat="44.85209" lon="1.53749">
        <ele>116.94</ele>
        <time>2020-07-15T12:18:14Z</time>
      </trkpt>
      <trkpt lat="44.85206" lon="1.53742">
        <ele>115.5</ele>
        <time>2020-07-15T12:18:19Z</time>
      </trkpt>
      <trkpt lat="44.8519" lon="1.53722">
        <ele>115.5</ele>
        <time>2020-07-15T12:18:36Z</time>
      </trkpt>
      <trkpt lat="44.85173" lon="1.53709">
        <ele>116.46</ele>
        <time>2020-07-15T12:18:53Z</time>
      </trkpt>
      <trkpt lat="44.8517" lon="1.53707">
        <ele>116.46</ele>
        <time>2020-07-15T12:18:55Z</time>
      </trkpt>
      <trkpt lat="44.85151" lon="1.53687">
        <ele>116.94</ele>
        <time>2020-07-15T12:19:14Z</time>
      </trkpt>
      <trkpt lat="44.85139" lon="1.53679">
        <ele>116.94</ele>
        <time>2020-07-15T12:19:25Z</time>
      </trkpt>
      <trkpt lat="44.85127" lon="1.53668">
        <ele>115.5</ele>
        <time>2020-07-15T12:19:37Z</time>
      </trkpt>
      <trkpt lat="44.85125" lon="1.53665">
        <ele>116.94</ele>
        <time>2020-07-15T12:19:40Z</time>
      </trkpt>
      <trkpt lat="44.85101" lon="1.53649">
        <ele>116.94</ele>
        <time>2020-07-15T12:20:03Z</time>
      </trkpt>
      <trkpt lat="44.85072" lon="1.53632">
        <ele>117.42</ele>
        <time>2020-07-15T12:20:26Z</time>
      </trkpt>
      <trkpt lat="44.8505" lon="1.53627">
        <ele>115.98</ele>
        <time>2020-07-15T12:20:43Z</time>
      </trkpt>
      <trkpt lat="44.85045" lon="1.53625">
        <ele>117.42</ele>
        <time>2020-07-15T12:20:47Z</time>
      </trkpt>
      <trkpt lat="44.85024" lon="1.5361">
        <ele>117.9</ele>
        <time>2020-07-15T12:21:06Z</time>
      </trkpt>
      <trkpt lat="44.85018" lon="1.53595">
        <ele>117.42</ele>
        <time>2020-07-15T12:21:19Z</time>
      </trkpt>
      <trkpt lat="44.85009" lon="1.53568">
        <ele>117.9</ele>
        <time>2020-07-15T12:21:35Z</time>
      </trkpt>
      <trkpt lat="44.84994" lon="1.53543">
        <ele>117.9</ele>
        <time>2020-07-15T12:21:53Z</time>
      </trkpt>
      <trkpt lat="44.84981" lon="1.53522">
        <ele>118.86</ele>
        <time>2020-07-15T12:22:12Z</time>
      </trkpt>
      <trkpt lat="44.84972" lon="1.53507">
        <ele>120.3</ele>
        <time>2020-07-15T12:22:30Z</time>
      </trkpt>
      <trkpt lat="44.84955" lon="1.53482">
        <ele>121.26</ele>
        <time>2020-07-15T12:22:52Z</time>
      </trkpt>
      <trkpt lat="44.8494" lon="1.53466">
        <ele>122.71</ele>
        <time>2020-07-15T12:23:08Z</time>
      </trkpt>
      <trkpt lat="44.84927" lon="1.5345">
        <ele>124.63</ele>
        <time>2020-07-15T12:23:24Z</time>
      </trkpt>
      <trkpt lat="44.84914" lon="1.53423">
        <ele>125.59</ele>
        <time>2020-07-15T12:23:42Z</time>
      </trkpt>
      <trkpt lat="44.84899" lon="1.53403">
        <ele>126.55</ele>
        <time>2020-07-15T12:24:00Z</time>
      </trkpt>
      <trkpt lat="44.84887" lon="1.53385">
        <ele>127.51</ele>
        <time>2020-07-15T12:24:15Z</time>
      </trkpt>
      <trkpt lat="44.84872" lon="1.53363">
        <ele>128.47</ele>
        <time>2020-07-15T12:24:34Z</time>
      </trkpt>
      <trkpt lat="44.84862" lon="1.53348">
        <ele>128.47</ele>
        <time>2020-07-15T12:24:50Z</time>
      </trkpt>
      <trkpt lat="44.84851" lon="1.53323">
        <ele>128.47</ele>
        <time>2020-07-15T12:25:08Z</time>
      </trkpt>
      <trkpt lat="44.8485" lon="1.53319">
        <ele>126.55</ele>
        <time>2020-07-15T12:25:10Z</time>
      </trkpt>
      <trkpt lat="44.84841" lon="1.53295">
        <ele>126.55</ele>
        <time>2020-07-15T12:25:27Z</time>
      </trkpt>
      <trkpt lat="44.84841" lon="1.53285">
        <ele>126.07</ele>
        <time>2020-07-15T12:25:32Z</time>
      </trkpt>
      <trkpt lat="44.84841" lon="1.53256">
        <ele>124.63</ele>
        <time>2020-07-15T12:25:50Z</time>
      </trkpt>
      <trkpt lat="44.84841" lon="1.53216">
        <ele>124.15</ele>
        <time>2020-07-15T12:26:10Z</time>
      </trkpt>
      <trkpt lat="44.84844" lon="1.53186">
        <ele>123.19</ele>
        <time>2020-07-15T12:26:29Z</time>
      </trkpt>
      <trkpt lat="44.84847" lon="1.53154">
        <ele>122.71</ele>
        <time>2020-07-15T12:26:47Z</time>
      </trkpt>
      <trkpt lat="44.8485" lon="1.53143">
        <ele>122.22</ele>
        <time>2020-07-15T12:26:54Z</time>
      </trkpt>
      <trkpt lat="44.84854" lon="1.53133">
        <ele>121.74</ele>
        <time>2020-07-15T12:27:00Z</time>
      </trkpt>
      <trkpt lat="44.84857" lon="1.53129">
        <ele>122.22</ele>
        <time>2020-07-15T12:27:03Z</time>
      </trkpt>
      <trkpt lat="44.84868" lon="1.53113">
        <ele>121.26</ele>
        <time>2020-07-15T12:27:20Z</time>
      </trkpt>
      <trkpt lat="44.84881" lon="1.53095">
        <ele>120.3</ele>
        <time>2020-07-15T12:27:36Z</time>
      </trkpt>
      <trkpt lat="44.84896" lon="1.53076">
        <ele>120.3</ele>
        <time>2020-07-15T12:27:57Z</time>
      </trkpt>
      <trkpt lat="44.84909" lon="1.53058">
        <ele>118.86</ele>
        <time>2020-07-15T12:28:14Z</time>
      </trkpt>
      <trkpt lat="44.84928" lon="1.53033">
        <ele>118.38</ele>
        <time>2020-07-15T12:28:36Z</time>
      </trkpt>
      <trkpt lat="44.84947" lon="1.53009">
        <ele>117.42</ele>
        <time>2020-07-15T12:28:58Z</time>
      </trkpt>
      <trkpt lat="44.84957" lon="1.52994">
        <ele>117.42</ele>
        <time>2020-07-15T12:29:10Z</time>
      </trkpt>
      <trkpt lat="44.84965" lon="1.52981">
        <ele>116.46</ele>
        <time>2020-07-15T12:29:28Z</time>
      </trkpt>
      <trkpt lat="44.8498" lon="1.52961">
        <ele>115.98</ele>
        <time>2020-07-15T12:29:47Z</time>
      </trkpt>
      <trkpt lat="44.85001" lon="1.52932">
        <ele>115.01</ele>
        <time>2020-07-15T12:30:08Z</time>
      </trkpt>
      <trkpt lat="44.85019" lon="1.52904">
        <ele>113.09</ele>
        <time>2020-07-15T12:30:30Z</time>
      </trkpt>
      <trkpt lat="44.85038" lon="1.52875">
        <ele>111.65</ele>
        <time>2020-07-15T12:30:54Z</time>
      </trkpt>
      <trkpt lat="44.85056" lon="1.52846">
        <ele>109.73</ele>
        <time>2020-07-15T12:31:15Z</time>
      </trkpt>
      <trkpt lat="44.85071" lon="1.52821">
        <ele>109.25</ele>
        <time>2020-07-15T12:31:34Z</time>
      </trkpt>
      <trkpt lat="44.85088" lon="1.52796">
        <ele>108.29</ele>
        <time>2020-07-15T12:31:54Z</time>
      </trkpt>
      <trkpt lat="44.85092" lon="1.52777">
        <ele>107.32</ele>
        <time>2020-07-15T12:32:11Z</time>
      </trkpt>
      <trkpt lat="44.8511" lon="1.52744">
        <ele>105.4</ele>
        <time>2020-07-15T12:32:35Z</time>
      </trkpt>
      <trkpt lat="44.85128" lon="1.52716">
        <ele>103.96</ele>
        <time>2020-07-15T12:32:55Z</time>
      </trkpt>
      <trkpt lat="44.85137" lon="1.52707">
        <ele>103.48</ele>
        <time>2020-07-15T12:33:06Z</time>
      </trkpt>
      <trkpt lat="44.8514" lon="1.52702">
        <ele>103.96</ele>
        <time>2020-07-15T12:33:13Z</time>
      </trkpt>
      <trkpt lat="44.85138" lon="1.52693">
        <ele>103.48</ele>
        <time>2020-07-15T12:33:28Z</time>
      </trkpt>
      <trkpt lat="44.85142" lon="1.5269">
        <ele>103.48</ele>
        <time>2020-07-15T12:33:32Z</time>
      </trkpt>
      <trkpt lat="44.85154" lon="1.52678">
        <ele>103</ele>
        <time>2020-07-15T12:33:52Z</time>
      </trkpt>
      <trkpt lat="44.85153" lon="1.52672">
        <ele>102.52</ele>
        <time>2020-07-15T12:34:08Z</time>
      </trkpt>
      <trkpt lat="44.85154" lon="1.52675">
        <ele>102.52</ele>
        <time>2020-07-15T12:34:33Z</time>
      </trkpt>
      <trkpt lat="44.85154" lon="1.52672">
        <ele>103</ele>
        <time>2020-07-15T12:34:56Z</time>
      </trkpt>
      <trkpt lat="44.85155" lon="1.52671">
        <ele>103.48</ele>
        <time>2020-07-15T12:35:16Z</time>
      </trkpt>
      <trkpt lat="44.8516" lon="1.52664">
        <ele>103.48</ele>
        <time>2020-07-15T12:35:28Z</time>
      </trkpt>
      <trkpt lat="44.85168" lon="1.52652">
        <ele>103.48</ele>
        <time>2020-07-15T12:35:45Z</time>
      </trkpt>
      <trkpt lat="44.85172" lon="1.52644">
        <ele>103.48</ele>
        <time>2020-07-15T12:36:02Z</time>
      </trkpt>
      <trkpt lat="44.85173" lon="1.52643">
        <ele>103.48</ele>
        <time>2020-07-15T12:36:28Z</time>
      </trkpt>
      <trkpt lat="44.85173" lon="1.52637">
        <ele>103.48</ele>
        <time>2020-07-15T12:36:53Z</time>
      </trkpt>
      <trkpt lat="44.85178" lon="1.52629">
        <ele>103.48</ele>
        <time>2020-07-15T12:37:10Z</time>
      </trkpt>
      <trkpt lat="44.85185" lon="1.52615">
        <ele>103</ele>
        <time>2020-07-15T12:37:31Z</time>
      </trkpt>
      <trkpt lat="44.85187" lon="1.52608">
        <ele>103</ele>
        <time>2020-07-15T12:37:52Z</time>
      </trkpt>
      <trkpt lat="44.85191" lon="1.52603">
        <ele>103</ele>
        <time>2020-07-15T12:38:12Z</time>
      </trkpt>
      <trkpt lat="44.8519" lon="1.52601">
        <ele>103</ele>
        <time>2020-07-15T12:38:32Z</time>
      </trkpt>
      <trkpt lat="44.85196" lon="1.5259">
        <ele>103</ele>
        <time>2020-07-15T12:38:47Z</time>
      </trkpt>
      <trkpt lat="44.85198" lon="1.52586">
        <ele>103</ele>
        <time>2020-07-15T12:39:08Z</time>
      </trkpt>
      <trkpt lat="44.85202" lon="1.52582">
        <ele>102.52</ele>
        <time>2020-07-15T12:39:42Z</time>
      </trkpt>
      <trkpt lat="44.85201" lon="1.52587">
        <ele>102.52</ele>
        <time>2020-07-15T12:40:14Z</time>
      </trkpt>
      <trkpt lat="44.852" lon="1.5259">
        <ele>102.52</ele>
        <time>2020-07-15T12:40:37Z</time>
      </trkpt>
      <trkpt lat="44.85207" lon="1.52572">
        <ele>102.52</ele>
        <time>2020-07-15T12:40:55Z</time>
      </trkpt>
      <trkpt lat="44.85214" lon="1.52554">
        <ele>102.52</ele>
        <time>2020-07-15T12:41:13Z</time>
      </trkpt>
      <trkpt lat="44.85219" lon="1.52541">
        <ele>102.52</ele>
        <time>2020-07-15T12:41:26Z</time>
      </trkpt>
      <trkpt lat="44.85223" lon="1.52534">
        <ele>102.52</ele>
        <time>2020-07-15T12:41:31Z</time>
      </trkpt>
      <trkpt lat="44.8523" lon="1.52517">
        <ele>102.52</ele>
        <time>2020-07-15T12:41:42Z</time>
      </trkpt>
      <trkpt lat="44.85238" lon="1.52506">
        <ele>101.08</ele>
        <time>2020-07-15T12:41:58Z</time>
      </trkpt>
      <trkpt lat="44.85244" lon="1.52488">
        <ele>101.08</ele>
        <time>2020-07-15T12:42:17Z</time>
      </trkpt>
      <trkpt lat="44.85247" lon="1.52479">
        <ele>101.08</ele>
        <time>2020-07-15T12:42:24Z</time>
      </trkpt>
      <trkpt lat="44.85263" lon="1.52454">
        <ele>100.6</ele>
        <time>2020-07-15T12:42:41Z</time>
      </trkpt>
      <trkpt lat="44.85271" lon="1.52429">
        <ele>100.6</ele>
        <time>2020-07-15T12:43:00Z</time>
      </trkpt>
      <trkpt lat="44.85286" lon="1.52398">
        <ele>100.11</ele>
        <time>2020-07-15T12:43:20Z</time>
      </trkpt>
      <trkpt lat="44.85297" lon="1.52366">
        <ele>100.11</ele>
        <time>2020-07-15T12:43:42Z</time>
      </trkpt>
      <trkpt lat="44.85315" lon="1.52333">
        <ele>100.11</ele>
        <time>2020-07-15T12:44:04Z</time>
      </trkpt>
      <trkpt lat="44.85329" lon="1.52303">
        <ele>101.08</ele>
        <time>2020-07-15T12:44:22Z</time>
      </trkpt>
      <trkpt lat="44.85343" lon="1.52272">
        <ele>101.08</ele>
        <time>2020-07-15T12:44:42Z</time>
      </trkpt>
      <trkpt lat="44.8536" lon="1.52237">
        <ele>100.11</ele>
        <time>2020-07-15T12:45:03Z</time>
      </trkpt>
      <trkpt lat="44.85371" lon="1.52205">
        <ele>101.56</ele>
        <time>2020-07-15T12:45:22Z</time>
      </trkpt>
      <trkpt lat="44.85372" lon="1.52198">
        <ele>101.56</ele>
        <time>2020-07-15T12:45:26Z</time>
      </trkpt>
      <trkpt lat="44.85379" lon="1.52165">
        <ele>102.04</ele>
        <time>2020-07-15T12:45:45Z</time>
      </trkpt>
      <trkpt lat="44.85385" lon="1.52146">
        <ele>102.04</ele>
        <time>2020-07-15T12:45:57Z</time>
      </trkpt>
      <trkpt lat="44.85396" lon="1.52143">
        <ele>100.6</ele>
        <time>2020-07-15T12:46:06Z</time>
      </trkpt>
      <trkpt lat="44.85405" lon="1.52147">
        <ele>100.6</ele>
        <time>2020-07-15T12:46:14Z</time>
      </trkpt>
      <trkpt lat="44.85422" lon="1.52158">
        <ele>102.04</ele>
        <time>2020-07-15T12:46:30Z</time>
      </trkpt>
      <trkpt lat="44.85422" lon="1.5216">
        <ele>102.04</ele>
        <time>2020-07-15T12:46:49Z</time>
      </trkpt>
      <trkpt lat="44.85423" lon="1.52162">
        <ele>102.04</ele>
        <time>2020-07-15T12:47:16Z</time>
      </trkpt>
      <trkpt lat="44.85417" lon="1.52181">
        <ele>102.04</ele>
        <time>2020-07-15T12:47:43Z</time>
      </trkpt>
      <trkpt lat="44.85418" lon="1.52177">
        <ele>102.52</ele>
        <time>2020-07-15T12:48:14Z</time>
      </trkpt>
      <trkpt lat="44.8542" lon="1.5217">
        <ele>102.52</ele>
        <time>2020-07-15T12:48:36Z</time>
      </trkpt>
      <trkpt lat="44.85418" lon="1.52172">
        <ele>102.52</ele>
        <time>2020-07-15T12:49:04Z</time>
      </trkpt>
      <trkpt lat="44.85424" lon="1.52154">
        <ele>102.52</ele>
        <time>2020-07-15T12:49:24Z</time>
      </trkpt>
      <trkpt lat="44.85425" lon="1.52137">
        <ele>102.04</ele>
        <time>2020-07-15T12:49:39Z</time>
      </trkpt>
      <trkpt lat="44.8543" lon="1.52093">
        <ele>102.04</ele>
        <time>2020-07-15T12:50:07Z</time>
      </trkpt>
      <trkpt lat="44.85448" lon="1.5205">
        <ele>102.04</ele>
        <time>2020-07-15T12:50:31Z</time>
      </trkpt>
      <trkpt lat="44.85442" lon="1.5208">
        <ele>102.04</ele>
        <time>2020-07-15T12:50:56Z</time>
      </trkpt>
      <trkpt lat="44.85425" lon="1.52155">
        <ele>102.04</ele>
        <time>2020-07-15T12:51:15Z</time>
      </trkpt>
      <trkpt lat="44.85422" lon="1.52156">
        <ele>102.52</ele>
        <time>2020-07-15T12:51:41Z</time>
      </trkpt>
      <trkpt lat="44.85423" lon="1.52156">
        <ele>102.52</ele>
        <time>2020-07-15T12:52:08Z</time>
      </trkpt>
      <trkpt lat="44.85421" lon="1.52159">
        <ele>102.52</ele>
        <time>2020-07-15T12:52:37Z</time>
      </trkpt>
      <trkpt lat="44.85423" lon="1.52159">
        <ele>102.52</ele>
        <time>2020-07-15T12:53:03Z</time>
      </trkpt>
      <trkpt lat="44.85422" lon="1.52156">
        <ele>102.52</ele>
        <time>2020-07-15T12:53:24Z</time>
      </trkpt>
      <trkpt lat="44.8542" lon="1.52157">
        <ele>102.52</ele>
        <time>2020-07-15T12:53:52Z</time>
      </trkpt>
      <trkpt lat="44.85423" lon="1.52157">
        <ele>102.52</ele>
        <time>2020-07-15T12:54:21Z</time>
      </trkpt>
      <trkpt lat="44.85417" lon="1.52163">
        <ele>102.52</ele>
        <time>2020-07-15T12:54:43Z</time>
      </trkpt>
      <trkpt lat="44.85416" lon="1.52163">
        <ele>102.52</ele>
        <time>2020-07-15T12:55:11Z</time>
      </trkpt>
      <trkpt lat="44.85419" lon="1.52156">
        <ele>101.56</ele>
        <time>2020-07-15T12:55:34Z</time>
      </trkpt>
      <trkpt lat="44.85417" lon="1.52159">
        <ele>101.56</ele>
        <time>2020-07-15T12:55:35Z</time>
      </trkpt>
      <trkpt lat="44.85421" lon="1.52166">
        <ele>101.56</ele>
        <time>2020-07-15T12:55:41Z</time>
      </trkpt>
      <trkpt lat="44.8543" lon="1.52167">
        <ele>100.6</ele>
        <time>2020-07-15T12:55:49Z</time>
      </trkpt>
      <trkpt lat="44.85446" lon="1.52177">
        <ele>102.04</ele>
        <time>2020-07-15T12:56:07Z</time>
      </trkpt>
      <trkpt lat="44.85451" lon="1.52169">
        <ele>103.48</ele>
        <time>2020-07-15T12:56:15Z</time>
      </trkpt>
      <trkpt lat="44.85462" lon="1.52155">
        <ele>104.92</ele>
        <time>2020-07-15T12:56:32Z</time>
      </trkpt>
      <trkpt lat="44.85467" lon="1.52149">
        <ele>105.88</ele>
        <time>2020-07-15T12:56:46Z</time>
      </trkpt>
      <trkpt lat="44.85469" lon="1.52146">
        <ele>105.4</ele>
        <time>2020-07-15T12:57:06Z</time>
      </trkpt>
      <trkpt lat="44.85481" lon="1.52127">
        <ele>108.29</ele>
        <time>2020-07-15T12:57:24Z</time>
      </trkpt>
      <trkpt lat="44.85485" lon="1.5211">
        <ele>111.17</ele>
        <time>2020-07-15T12:57:46Z</time>
      </trkpt>
      <trkpt lat="44.85497" lon="1.52104">
        <ele>114.05</ele>
        <time>2020-07-15T12:58:00Z</time>
      </trkpt>
      <trkpt lat="44.85514" lon="1.52108">
        <ele>115.98</ele>
        <time>2020-07-15T12:58:20Z</time>
      </trkpt>
      <trkpt lat="44.85524" lon="1.5211">
        <ele>118.38</ele>
        <time>2020-07-15T12:58:42Z</time>
      </trkpt>
      <trkpt lat="44.85522" lon="1.52107">
        <ele>121.74</ele>
        <time>2020-07-15T12:59:04Z</time>
      </trkpt>
      <trkpt lat="44.8551" lon="1.52089">
        <ele>124.15</ele>
        <time>2020-07-15T12:59:28Z</time>
      </trkpt>
      <trkpt lat="44.85513" lon="1.52062">
        <ele>127.51</ele>
        <time>2020-07-15T12:59:48Z</time>
      </trkpt>
      <trkpt lat="44.85514" lon="1.52046">
        <ele>129.92</ele>
        <time>2020-07-15T13:00:06Z</time>
      </trkpt>
      <trkpt lat="44.85512" lon="1.5203">
        <ele>132.32</ele>
        <time>2020-07-15T13:00:23Z</time>
      </trkpt>
      <trkpt lat="44.85516" lon="1.52011">
        <ele>134.72</ele>
        <time>2020-07-15T13:00:42Z</time>
      </trkpt>
      <trkpt lat="44.85521" lon="1.52017">
        <ele>135.2</ele>
        <time>2020-07-15T13:00:57Z</time>
      </trkpt>
      <trkpt lat="44.8552" lon="1.51999">
        <ele>135.2</ele>
        <time>2020-07-15T13:01:15Z</time>
      </trkpt>
      <trkpt lat="44.85523" lon="1.51984">
        <ele>135.2</ele>
        <time>2020-07-15T13:01:24Z</time>
      </trkpt>
      <trkpt lat="44.85529" lon="1.51954">
        <ele>135.2</ele>
        <time>2020-07-15T13:01:44Z</time>
      </trkpt>
      <trkpt lat="44.85528" lon="1.51924">
        <ele>133.28</ele>
        <time>2020-07-15T13:02:03Z</time>
      </trkpt>
      <trkpt lat="44.85525" lon="1.51906">
        <ele>133.28</ele>
        <time>2020-07-15T13:02:15Z</time>
      </trkpt>
      <trkpt lat="44.85522" lon="1.51878">
        <ele>133.28</ele>
        <time>2020-07-15T13:02:32Z</time>
      </trkpt>
      <trkpt lat="44.85519" lon="1.51846">
        <ele>132.8</ele>
        <time>2020-07-15T13:02:49Z</time>
      </trkpt>
      <trkpt lat="44.85517" lon="1.5182">
        <ele>131.84</ele>
        <time>2020-07-15T13:03:05Z</time>
      </trkpt>
      <trkpt lat="44.8552" lon="1.5179">
        <ele>131.84</ele>
        <time>2020-07-15T13:03:24Z</time>
      </trkpt>
      <trkpt lat="44.85523" lon="1.51767">
        <ele>131.36</ele>
        <time>2020-07-15T13:03:41Z</time>
      </trkpt>
      <trkpt lat="44.85529" lon="1.51744">
        <ele>130.88</ele>
        <time>2020-07-15T13:03:58Z</time>
      </trkpt>
      <trkpt lat="44.85532" lon="1.51715">
        <ele>129.92</ele>
        <time>2020-07-15T13:04:15Z</time>
      </trkpt>
      <trkpt lat="44.85535" lon="1.51691">
        <ele>128.47</ele>
        <time>2020-07-15T13:04:31Z</time>
      </trkpt>
      <trkpt lat="44.85541" lon="1.51659">
        <ele>128.47</ele>
        <time>2020-07-15T13:04:51Z</time>
      </trkpt>
      <trkpt lat="44.85543" lon="1.51622">
        <ele>127.99</ele>
        <time>2020-07-15T13:05:10Z</time>
      </trkpt>
      <trkpt lat="44.85549" lon="1.51603">
        <ele>128.95</ele>
        <time>2020-07-15T13:05:24Z</time>
      </trkpt>
      <trkpt lat="44.8555" lon="1.51603">
        <ele>128.95</ele>
        <time>2020-07-15T13:05:35Z</time>
      </trkpt>
      <trkpt lat="44.85547" lon="1.51603">
        <ele>128.95</ele>
        <time>2020-07-15T13:06:17Z</time>
      </trkpt>
      <trkpt lat="44.85552" lon="1.51598">
        <ele>128.95</ele>
        <time>2020-07-15T13:06:41Z</time>
      </trkpt>
      <trkpt lat="44.85546" lon="1.51596">
        <ele>128.95</ele>
        <time>2020-07-15T13:07:00Z</time>
      </trkpt>
      <trkpt lat="44.85547" lon="1.51572">
        <ele>130.4</ele>
        <time>2020-07-15T13:07:16Z</time>
      </trkpt>
      <trkpt lat="44.85548" lon="1.51546">
        <ele>131.36</ele>
        <time>2020-07-15T13:07:34Z</time>
      </trkpt>
      <trkpt lat="44.85544" lon="1.5154">
        <ele>131.84</ele>
        <time>2020-07-15T13:07:40Z</time>
      </trkpt>
      <trkpt lat="44.85544" lon="1.51513">
        <ele>132.8</ele>
        <time>2020-07-15T13:07:57Z</time>
      </trkpt>
      <trkpt lat="44.85544" lon="1.51512">
        <ele>132.8</ele>
        <time>2020-07-15T13:07:58Z</time>
      </trkpt>
      <trkpt lat="44.85547" lon="1.51507">
        <ele>132.8</ele>
        <time>2020-07-15T13:08:06Z</time>
      </trkpt>
      <trkpt lat="44.85555" lon="1.51501">
        <ele>132.8</ele>
        <time>2020-07-15T13:08:14Z</time>
      </trkpt>
      <trkpt lat="44.85567" lon="1.51486">
        <ele>132.8</ele>
        <time>2020-07-15T13:08:31Z</time>
      </trkpt>
      <trkpt lat="44.85566" lon="1.51482">
        <ele>132.8</ele>
        <time>2020-07-15T13:08:36Z</time>
      </trkpt>
      <trkpt lat="44.85562" lon="1.51469">
        <ele>132.8</ele>
        <time>2020-07-15T13:08:52Z</time>
      </trkpt>
      <trkpt lat="44.85572" lon="1.51479">
        <ele>132.8</ele>
        <time>2020-07-15T13:09:09Z</time>
      </trkpt>
      <trkpt lat="44.85579" lon="1.51475">
        <ele>132.8</ele>
        <time>2020-07-15T13:09:23Z</time>
      </trkpt>
      <trkpt lat="44.85591" lon="1.51462">
        <ele>132.8</ele>
        <time>2020-07-15T13:09:43Z</time>
      </trkpt>
      <trkpt lat="44.85591" lon="1.5146">
        <ele>132.8</ele>
        <time>2020-07-15T13:10:02Z</time>
      </trkpt>
      <trkpt lat="44.85586" lon="1.51463">
        <ele>132.32</ele>
        <time>2020-07-15T13:10:28Z</time>
      </trkpt>
      <trkpt lat="44.85592" lon="1.51461">
        <ele>132.32</ele>
        <time>2020-07-15T13:10:54Z</time>
      </trkpt>
      <trkpt lat="44.8559" lon="1.5146">
        <ele>132.32</ele>
        <time>2020-07-15T13:11:12Z</time>
      </trkpt>
      <trkpt lat="44.85589" lon="1.51462">
        <ele>132.32</ele>
        <time>2020-07-15T13:11:32Z</time>
      </trkpt>
      <trkpt lat="44.85596" lon="1.5146">
        <ele>132.32</ele>
        <time>2020-07-15T13:11:49Z</time>
      </trkpt>
      <trkpt lat="44.85609" lon="1.51459">
        <ele>132.32</ele>
        <time>2020-07-15T13:12:06Z</time>
      </trkpt>
      <trkpt lat="44.85625" lon="1.51467">
        <ele>132.8</ele>
        <time>2020-07-15T13:12:23Z</time>
      </trkpt>
      <trkpt lat="44.85626" lon="1.51467">
        <ele>132.8</ele>
        <time>2020-07-15T13:12:24Z</time>
      </trkpt>
      <trkpt lat="44.85633" lon="1.51471">
        <ele>132.8</ele>
        <time>2020-07-15T13:12:34Z</time>
      </trkpt>
      <trkpt lat="44.85653" lon="1.51481">
        <ele>132.8</ele>
        <time>2020-07-15T13:12:54Z</time>
      </trkpt>
      <trkpt lat="44.85659" lon="1.51487">
        <ele>132.8</ele>
        <time>2020-07-15T13:13:13Z</time>
      </trkpt>
      <trkpt lat="44.8567" lon="1.51478">
        <ele>133.28</ele>
        <time>2020-07-15T13:13:27Z</time>
      </trkpt>
      <trkpt lat="44.85687" lon="1.51447">
        <ele>133.76</ele>
        <time>2020-07-15T13:13:49Z</time>
      </trkpt>
      <trkpt lat="44.85697" lon="1.51422">
        <ele>133.76</ele>
        <time>2020-07-15T13:14:06Z</time>
      </trkpt>
      <trkpt lat="44.85706" lon="1.51387">
        <ele>133.76</ele>
        <time>2020-07-15T13:14:26Z</time>
      </trkpt>
      <trkpt lat="44.85709" lon="1.51365">
        <ele>132.32</ele>
        <time>2020-07-15T13:14:38Z</time>
      </trkpt>
      <trkpt lat="44.85723" lon="1.51363">
        <ele>132.32</ele>
        <time>2020-07-15T13:14:52Z</time>
      </trkpt>
      <trkpt lat="44.85727" lon="1.51363">
        <ele>133.76</ele>
        <time>2020-07-15T13:14:55Z</time>
      </trkpt>
      <trkpt lat="44.85746" lon="1.51369">
        <ele>134.72</ele>
        <time>2020-07-15T13:15:13Z</time>
      </trkpt>
      <trkpt lat="44.85761" lon="1.51381">
        <ele>136.16</ele>
        <time>2020-07-15T13:15:30Z</time>
      </trkpt>
      <trkpt lat="44.85775" lon="1.51387">
        <ele>137.61</ele>
        <time>2020-07-15T13:15:46Z</time>
      </trkpt>
      <trkpt lat="44.85786" lon="1.51391">
        <ele>138.09</ele>
        <time>2020-07-15T13:16:04Z</time>
      </trkpt>
      <trkpt lat="44.85803" lon="1.51404">
        <ele>139.53</ele>
        <time>2020-07-15T13:16:21Z</time>
      </trkpt>
      <trkpt lat="44.8581" lon="1.51408">
        <ele>140.01</ele>
        <time>2020-07-15T13:16:28Z</time>
      </trkpt>
      <trkpt lat="44.85826" lon="1.51415">
        <ele>142.41</ele>
        <time>2020-07-15T13:16:48Z</time>
      </trkpt>
      <trkpt lat="44.85849" lon="1.51424">
        <ele>144.34</ele>
        <time>2020-07-15T13:17:10Z</time>
      </trkpt>
      <trkpt lat="44.8587" lon="1.51432">
        <ele>146.26</ele>
        <time>2020-07-15T13:17:35Z</time>
      </trkpt>
      <trkpt lat="44.85889" lon="1.5144">
        <ele>148.18</ele>
        <time>2020-07-15T13:17:56Z</time>
      </trkpt>
      <trkpt lat="44.85909" lon="1.51445">
        <ele>151.54</ele>
        <time>2020-07-15T13:18:16Z</time>
      </trkpt>
      <trkpt lat="44.85925" lon="1.51451">
        <ele>154.91</ele>
        <time>2020-07-15T13:18:37Z</time>
      </trkpt>
      <trkpt lat="44.85935" lon="1.51439">
        <ele>156.35</ele>
        <time>2020-07-15T13:18:59Z</time>
      </trkpt>
      <trkpt lat="44.85939" lon="1.5143">
        <ele>156.35</ele>
        <time>2020-07-15T13:19:07Z</time>
      </trkpt>
      <trkpt lat="44.85948" lon="1.51413">
        <ele>154.91</ele>
        <time>2020-07-15T13:19:20Z</time>
      </trkpt>
      <trkpt lat="44.85962" lon="1.51392">
        <ele>154.43</ele>
        <time>2020-07-15T13:19:38Z</time>
      </trkpt>
      <trkpt lat="44.85977" lon="1.51363">
        <ele>152.99</ele>
        <time>2020-07-15T13:19:59Z</time>
      </trkpt>
      <trkpt lat="44.85988" lon="1.51341">
        <ele>152.99</ele>
        <time>2020-07-15T13:20:16Z</time>
      </trkpt>
      <trkpt lat="44.86002" lon="1.51322">
        <ele>152.99</ele>
        <time>2020-07-15T13:20:33Z</time>
      </trkpt>
      <trkpt lat="44.86014" lon="1.513">
        <ele>151.54</ele>
        <time>2020-07-15T13:20:51Z</time>
      </trkpt>
      <trkpt lat="44.86024" lon="1.51288">
        <ele>151.06</ele>
        <time>2020-07-15T13:21:06Z</time>
      </trkpt>
      <trkpt lat="44.86037" lon="1.51267">
        <ele>149.14</ele>
        <time>2020-07-15T13:21:24Z</time>
      </trkpt>
      <trkpt lat="44.86051" lon="1.51242">
        <ele>148.66</ele>
        <time>2020-07-15T13:21:42Z</time>
      </trkpt>
      <trkpt lat="44.86056" lon="1.51209">
        <ele>148.66</ele>
        <time>2020-07-15T13:22:02Z</time>
      </trkpt>
      <trkpt lat="44.86057" lon="1.51203">
        <ele>150.1</ele>
        <time>2020-07-15T13:22:06Z</time>
      </trkpt>
      <trkpt lat="44.86058" lon="1.51179">
        <ele>151.54</ele>
        <time>2020-07-15T13:22:23Z</time>
      </trkpt>
      <trkpt lat="44.86053" lon="1.5118">
        <ele>152.03</ele>
        <time>2020-07-15T13:22:45Z</time>
      </trkpt>
      <trkpt lat="44.86064" lon="1.51182">
        <ele>152.03</ele>
        <time>2020-07-15T13:23:07Z</time>
      </trkpt>
      <trkpt lat="44.86066" lon="1.51182">
        <ele>150.1</ele>
        <time>2020-07-15T13:23:10Z</time>
      </trkpt>
      <trkpt lat="44.86063" lon="1.51187">
        <ele>151.06</ele>
        <time>2020-07-15T13:23:33Z</time>
      </trkpt>
      <trkpt lat="44.8605" lon="1.51185">
        <ele>151.06</ele>
        <time>2020-07-15T13:24:00Z</time>
      </trkpt>
      <trkpt lat="44.8605" lon="1.51168">
        <ele>152.03</ele>
        <time>2020-07-15T13:24:27Z</time>
      </trkpt>
      <trkpt lat="44.86055" lon="1.51139">
        <ele>153.95</ele>
        <time>2020-07-15T13:24:46Z</time>
      </trkpt>
      <trkpt lat="44.86061" lon="1.51112">
        <ele>156.35</ele>
        <time>2020-07-15T13:25:07Z</time>
      </trkpt>
      <trkpt lat="44.86066" lon="1.51084">
        <ele>157.31</ele>
        <time>2020-07-15T13:25:23Z</time>
      </trkpt>
      <trkpt lat="44.86078" lon="1.51056">
        <ele>158.27</ele>
        <time>2020-07-15T13:25:43Z</time>
      </trkpt>
      <trkpt lat="44.86089" lon="1.51027">
        <ele>158.27</ele>
        <time>2020-07-15T13:26:03Z</time>
      </trkpt>
      <trkpt lat="44.86101" lon="1.51003">
        <ele>158.27</ele>
        <time>2020-07-15T13:26:21Z</time>
      </trkpt>
      <trkpt lat="44.86112" lon="1.50989">
        <ele>158.27</ele>
        <time>2020-07-15T13:26:34Z</time>
      </trkpt>
      <trkpt lat="44.86114" lon="1.50986">
        <ele>158.27</ele>
        <time>2020-07-15T13:26:36Z</time>
      </trkpt>
      <trkpt lat="44.86123" lon="1.50962">
        <ele>156.83</ele>
        <time>2020-07-15T13:26:55Z</time>
      </trkpt>
      <trkpt lat="44.86135" lon="1.50939">
        <ele>158.27</ele>
        <time>2020-07-15T13:27:11Z</time>
      </trkpt>
      <trkpt lat="44.86148" lon="1.50914">
        <ele>156.83</ele>
        <time>2020-07-15T13:27:31Z</time>
      </trkpt>
      <trkpt lat="44.8615" lon="1.50906">
        <ele>157.79</ele>
        <time>2020-07-15T13:27:36Z</time>
      </trkpt>
      <trkpt lat="44.86156" lon="1.50887">
        <ele>156.35</ele>
        <time>2020-07-15T13:27:47Z</time>
      </trkpt>
      <trkpt lat="44.86158" lon="1.50858">
        <ele>156.35</ele>
        <time>2020-07-15T13:28:02Z</time>
      </trkpt>
      <trkpt lat="44.86157" lon="1.50827">
        <ele>155.39</ele>
        <time>2020-07-15T13:28:21Z</time>
      </trkpt>
      <trkpt lat="44.86153" lon="1.50795">
        <ele>153.47</ele>
        <time>2020-07-15T13:28:38Z</time>
      </trkpt>
      <trkpt lat="44.86151" lon="1.50764">
        <ele>150.58</ele>
        <time>2020-07-15T13:28:57Z</time>
      </trkpt>
      <trkpt lat="44.86149" lon="1.50729">
        <ele>148.18</ele>
        <time>2020-07-15T13:29:16Z</time>
      </trkpt>
      <trkpt lat="44.86151" lon="1.50712">
        <ele>147.7</ele>
        <time>2020-07-15T13:29:26Z</time>
      </trkpt>
      <trkpt lat="44.86157" lon="1.50679">
        <ele>146.26</ele>
        <time>2020-07-15T13:29:45Z</time>
      </trkpt>
      <trkpt lat="44.86164" lon="1.50645">
        <ele>144.34</ele>
        <time>2020-07-15T13:30:05Z</time>
      </trkpt>
      <trkpt lat="44.86172" lon="1.50619">
        <ele>143.37</ele>
        <time>2020-07-15T13:30:25Z</time>
      </trkpt>
      <trkpt lat="44.86188" lon="1.50588">
        <ele>143.85</ele>
        <time>2020-07-15T13:30:46Z</time>
      </trkpt>
      <trkpt lat="44.8619" lon="1.50585">
        <ele>143.85</ele>
        <time>2020-07-15T13:30:49Z</time>
      </trkpt>
      <trkpt lat="44.86199" lon="1.50571">
        <ele>144.34</ele>
        <time>2020-07-15T13:30:57Z</time>
      </trkpt>
      <trkpt lat="44.86216" lon="1.50547">
        <ele>142.89</ele>
        <time>2020-07-15T13:31:14Z</time>
      </trkpt>
      <trkpt lat="44.86225" lon="1.50521">
        <ele>142.89</ele>
        <time>2020-07-15T13:31:30Z</time>
      </trkpt>
      <trkpt lat="44.8624" lon="1.50496">
        <ele>142.41</ele>
        <time>2020-07-15T13:31:48Z</time>
      </trkpt>
      <trkpt lat="44.8624" lon="1.50494">
        <ele>142.41</ele>
        <time>2020-07-15T13:31:49Z</time>
      </trkpt>
      <trkpt lat="44.86255" lon="1.50473">
        <ele>142.41</ele>
        <time>2020-07-15T13:32:07Z</time>
      </trkpt>
      <trkpt lat="44.86271" lon="1.5045">
        <ele>141.93</ele>
        <time>2020-07-15T13:32:26Z</time>
      </trkpt>
      <trkpt lat="44.86296" lon="1.5042">
        <ele>140.49</ele>
        <time>2020-07-15T13:32:47Z</time>
      </trkpt>
      <trkpt lat="44.86314" lon="1.50391">
        <ele>138.09</ele>
        <time>2020-07-15T13:33:09Z</time>
      </trkpt>
      <trkpt lat="44.86333" lon="1.50368">
        <ele>134.72</ele>
        <time>2020-07-15T13:33:29Z</time>
      </trkpt>
      <trkpt lat="44.86347" lon="1.50355">
        <ele>132.8</ele>
        <time>2020-07-15T13:33:42Z</time>
      </trkpt>
      <trkpt lat="44.86351" lon="1.50347">
        <ele>132.8</ele>
        <time>2020-07-15T13:33:49Z</time>
      </trkpt>
      <trkpt lat="44.86345" lon="1.50334">
        <ele>130.88</ele>
        <time>2020-07-15T13:34:00Z</time>
      </trkpt>
      <trkpt lat="44.86322" lon="1.50329">
        <ele>128.95</ele>
        <time>2020-07-15T13:34:19Z</time>
      </trkpt>
      <trkpt lat="44.86297" lon="1.50327">
        <ele>126.07</ele>
        <time>2020-07-15T13:34:39Z</time>
      </trkpt>
      <trkpt lat="44.86273" lon="1.50325">
        <ele>124.15</ele>
        <time>2020-07-15T13:34:59Z</time>
      </trkpt>
      <trkpt lat="44.86248" lon="1.50322">
        <ele>123.19</ele>
        <time>2020-07-15T13:35:18Z</time>
      </trkpt>
      <trkpt lat="44.86231" lon="1.50311">
        <ele>123.19</ele>
        <time>2020-07-15T13:35:32Z</time>
      </trkpt>
      <trkpt lat="44.86217" lon="1.50282">
        <ele>121.74</ele>
        <time>2020-07-15T13:35:52Z</time>
      </trkpt>
      <trkpt lat="44.86218" lon="1.5025">
        <ele>121.26</ele>
        <time>2020-07-15T13:36:11Z</time>
      </trkpt>
      <trkpt lat="44.86222" lon="1.50233">
        <ele>120.78</ele>
        <time>2020-07-15T13:36:20Z</time>
      </trkpt>
      <trkpt lat="44.86223" lon="1.50229">
        <ele>121.74</ele>
        <time>2020-07-15T13:36:22Z</time>
      </trkpt>
      <trkpt lat="44.8623" lon="1.50207">
        <ele>119.82</ele>
        <time>2020-07-15T13:36:35Z</time>
      </trkpt>
      <trkpt lat="44.86245" lon="1.50182">
        <ele>119.34</ele>
        <time>2020-07-15T13:36:53Z</time>
      </trkpt>
      <trkpt lat="44.86248" lon="1.50176">
        <ele>119.34</ele>
        <time>2020-07-15T13:36:57Z</time>
      </trkpt>
      <trkpt lat="44.86254" lon="1.50167">
        <ele>120.3</ele>
        <time>2020-07-15T13:37:04Z</time>
      </trkpt>
      <trkpt lat="44.86257" lon="1.50165">
        <ele>118.86</ele>
        <time>2020-07-15T13:37:07Z</time>
      </trkpt>
      <trkpt lat="44.86282" lon="1.50146">
        <ele>119.82</ele>
        <time>2020-07-15T13:37:30Z</time>
      </trkpt>
      <trkpt lat="44.86283" lon="1.50145">
        <ele>118.38</ele>
        <time>2020-07-15T13:37:31Z</time>
      </trkpt>
      <trkpt lat="44.86293" lon="1.50144">
        <ele>119.34</ele>
        <time>2020-07-15T13:37:38Z</time>
      </trkpt>
      <trkpt lat="44.86315" lon="1.50144">
        <ele>120.3</ele>
        <time>2020-07-15T13:37:55Z</time>
      </trkpt>
      <trkpt lat="44.86336" lon="1.50148">
        <ele>120.78</ele>
        <time>2020-07-15T13:38:13Z</time>
      </trkpt>
      <trkpt lat="44.86337" lon="1.50148">
        <ele>120.78</ele>
        <time>2020-07-15T13:38:14Z</time>
      </trkpt>
      <trkpt lat="44.86359" lon="1.50163">
        <ele>120.78</ele>
        <time>2020-07-15T13:38:34Z</time>
      </trkpt>
      <trkpt lat="44.8638" lon="1.50178">
        <ele>122.22</ele>
        <time>2020-07-15T13:38:53Z</time>
      </trkpt>
      <trkpt lat="44.86402" lon="1.50192">
        <ele>122.71</ele>
        <time>2020-07-15T13:39:13Z</time>
      </trkpt>
      <trkpt lat="44.86419" lon="1.50206">
        <ele>122.71</ele>
        <time>2020-07-15T13:39:30Z</time>
      </trkpt>
      <trkpt lat="44.86442" lon="1.5022">
        <ele>122.71</ele>
        <time>2020-07-15T13:39:50Z</time>
      </trkpt>
      <trkpt lat="44.8646" lon="1.50224">
        <ele>120.3</ele>
        <time>2020-07-15T13:40:04Z</time>
      </trkpt>
      <trkpt lat="44.86481" lon="1.50215">
        <ele>118.38</ele>
        <time>2020-07-15T13:40:24Z</time>
      </trkpt>
      <trkpt lat="44.86493" lon="1.50196">
        <ele>115.01</ele>
        <time>2020-07-15T13:40:39Z</time>
      </trkpt>
      <trkpt lat="44.86498" lon="1.50185">
        <ele>113.57</ele>
        <time>2020-07-15T13:40:48Z</time>
      </trkpt>
      <trkpt lat="44.86509" lon="1.50151">
        <ele>110.69</ele>
        <time>2020-07-15T13:41:10Z</time>
      </trkpt>
      <trkpt lat="44.86524" lon="1.50123">
        <ele>109.25</ele>
        <time>2020-07-15T13:41:29Z</time>
      </trkpt>
      <trkpt lat="44.86536" lon="1.50102">
        <ele>107.81</ele>
        <time>2020-07-15T13:41:46Z</time>
      </trkpt>
      <trkpt lat="44.86555" lon="1.50081">
        <ele>107.32</ele>
        <time>2020-07-15T13:42:05Z</time>
      </trkpt>
      <trkpt lat="44.86569" lon="1.50071">
        <ele>106.84</ele>
        <time>2020-07-15T13:42:18Z</time>
      </trkpt>
      <trkpt lat="44.86584" lon="1.50076">
        <ele>106.36</ele>
        <time>2020-07-15T13:42:32Z</time>
      </trkpt>
      <trkpt lat="44.86585" lon="1.50085">
        <ele>106.36</ele>
        <time>2020-07-15T13:42:45Z</time>
      </trkpt>
      <trkpt lat="44.86583" lon="1.50111">
        <ele>108.77</ele>
        <time>2020-07-15T13:43:04Z</time>
      </trkpt>
      <trkpt lat="44.86582" lon="1.50131">
        <ele>110.21</ele>
        <time>2020-07-15T13:43:20Z</time>
      </trkpt>
      <trkpt lat="44.86578" lon="1.5016">
        <ele>111.65</ele>
        <time>2020-07-15T13:43:40Z</time>
      </trkpt>
      <trkpt lat="44.86579" lon="1.50182">
        <ele>112.61</ele>
        <time>2020-07-15T13:43:55Z</time>
      </trkpt>
      <trkpt lat="44.86579" lon="1.50208">
        <ele>114.53</ele>
        <time>2020-07-15T13:44:11Z</time>
      </trkpt>
      <trkpt lat="44.86583" lon="1.50234">
        <ele>116.46</ele>
        <time>2020-07-15T13:44:31Z</time>
      </trkpt>
      <trkpt lat="44.86588" lon="1.50252">
        <ele>117.9</ele>
        <time>2020-07-15T13:44:46Z</time>
      </trkpt>
      <trkpt lat="44.86593" lon="1.50272">
        <ele>119.82</ele>
        <time>2020-07-15T13:45:02Z</time>
      </trkpt>
      <trkpt lat="44.86601" lon="1.50291">
        <ele>121.26</ele>
        <time>2020-07-15T13:45:18Z</time>
      </trkpt>
      <trkpt lat="44.86603" lon="1.50296">
        <ele>122.22</ele>
        <time>2020-07-15T13:45:22Z</time>
      </trkpt>
      <trkpt lat="44.86609" lon="1.50319">
        <ele>124.15</ele>
        <time>2020-07-15T13:45:42Z</time>
      </trkpt>
      <trkpt lat="44.86617" lon="1.50339">
        <ele>126.55</ele>
        <time>2020-07-15T13:46:00Z</time>
      </trkpt>
      <trkpt lat="44.86624" lon="1.50357">
        <ele>128.95</ele>
        <time>2020-07-15T13:46:19Z</time>
      </trkpt>
      <trkpt lat="44.86633" lon="1.50371">
        <ele>132.32</ele>
        <time>2020-07-15T13:46:35Z</time>
      </trkpt>
      <trkpt lat="44.86648" lon="1.50376">
        <ele>133.76</ele>
        <time>2020-07-15T13:46:53Z</time>
      </trkpt>
      <trkpt lat="44.8666" lon="1.50387">
        <ele>136.16</ele>
        <time>2020-07-15T13:47:11Z</time>
      </trkpt>
      <trkpt lat="44.86672" lon="1.50391">
        <ele>138.09</ele>
        <time>2020-07-15T13:47:24Z</time>
      </trkpt>
      <trkpt lat="44.86685" lon="1.50402">
        <ele>139.53</ele>
        <time>2020-07-15T13:47:41Z</time>
      </trkpt>
      <trkpt lat="44.86696" lon="1.50414">
        <ele>141.45</ele>
        <time>2020-07-15T13:47:57Z</time>
      </trkpt>
      <trkpt lat="44.86709" lon="1.50424">
        <ele>142.41</ele>
        <time>2020-07-15T13:48:13Z</time>
      </trkpt>
      <trkpt lat="44.86717" lon="1.50429">
        <ele>142.89</ele>
        <time>2020-07-15T13:48:23Z</time>
      </trkpt>
      <trkpt lat="44.86723" lon="1.50431">
        <ele>141.93</ele>
        <time>2020-07-15T13:48:29Z</time>
      </trkpt>
      <trkpt lat="44.86727" lon="1.50433">
        <ele>141.93</ele>
        <time>2020-07-15T13:48:46Z</time>
      </trkpt>
      <trkpt lat="44.86726" lon="1.50439">
        <ele>142.89</ele>
        <time>2020-07-15T13:49:09Z</time>
      </trkpt>
      <trkpt lat="44.86737" lon="1.50438">
        <ele>142.89</ele>
        <time>2020-07-15T13:49:31Z</time>
      </trkpt>
      <trkpt lat="44.86748" lon="1.50436">
        <ele>143.85</ele>
        <time>2020-07-15T13:49:45Z</time>
      </trkpt>
      <trkpt lat="44.86762" lon="1.50424">
        <ele>144.82</ele>
        <time>2020-07-15T13:50:07Z</time>
      </trkpt>
      <trkpt lat="44.86781" lon="1.50414">
        <ele>146.74</ele>
        <time>2020-07-15T13:50:28Z</time>
      </trkpt>
      <trkpt lat="44.86799" lon="1.50406">
        <ele>148.66</ele>
        <time>2020-07-15T13:50:50Z</time>
      </trkpt>
      <trkpt lat="44.86806" lon="1.50402">
        <ele>150.1</ele>
        <time>2020-07-15T13:50:58Z</time>
      </trkpt>
      <trkpt lat="44.86823" lon="1.50392">
        <ele>151.54</ele>
        <time>2020-07-15T13:51:20Z</time>
      </trkpt>
      <trkpt lat="44.86836" lon="1.50382">
        <ele>153.47</ele>
        <time>2020-07-15T13:51:38Z</time>
      </trkpt>
      <trkpt lat="44.86851" lon="1.50373">
        <ele>154.43</ele>
        <time>2020-07-15T13:51:57Z</time>
      </trkpt>
      <trkpt lat="44.86866" lon="1.50363">
        <ele>156.83</ele>
        <time>2020-07-15T13:52:15Z</time>
      </trkpt>
      <trkpt lat="44.86885" lon="1.50346">
        <ele>158.75</ele>
        <time>2020-07-15T13:52:39Z</time>
      </trkpt>
      <trkpt lat="44.86901" lon="1.50337">
        <ele>161.16</ele>
        <time>2020-07-15T13:52:55Z</time>
      </trkpt>
      <trkpt lat="44.86912" lon="1.50328">
        <ele>162.6</ele>
        <time>2020-07-15T13:53:10Z</time>
      </trkpt>
      <trkpt lat="44.86916" lon="1.50326">
        <ele>163.08</ele>
        <time>2020-07-15T13:53:15Z</time>
      </trkpt>
      <trkpt lat="44.86921" lon="1.50324">
        <ele>163.56</ele>
        <time>2020-07-15T13:53:21Z</time>
      </trkpt>
      <trkpt lat="44.86931" lon="1.50321">
        <ele>165</ele>
        <time>2020-07-15T13:53:32Z</time>
      </trkpt>
      <trkpt lat="44.86945" lon="1.50315">
        <ele>166.93</ele>
        <time>2020-07-15T13:53:48Z</time>
      </trkpt>
      <trkpt lat="44.86961" lon="1.50315">
        <ele>168.37</ele>
        <time>2020-07-15T13:54:04Z</time>
      </trkpt>
      <trkpt lat="44.86982" lon="1.50313">
        <ele>171.25</ele>
        <time>2020-07-15T13:54:26Z</time>
      </trkpt>
      <trkpt lat="44.87003" lon="1.50316">
        <ele>174.14</ele>
        <time>2020-07-15T13:54:50Z</time>
      </trkpt>
      <trkpt lat="44.87021" lon="1.50325">
        <ele>176.06</ele>
        <time>2020-07-15T13:55:08Z</time>
      </trkpt>
      <trkpt lat="44.87034" lon="1.50334">
        <ele>178.46</ele>
        <time>2020-07-15T13:55:25Z</time>
      </trkpt>
      <trkpt lat="44.87052" lon="1.50344">
        <ele>179.9</ele>
        <time>2020-07-15T13:55:45Z</time>
      </trkpt>
      <trkpt lat="44.87056" lon="1.50346">
        <ele>181.35</ele>
        <time>2020-07-15T13:55:50Z</time>
      </trkpt>
      <trkpt lat="44.87072" lon="1.50358">
        <ele>183.27</ele>
        <time>2020-07-15T13:56:09Z</time>
      </trkpt>
      <trkpt lat="44.87088" lon="1.50354">
        <ele>184.71</ele>
        <time>2020-07-15T13:56:33Z</time>
      </trkpt>
      <trkpt lat="44.87097" lon="1.5035">
        <ele>185.67</ele>
        <time>2020-07-15T13:56:57Z</time>
      </trkpt>
      <trkpt lat="44.87115" lon="1.5034">
        <ele>188.08</ele>
        <time>2020-07-15T13:57:16Z</time>
      </trkpt>
      <trkpt lat="44.87127" lon="1.50333">
        <ele>189.04</ele>
        <time>2020-07-15T13:57:36Z</time>
      </trkpt>
      <trkpt lat="44.87145" lon="1.50318">
        <ele>191.92</ele>
        <time>2020-07-15T13:57:58Z</time>
      </trkpt>
      <trkpt lat="44.87161" lon="1.50308">
        <ele>194.32</ele>
        <time>2020-07-15T13:58:17Z</time>
      </trkpt>
      <trkpt lat="44.87178" lon="1.50299">
        <ele>196.25</ele>
        <time>2020-07-15T13:58:38Z</time>
      </trkpt>
      <trkpt lat="44.87187" lon="1.50298">
        <ele>197.69</ele>
        <time>2020-07-15T13:58:45Z</time>
      </trkpt>
      <trkpt lat="44.87199" lon="1.50292">
        <ele>198.17</ele>
        <time>2020-07-15T13:58:58Z</time>
      </trkpt>
      <trkpt lat="44.872" lon="1.50289">
        <ele>198.65</ele>
        <time>2020-07-15T13:59:01Z</time>
      </trkpt>
      <trkpt lat="44.87202" lon="1.50281">
        <ele>199.13</ele>
        <time>2020-07-15T13:59:16Z</time>
      </trkpt>
      <trkpt lat="44.87213" lon="1.50256">
        <ele>200.09</ele>
        <time>2020-07-15T13:59:34Z</time>
      </trkpt>
      <trkpt lat="44.87216" lon="1.50249">
        <ele>200.57</ele>
        <time>2020-07-15T13:59:40Z</time>
      </trkpt>
      <trkpt lat="44.87225" lon="1.50234">
        <ele>200.57</ele>
        <time>2020-07-15T13:59:53Z</time>
      </trkpt>
      <trkpt lat="44.87234" lon="1.50223">
        <ele>200.57</ele>
        <time>2020-07-15T14:00:08Z</time>
      </trkpt>
      <trkpt lat="44.87237" lon="1.50221">
        <ele>200.57</ele>
        <time>2020-07-15T14:00:11Z</time>
      </trkpt>
      <trkpt lat="44.87249" lon="1.50211">
        <ele>200.57</ele>
        <time>2020-07-15T14:00:24Z</time>
      </trkpt>
      <trkpt lat="44.87253" lon="1.50209">
        <ele>200.57</ele>
        <time>2020-07-15T14:00:28Z</time>
      </trkpt>
      <trkpt lat="44.87261" lon="1.50201">
        <ele>201.05</ele>
        <time>2020-07-15T14:00:41Z</time>
      </trkpt>
      <trkpt lat="44.87264" lon="1.50198">
        <ele>201.05</ele>
        <time>2020-07-15T14:00:44Z</time>
      </trkpt>
      <trkpt lat="44.87276" lon="1.50192">
        <ele>201.05</ele>
        <time>2020-07-15T14:00:57Z</time>
      </trkpt>
      <trkpt lat="44.87285" lon="1.50184">
        <ele>201.05</ele>
        <time>2020-07-15T14:01:09Z</time>
      </trkpt>
      <trkpt lat="44.87298" lon="1.50173">
        <ele>199.61</ele>
        <time>2020-07-15T14:01:27Z</time>
      </trkpt>
      <trkpt lat="44.87316" lon="1.50165">
        <ele>199.61</ele>
        <time>2020-07-15T14:01:46Z</time>
      </trkpt>
      <trkpt lat="44.87336" lon="1.5015">
        <ele>199.61</ele>
        <time>2020-07-15T14:02:04Z</time>
      </trkpt>
      <trkpt lat="44.87343" lon="1.50152">
        <ele>199.61</ele>
        <time>2020-07-15T14:02:25Z</time>
      </trkpt>
      <trkpt lat="44.87342" lon="1.50147">
        <ele>199.61</ele>
        <time>2020-07-15T14:02:53Z</time>
      </trkpt>
      <trkpt lat="44.87345" lon="1.50145">
        <ele>199.61</ele>
        <time>2020-07-15T14:03:13Z</time>
      </trkpt>
      <trkpt lat="44.87348" lon="1.50146">
        <ele>199.61</ele>
        <time>2020-07-15T14:03:38Z</time>
      </trkpt>
      <trkpt lat="44.87342" lon="1.50152">
        <ele>199.61</ele>
        <time>2020-07-15T14:04:01Z</time>
      </trkpt>
      <trkpt lat="44.87342" lon="1.50151">
        <ele>199.61</ele>
        <time>2020-07-15T14:04:22Z</time>
      </trkpt>
      <trkpt lat="44.87343" lon="1.50153">
        <ele>199.61</ele>
        <time>2020-07-15T14:04:39Z</time>
      </trkpt>
      <trkpt lat="44.87342" lon="1.50153">
        <ele>199.61</ele>
        <time>2020-07-15T14:05:05Z</time>
      </trkpt>
      <trkpt lat="44.87341" lon="1.50154">
        <ele>199.61</ele>
        <time>2020-07-15T14:05:31Z</time>
      </trkpt>
      <trkpt lat="44.87343" lon="1.50153">
        <ele>199.61</ele>
        <time>2020-07-15T14:06:00Z</time>
      </trkpt>
      <trkpt lat="44.87339" lon="1.50154">
        <ele>199.61</ele>
        <time>2020-07-15T14:06:26Z</time>
      </trkpt>
      <trkpt lat="44.87341" lon="1.50149">
        <ele>199.61</ele>
        <time>2020-07-15T14:06:48Z</time>
      </trkpt>
      <trkpt lat="44.87343" lon="1.50151">
        <ele>199.61</ele>
        <time>2020-07-15T14:07:08Z</time>
      </trkpt>
      <trkpt lat="44.87343" lon="1.50152">
        <ele>199.61</ele>
        <time>2020-07-15T14:07:32Z</time>
      </trkpt>
      <trkpt lat="44.87342" lon="1.50148">
        <ele>199.61</ele>
        <time>2020-07-15T14:07:54Z</time>
      </trkpt>
      <trkpt lat="44.87345" lon="1.50147">
        <ele>199.61</ele>
        <time>2020-07-15T14:08:24Z</time>
      </trkpt>
      <trkpt lat="44.87345" lon="1.5015">
        <ele>199.61</ele>
        <time>2020-07-15T14:08:53Z</time>
      </trkpt>
      <trkpt lat="44.87342" lon="1.50152">
        <ele>199.61</ele>
        <time>2020-07-15T14:09:19Z</time>
      </trkpt>
      <trkpt lat="44.87343" lon="1.5015">
        <ele>199.61</ele>
        <time>2020-07-15T14:09:37Z</time>
      </trkpt>
      <trkpt lat="44.87342" lon="1.50147">
        <ele>199.61</ele>
        <time>2020-07-15T14:09:59Z</time>
      </trkpt>
      <trkpt lat="44.87337" lon="1.5015">
        <ele>199.61</ele>
        <time>2020-07-15T14:10:26Z</time>
      </trkpt>
      <trkpt lat="44.87344" lon="1.50148">
        <ele>199.61</ele>
        <time>2020-07-15T14:10:54Z</time>
      </trkpt>
      <trkpt lat="44.87342" lon="1.5015">
        <ele>198.65</ele>
        <time>2020-07-15T14:11:20Z</time>
      </trkpt>
      <trkpt lat="44.87342" lon="1.50144">
        <ele>198.65</ele>
        <time>2020-07-15T14:11:50Z</time>
      </trkpt>
      <trkpt lat="44.8734" lon="1.50148">
        <ele>198.65</ele>
        <time>2020-07-15T14:12:15Z</time>
      </trkpt>
      <trkpt lat="44.87342" lon="1.50148">
        <ele>198.65</ele>
        <time>2020-07-15T14:12:39Z</time>
      </trkpt>
      <trkpt lat="44.87346" lon="1.50144">
        <ele>198.65</ele>
        <time>2020-07-15T14:13:10Z</time>
      </trkpt>
      <trkpt lat="44.8735" lon="1.50147">
        <ele>198.65</ele>
        <time>2020-07-15T14:13:33Z</time>
      </trkpt>
      <trkpt lat="44.87358" lon="1.50143">
        <ele>198.65</ele>
        <time>2020-07-15T14:13:41Z</time>
      </trkpt>
      <trkpt lat="44.87359" lon="1.50142">
        <ele>198.65</ele>
        <time>2020-07-15T14:13:42Z</time>
      </trkpt>
      <trkpt lat="44.87374" lon="1.50128">
        <ele>198.17</ele>
        <time>2020-07-15T14:14:00Z</time>
      </trkpt>
      <trkpt lat="44.87392" lon="1.50118">
        <ele>197.21</ele>
        <time>2020-07-15T14:14:16Z</time>
      </trkpt>
      <trkpt lat="44.87407" lon="1.50106">
        <ele>195.28</ele>
        <time>2020-07-15T14:14:34Z</time>
      </trkpt>
      <trkpt lat="44.8743" lon="1.50088">
        <ele>194.8</ele>
        <time>2020-07-15T14:14:56Z</time>
      </trkpt>
      <trkpt lat="44.87446" lon="1.50076">
        <ele>192.88</ele>
        <time>2020-07-15T14:15:14Z</time>
      </trkpt>
      <trkpt lat="44.87447" lon="1.50076">
        <ele>192.88</ele>
        <time>2020-07-15T14:15:15Z</time>
      </trkpt>
      <trkpt lat="44.8746" lon="1.50064">
        <ele>191.92</ele>
        <time>2020-07-15T14:15:29Z</time>
      </trkpt>
      <trkpt lat="44.87473" lon="1.50053">
        <ele>190.48</ele>
        <time>2020-07-15T14:15:44Z</time>
      </trkpt>
      <trkpt lat="44.87486" lon="1.50049">
        <ele>189.04</ele>
        <time>2020-07-15T14:15:59Z</time>
      </trkpt>
      <trkpt lat="44.87493" lon="1.50047">
        <ele>188.08</ele>
        <time>2020-07-15T14:16:06Z</time>
      </trkpt>
      <trkpt lat="44.87507" lon="1.50039">
        <ele>185.67</ele>
        <time>2020-07-15T14:16:23Z</time>
      </trkpt>
      <trkpt lat="44.87518" lon="1.50032">
        <ele>184.71</ele>
        <time>2020-07-15T14:16:36Z</time>
      </trkpt>
      <trkpt lat="44.87526" lon="1.50027">
        <ele>184.23</ele>
        <time>2020-07-15T14:16:48Z</time>
      </trkpt>
      <trkpt lat="44.87531" lon="1.50013">
        <ele>182.79</ele>
        <time>2020-07-15T14:17:00Z</time>
      </trkpt>
      <trkpt lat="44.87548" lon="1.50005">
        <ele>179.42</ele>
        <time>2020-07-15T14:17:17Z</time>
      </trkpt>
      <trkpt lat="44.87568" lon="1.49997">
        <ele>177.02</ele>
        <time>2020-07-15T14:17:38Z</time>
      </trkpt>
      <trkpt lat="44.8759" lon="1.49997">
        <ele>174.14</ele>
        <time>2020-07-15T14:17:59Z</time>
      </trkpt>
      <trkpt lat="44.87607" lon="1.49996">
        <ele>171.73</ele>
        <time>2020-07-15T14:18:11Z</time>
      </trkpt>
      <trkpt lat="44.87609" lon="1.49996">
        <ele>171.73</ele>
        <time>2020-07-15T14:18:14Z</time>
      </trkpt>
      <trkpt lat="44.87612" lon="1.49994">
        <ele>172.21</ele>
        <time>2020-07-15T14:18:18Z</time>
      </trkpt>
      <trkpt lat="44.87615" lon="1.49994">
        <ele>170.77</ele>
        <time>2020-07-15T14:18:22Z</time>
      </trkpt>
      <trkpt lat="44.87616" lon="1.49994">
        <ele>170.77</ele>
        <time>2020-07-15T14:18:23Z</time>
      </trkpt>
      <trkpt lat="44.87624" lon="1.49995">
        <ele>169.33</ele>
        <time>2020-07-15T14:18:31Z</time>
      </trkpt>
      <trkpt lat="44.87639" lon="1.49998">
        <ele>165.96</ele>
        <time>2020-07-15T14:18:45Z</time>
      </trkpt>
      <trkpt lat="44.87659" lon="1.49999">
        <ele>163.08</ele>
        <time>2020-07-15T14:19:03Z</time>
      </trkpt>
      <trkpt lat="44.87672" lon="1.50003">
        <ele>160.2</ele>
        <time>2020-07-15T14:19:17Z</time>
      </trkpt>
      <trkpt lat="44.87691" lon="1.5">
        <ele>156.83</ele>
        <time>2020-07-15T14:19:35Z</time>
      </trkpt>
      <trkpt lat="44.87699" lon="1.49994">
        <ele>155.39</ele>
        <time>2020-07-15T14:19:44Z</time>
      </trkpt>
      <trkpt lat="44.87711" lon="1.49986">
        <ele>153.95</ele>
        <time>2020-07-15T14:19:56Z</time>
      </trkpt>
      <trkpt lat="44.87728" lon="1.49984">
        <ele>151.54</ele>
        <time>2020-07-15T14:20:12Z</time>
      </trkpt>
      <trkpt lat="44.87736" lon="1.49982">
        <ele>149.62</ele>
        <time>2020-07-15T14:20:20Z</time>
      </trkpt>
      <trkpt lat="44.87743" lon="1.49977">
        <ele>148.18</ele>
        <time>2020-07-15T14:20:29Z</time>
      </trkpt>
      <trkpt lat="44.8775" lon="1.49978">
        <ele>148.18</ele>
        <time>2020-07-15T14:20:43Z</time>
      </trkpt>
      <trkpt lat="44.87754" lon="1.49976">
        <ele>147.22</ele>
        <time>2020-07-15T14:20:49Z</time>
      </trkpt>
      <trkpt lat="44.87763" lon="1.49972">
        <ele>145.78</ele>
        <time>2020-07-15T14:21:03Z</time>
      </trkpt>
      <trkpt lat="44.87778" lon="1.49961">
        <ele>144.34</ele>
        <time>2020-07-15T14:21:20Z</time>
      </trkpt>
      <trkpt lat="44.87789" lon="1.49955">
        <ele>143.85</ele>
        <time>2020-07-15T14:21:34Z</time>
      </trkpt>
      <trkpt lat="44.87807" lon="1.49944">
        <ele>142.89</ele>
        <time>2020-07-15T14:21:50Z</time>
      </trkpt>
      <trkpt lat="44.87818" lon="1.49912">
        <ele>141.45</ele>
        <time>2020-07-15T14:22:11Z</time>
      </trkpt>
      <trkpt lat="44.87827" lon="1.49891">
        <ele>140.49</ele>
        <time>2020-07-15T14:22:25Z</time>
      </trkpt>
      <trkpt lat="44.87843" lon="1.49869">
        <ele>139.53</ele>
        <time>2020-07-15T14:22:44Z</time>
      </trkpt>
      <trkpt lat="44.87863" lon="1.4985">
        <ele>138.09</ele>
        <time>2020-07-15T14:23:03Z</time>
      </trkpt>
      <trkpt lat="44.87881" lon="1.49828">
        <ele>137.13</ele>
        <time>2020-07-15T14:23:21Z</time>
      </trkpt>
      <trkpt lat="44.87893" lon="1.49816">
        <ele>136.16</ele>
        <time>2020-07-15T14:23:33Z</time>
      </trkpt>
      <trkpt lat="44.87912" lon="1.49808">
        <ele>135.2</ele>
        <time>2020-07-15T14:23:52Z</time>
      </trkpt>
      <trkpt lat="44.87917" lon="1.49805">
        <ele>135.2</ele>
        <time>2020-07-15T14:23:57Z</time>
      </trkpt>
      <trkpt lat="44.87935" lon="1.49797">
        <ele>135.2</ele>
        <time>2020-07-15T14:24:13Z</time>
      </trkpt>
      <trkpt lat="44.87954" lon="1.49794">
        <ele>134.72</ele>
        <time>2020-07-15T14:24:29Z</time>
      </trkpt>
      <trkpt lat="44.87959" lon="1.49791">
        <ele>134.72</ele>
        <time>2020-07-15T14:24:32Z</time>
      </trkpt>
      <trkpt lat="44.87965" lon="1.49788">
        <ele>134.72</ele>
        <time>2020-07-15T14:24:37Z</time>
      </trkpt>
      <trkpt lat="44.87981" lon="1.49771">
        <ele>134.24</ele>
        <time>2020-07-15T14:24:54Z</time>
      </trkpt>
      <trkpt lat="44.87995" lon="1.49757">
        <ele>134.24</ele>
        <time>2020-07-15T14:25:09Z</time>
      </trkpt>
      <trkpt lat="44.88002" lon="1.49751">
        <ele>134.24</ele>
        <time>2020-07-15T14:25:22Z</time>
      </trkpt>
      <trkpt lat="44.88005" lon="1.49733">
        <ele>135.2</ele>
        <time>2020-07-15T14:25:36Z</time>
      </trkpt>
      <trkpt lat="44.88004" lon="1.4973">
        <ele>135.68</ele>
        <time>2020-07-15T14:25:38Z</time>
      </trkpt>
      <trkpt lat="44.87998" lon="1.49705">
        <ele>137.13</ele>
        <time>2020-07-15T14:25:54Z</time>
      </trkpt>
      <trkpt lat="44.87995" lon="1.49697">
        <ele>137.61</ele>
        <time>2020-07-15T14:26:08Z</time>
      </trkpt>
      <trkpt lat="44.87989" lon="1.49678">
        <ele>137.61</ele>
        <time>2020-07-15T14:26:23Z</time>
      </trkpt>
      <trkpt lat="44.87981" lon="1.4965">
        <ele>138.57</ele>
        <time>2020-07-15T14:26:41Z</time>
      </trkpt>
      <trkpt lat="44.87981" lon="1.49644">
        <ele>138.57</ele>
        <time>2020-07-15T14:26:45Z</time>
      </trkpt>
      <trkpt lat="44.87979" lon="1.49621">
        <ele>139.53</ele>
        <time>2020-07-15T14:27:00Z</time>
      </trkpt>
      <trkpt lat="44.87974" lon="1.49598">
        <ele>139.53</ele>
        <time>2020-07-15T14:27:14Z</time>
      </trkpt>
      <trkpt lat="44.87972" lon="1.49582">
        <ele>140.01</ele>
        <time>2020-07-15T14:27:23Z</time>
      </trkpt>
      <trkpt lat="44.87972" lon="1.49577">
        <ele>140.01</ele>
        <time>2020-07-15T14:27:26Z</time>
      </trkpt>
      <trkpt lat="44.87971" lon="1.49547">
        <ele>140.49</ele>
        <time>2020-07-15T14:27:44Z</time>
      </trkpt>
      <trkpt lat="44.87972" lon="1.49511">
        <ele>140.97</ele>
        <time>2020-07-15T14:28:04Z</time>
      </trkpt>
      <trkpt lat="44.87975" lon="1.49485">
        <ele>140.49</ele>
        <time>2020-07-15T14:28:22Z</time>
      </trkpt>
      <trkpt lat="44.87973" lon="1.49481">
        <ele>140.49</ele>
        <time>2020-07-15T14:28:47Z</time>
      </trkpt>
      <trkpt lat="44.87983" lon="1.49448">
        <ele>140.97</ele>
        <time>2020-07-15T14:29:08Z</time>
      </trkpt>
      <trkpt lat="44.87988" lon="1.49418">
        <ele>141.93</ele>
        <time>2020-07-15T14:29:26Z</time>
      </trkpt>
      <trkpt lat="44.87982" lon="1.49387">
        <ele>142.41</ele>
        <time>2020-07-15T14:29:44Z</time>
      </trkpt>
      <trkpt lat="44.87982" lon="1.49385">
        <ele>142.41</ele>
        <time>2020-07-15T14:29:45Z</time>
      </trkpt>
      <trkpt lat="44.87979" lon="1.49345">
        <ele>142.41</ele>
        <time>2020-07-15T14:30:06Z</time>
      </trkpt>
      <trkpt lat="44.87986" lon="1.49312">
        <ele>143.37</ele>
        <time>2020-07-15T14:30:26Z</time>
      </trkpt>
      <trkpt lat="44.87997" lon="1.49281">
        <ele>143.37</ele>
        <time>2020-07-15T14:30:45Z</time>
      </trkpt>
      <trkpt lat="44.88007" lon="1.49249">
        <ele>143.85</ele>
        <time>2020-07-15T14:31:05Z</time>
      </trkpt>
      <trkpt lat="44.88007" lon="1.49252">
        <ele>143.85</ele>
        <time>2020-07-15T14:31:27Z</time>
      </trkpt>
      <trkpt lat="44.88008" lon="1.49249">
        <ele>143.85</ele>
        <time>2020-07-15T14:32:01Z</time>
      </trkpt>
      <trkpt lat="44.88011" lon="1.49233">
        <ele>144.34</ele>
        <time>2020-07-15T14:32:17Z</time>
      </trkpt>
      <trkpt lat="44.88013" lon="1.49193">
        <ele>144.82</ele>
        <time>2020-07-15T14:32:39Z</time>
      </trkpt>
      <trkpt lat="44.88013" lon="1.49164">
        <ele>145.3</ele>
        <time>2020-07-15T14:32:54Z</time>
      </trkpt>
      <trkpt lat="44.8801" lon="1.49133">
        <ele>145.78</ele>
        <time>2020-07-15T14:33:14Z</time>
      </trkpt>
      <trkpt lat="44.88004" lon="1.49098">
        <ele>145.78</ele>
        <time>2020-07-15T14:33:34Z</time>
      </trkpt>
      <trkpt lat="44.8801" lon="1.49088">
        <ele>144.34</ele>
        <time>2020-07-15T14:33:42Z</time>
      </trkpt>
      <trkpt lat="44.88023" lon="1.49068">
        <ele>143.37</ele>
        <time>2020-07-15T14:33:58Z</time>
      </trkpt>
      <trkpt lat="44.88034" lon="1.49042">
        <ele>141.45</ele>
        <time>2020-07-15T14:34:14Z</time>
      </trkpt>
      <trkpt lat="44.8805" lon="1.49025">
        <ele>140.97</ele>
        <time>2020-07-15T14:34:36Z</time>
      </trkpt>
      <trkpt lat="44.88053" lon="1.49024">
        <ele>139.53</ele>
        <time>2020-07-15T14:34:39Z</time>
      </trkpt>
      <trkpt lat="44.88074" lon="1.49009">
        <ele>138.57</ele>
        <time>2020-07-15T14:34:57Z</time>
      </trkpt>
      <trkpt lat="44.8809" lon="1.48992">
        <ele>137.61</ele>
        <time>2020-07-15T14:35:15Z</time>
      </trkpt>
      <trkpt lat="44.88097" lon="1.48987">
        <ele>137.61</ele>
        <time>2020-07-15T14:35:22Z</time>
      </trkpt>
      <trkpt lat="44.88113" lon="1.48976">
        <ele>137.13</ele>
        <time>2020-07-15T14:35:36Z</time>
      </trkpt>
      <trkpt lat="44.88121" lon="1.48959">
        <ele>137.13</ele>
        <time>2020-07-15T14:35:48Z</time>
      </trkpt>
      <trkpt lat="44.88123" lon="1.48956">
        <ele>137.13</ele>
        <time>2020-07-15T14:35:51Z</time>
      </trkpt>
      <trkpt lat="44.88133" lon="1.48944">
        <ele>136.64</ele>
        <time>2020-07-15T14:36:03Z</time>
      </trkpt>
      <trkpt lat="44.88137" lon="1.48933">
        <ele>136.64</ele>
        <time>2020-07-15T14:36:10Z</time>
      </trkpt>
      <trkpt lat="44.88152" lon="1.48917">
        <ele>135.68</ele>
        <time>2020-07-15T14:36:28Z</time>
      </trkpt>
      <trkpt lat="44.88167" lon="1.48896">
        <ele>135.2</ele>
        <time>2020-07-15T14:36:44Z</time>
      </trkpt>
      <trkpt lat="44.88174" lon="1.48886">
        <ele>134.72</ele>
        <time>2020-07-15T14:36:51Z</time>
      </trkpt>
      <trkpt lat="44.88185" lon="1.48877">
        <ele>133.76</ele>
        <time>2020-07-15T14:37:06Z</time>
      </trkpt>
      <trkpt lat="44.88199" lon="1.48861">
        <ele>132.32</ele>
        <time>2020-07-15T14:37:22Z</time>
      </trkpt>
      <trkpt lat="44.88199" lon="1.48861">
        <ele>132.32</ele>
        <time>2020-07-15T14:37:23Z</time>
      </trkpt>
      <trkpt lat="44.88212" lon="1.48849">
        <ele>130.4</ele>
        <time>2020-07-15T14:37:39Z</time>
      </trkpt>
      <trkpt lat="44.88225" lon="1.48836">
        <ele>129.92</ele>
        <time>2020-07-15T14:37:52Z</time>
      </trkpt>
      <trkpt lat="44.88233" lon="1.48829">
        <ele>129.43</ele>
        <time>2020-07-15T14:38:02Z</time>
      </trkpt>
      <trkpt lat="44.88243" lon="1.4882">
        <ele>128.95</ele>
        <time>2020-07-15T14:38:16Z</time>
      </trkpt>
      <trkpt lat="44.88253" lon="1.48806">
        <ele>127.99</ele>
        <time>2020-07-15T14:38:31Z</time>
      </trkpt>
      <trkpt lat="44.8826" lon="1.48797">
        <ele>126.55</ele>
        <time>2020-07-15T14:38:39Z</time>
      </trkpt>
      <trkpt lat="44.88279" lon="1.48777">
        <ele>125.11</ele>
        <time>2020-07-15T14:38:58Z</time>
      </trkpt>
      <trkpt lat="44.88296" lon="1.48757">
        <ele>123.19</ele>
        <time>2020-07-15T14:39:17Z</time>
      </trkpt>
      <trkpt lat="44.88313" lon="1.48738">
        <ele>120.3</ele>
        <time>2020-07-15T14:39:36Z</time>
      </trkpt>
      <trkpt lat="44.88331" lon="1.48722">
        <ele>118.86</ele>
        <time>2020-07-15T14:39:54Z</time>
      </trkpt>
      <trkpt lat="44.88346" lon="1.48708">
        <ele>116.46</ele>
        <time>2020-07-15T14:40:10Z</time>
      </trkpt>
      <trkpt lat="44.88362" lon="1.4869">
        <ele>115.5</ele>
        <time>2020-07-15T14:40:27Z</time>
      </trkpt>
      <trkpt lat="44.88378" lon="1.48671">
        <ele>112.61</ele>
        <time>2020-07-15T14:40:47Z</time>
      </trkpt>
      <trkpt lat="44.88398" lon="1.48658">
        <ele>110.21</ele>
        <time>2020-07-15T14:41:07Z</time>
      </trkpt>
      <trkpt lat="44.88401" lon="1.48654">
        <ele>109.73</ele>
        <time>2020-07-15T14:41:10Z</time>
      </trkpt>
      <trkpt lat="44.88409" lon="1.48645">
        <ele>108.29</ele>
        <time>2020-07-15T14:41:19Z</time>
      </trkpt>
      <trkpt lat="44.88414" lon="1.4864">
        <ele>107.81</ele>
        <time>2020-07-15T14:41:36Z</time>
      </trkpt>
      <trkpt lat="44.88432" lon="1.48629">
        <ele>105.88</ele>
        <time>2020-07-15T14:41:55Z</time>
      </trkpt>
      <trkpt lat="44.88451" lon="1.48615">
        <ele>103.96</ele>
        <time>2020-07-15T14:42:13Z</time>
      </trkpt>
      <trkpt lat="44.88464" lon="1.48608">
        <ele>101.08</ele>
        <time>2020-07-15T14:42:26Z</time>
      </trkpt>
      <trkpt lat="44.88487" lon="1.48595">
        <ele>98.67</ele>
        <time>2020-07-15T14:42:46Z</time>
      </trkpt>
      <trkpt lat="44.88507" lon="1.48579">
        <ele>96.75</ele>
        <time>2020-07-15T14:43:06Z</time>
      </trkpt>
      <trkpt lat="44.8852" lon="1.48556">
        <ele>95.79</ele>
        <time>2020-07-15T14:43:24Z</time>
      </trkpt>
      <trkpt lat="44.88523" lon="1.48546">
        <ele>93.87</ele>
        <time>2020-07-15T14:43:30Z</time>
      </trkpt>
      <trkpt lat="44.88524" lon="1.48526">
        <ele>93.39</ele>
        <time>2020-07-15T14:43:51Z</time>
      </trkpt>
      <trkpt lat="44.88525" lon="1.48522">
        <ele>93.39</ele>
        <time>2020-07-15T14:43:55Z</time>
      </trkpt>
      <trkpt lat="44.88538" lon="1.485">
        <ele>92.9</ele>
        <time>2020-07-15T14:44:15Z</time>
      </trkpt>
      <trkpt lat="44.8854" lon="1.48504">
        <ele>92.9</ele>
        <time>2020-07-15T14:44:40Z</time>
      </trkpt>
      <trkpt lat="44.88537" lon="1.48501">
        <ele>92.9</ele>
        <time>2020-07-15T14:44:44Z</time>
      </trkpt>
      <trkpt lat="44.88534" lon="1.48498">
        <ele>92.9</ele>
        <time>2020-07-15T14:44:47Z</time>
      </trkpt>
      <trkpt lat="44.88529" lon="1.48497">
        <ele>92.9</ele>
        <time>2020-07-15T14:44:53Z</time>
      </trkpt>
      <trkpt lat="44.88515" lon="1.48505">
        <ele>92.9</ele>
        <time>2020-07-15T14:45:06Z</time>
      </trkpt>
      <trkpt lat="44.88504" lon="1.48513">
        <ele>92.42</ele>
        <time>2020-07-15T14:45:24Z</time>
      </trkpt>
      <trkpt lat="44.885" lon="1.48515">
        <ele>92.42</ele>
        <time>2020-07-15T14:45:38Z</time>
      </trkpt>
      <trkpt lat="44.88489" lon="1.4849">
        <ele>90.5</ele>
        <time>2020-07-15T14:45:56Z</time>
      </trkpt>
      <trkpt lat="44.88499" lon="1.48465">
        <ele>90.5</ele>
        <time>2020-07-15T14:46:12Z</time>
      </trkpt>
      <trkpt lat="44.88509" lon="1.48451">
        <ele>90.02</ele>
        <time>2020-07-15T14:46:24Z</time>
      </trkpt>
      <trkpt lat="44.88522" lon="1.48435">
        <ele>90.02</ele>
        <time>2020-07-15T14:46:39Z</time>
      </trkpt>
      <trkpt lat="44.88523" lon="1.48435">
        <ele>90.02</ele>
        <time>2020-07-15T14:46:40Z</time>
      </trkpt>
      <trkpt lat="44.88526" lon="1.48432">
        <ele>90.02</ele>
        <time>2020-07-15T14:46:43Z</time>
      </trkpt>
      <trkpt lat="44.88543" lon="1.48413">
        <ele>90.02</ele>
        <time>2020-07-15T14:46:59Z</time>
      </trkpt>
      <trkpt lat="44.88554" lon="1.48397">
        <ele>89.54</ele>
        <time>2020-07-15T14:47:12Z</time>
      </trkpt>
      <trkpt lat="44.88562" lon="1.48384">
        <ele>89.54</ele>
        <time>2020-07-15T14:47:26Z</time>
      </trkpt>
      <trkpt lat="44.88574" lon="1.48365">
        <ele>89.54</ele>
        <time>2020-07-15T14:47:37Z</time>
      </trkpt>
      <trkpt lat="44.88594" lon="1.48334">
        <ele>89.54</ele>
        <time>2020-07-15T14:47:53Z</time>
      </trkpt>
      <trkpt lat="44.88609" lon="1.48311">
        <ele>89.06</ele>
        <time>2020-07-15T14:48:08Z</time>
      </trkpt>
      <trkpt lat="44.8861" lon="1.48308">
        <ele>89.06</ele>
        <time>2020-07-15T14:48:10Z</time>
      </trkpt>
      <trkpt lat="44.88621" lon="1.48289">
        <ele>89.06</ele>
        <time>2020-07-15T14:48:24Z</time>
      </trkpt>
      <trkpt lat="44.88623" lon="1.48281">
        <ele>89.06</ele>
        <time>2020-07-15T14:48:30Z</time>
      </trkpt>
      <trkpt lat="44.88623" lon="1.48278">
        <ele>89.06</ele>
        <time>2020-07-15T14:48:32Z</time>
      </trkpt>
      <trkpt lat="44.88636" lon="1.48256">
        <ele>89.06</ele>
        <time>2020-07-15T14:48:50Z</time>
      </trkpt>
      <trkpt lat="44.88651" lon="1.48236">
        <ele>88.58</ele>
        <time>2020-07-15T14:49:05Z</time>
      </trkpt>
      <trkpt lat="44.88654" lon="1.48232">
        <ele>88.58</ele>
        <time>2020-07-15T14:49:08Z</time>
      </trkpt>
      <trkpt lat="44.88669" lon="1.4821">
        <ele>88.1</ele>
        <time>2020-07-15T14:49:25Z</time>
      </trkpt>
      <trkpt lat="44.88673" lon="1.48203">
        <ele>88.1</ele>
        <time>2020-07-15T14:49:30Z</time>
      </trkpt>
      <trkpt lat="44.88675" lon="1.482">
        <ele>88.1</ele>
        <time>2020-07-15T14:49:32Z</time>
      </trkpt>
      <trkpt lat="44.88688" lon="1.48175">
        <ele>88.1</ele>
        <time>2020-07-15T14:49:48Z</time>
      </trkpt>
      <trkpt lat="44.88704" lon="1.4815">
        <ele>88.1</ele>
        <time>2020-07-15T14:50:06Z</time>
      </trkpt>
      <trkpt lat="44.88716" lon="1.48132">
        <ele>88.1</ele>
        <time>2020-07-15T14:50:23Z</time>
      </trkpt>
      <trkpt lat="44.88722" lon="1.48117">
        <ele>88.58</ele>
        <time>2020-07-15T14:50:33Z</time>
      </trkpt>
      <trkpt lat="44.88731" lon="1.48102">
        <ele>88.58</ele>
        <time>2020-07-15T14:50:47Z</time>
      </trkpt>
      <trkpt lat="44.88733" lon="1.48096">
        <ele>88.58</ele>
        <time>2020-07-15T14:51:02Z</time>
      </trkpt>
      <trkpt lat="44.88733" lon="1.48097">
        <ele>88.58</ele>
        <time>2020-07-15T14:51:04Z</time>
      </trkpt>
      <trkpt lat="44.88738" lon="1.48108">
        <ele>88.58</ele>
        <time>2020-07-15T14:51:12Z</time>
      </trkpt>
      <trkpt lat="44.88757" lon="1.4813">
        <ele>88.1</ele>
        <time>2020-07-15T14:51:31Z</time>
      </trkpt>
      <trkpt lat="44.88777" lon="1.48139">
        <ele>89.54</ele>
        <time>2020-07-15T14:51:48Z</time>
      </trkpt>
      <trkpt lat="44.88796" lon="1.48136">
        <ele>89.54</ele>
        <time>2020-07-15T14:52:05Z</time>
      </trkpt>
      <trkpt lat="44.88799" lon="1.48133">
        <ele>89.54</ele>
        <time>2020-07-15T14:52:08Z</time>
      </trkpt>
      <trkpt lat="44.88817" lon="1.48109">
        <ele>90.02</ele>
        <time>2020-07-15T14:52:29Z</time>
      </trkpt>
      <trkpt lat="44.88833" lon="1.48091">
        <ele>90.02</ele>
        <time>2020-07-15T14:52:45Z</time>
      </trkpt>
      <trkpt lat="44.88849" lon="1.48075">
        <ele>90.5</ele>
        <time>2020-07-15T14:53:01Z</time>
      </trkpt>
      <trkpt lat="44.88861" lon="1.48067">
        <ele>90.5</ele>
        <time>2020-07-15T14:53:12Z</time>
      </trkpt>
      <trkpt lat="44.8887" lon="1.48054">
        <ele>90.5</ele>
        <time>2020-07-15T14:53:26Z</time>
      </trkpt>
      <trkpt lat="44.8889" lon="1.48037">
        <ele>90.5</ele>
        <time>2020-07-15T14:53:41Z</time>
      </trkpt>
      <trkpt lat="44.88898" lon="1.48025">
        <ele>90.5</ele>
        <time>2020-07-15T14:53:56Z</time>
      </trkpt>
      <trkpt lat="44.88921" lon="1.48">
        <ele>90.02</ele>
        <time>2020-07-15T14:54:15Z</time>
      </trkpt>
      <trkpt lat="44.88924" lon="1.47998">
        <ele>90.02</ele>
        <time>2020-07-15T14:54:18Z</time>
      </trkpt>
      <trkpt lat="44.88925" lon="1.47998">
        <ele>90.02</ele>
        <time>2020-07-15T14:54:19Z</time>
      </trkpt>
      <trkpt lat="44.88942" lon="1.47982">
        <ele>90.5</ele>
        <time>2020-07-15T14:54:36Z</time>
      </trkpt>
      <trkpt lat="44.8896" lon="1.47967">
        <ele>90.5</ele>
        <time>2020-07-15T14:54:53Z</time>
      </trkpt>
      <trkpt lat="44.88963" lon="1.47965">
        <ele>90.5</ele>
        <time>2020-07-15T14:54:55Z</time>
      </trkpt>
      <trkpt lat="44.88964" lon="1.47964">
        <ele>90.5</ele>
        <time>2020-07-15T14:54:56Z</time>
      </trkpt>
      <trkpt lat="44.88965" lon="1.47963">
        <ele>90.5</ele>
        <time>2020-07-15T14:54:57Z</time>
      </trkpt>
      <trkpt lat="44.88966" lon="1.47962">
        <ele>90.5</ele>
        <time>2020-07-15T14:54:58Z</time>
      </trkpt>
      <trkpt lat="44.88967" lon="1.47961">
        <ele>90.5</ele>
        <time>2020-07-15T14:54:59Z</time>
      </trkpt>
      <trkpt lat="44.88989" lon="1.47941">
        <ele>90.98</ele>
        <time>2020-07-15T14:55:21Z</time>
      </trkpt>
      <trkpt lat="44.89005" lon="1.47929">
        <ele>90.98</ele>
        <time>2020-07-15T14:55:36Z</time>
      </trkpt>
      <trkpt lat="44.89019" lon="1.47917">
        <ele>90.98</ele>
        <time>2020-07-15T14:55:51Z</time>
      </trkpt>
      <trkpt lat="44.89028" lon="1.47912">
        <ele>90.98</ele>
        <time>2020-07-15T14:56:05Z</time>
      </trkpt>
      <trkpt lat="44.89039" lon="1.47897">
        <ele>90.98</ele>
        <time>2020-07-15T14:56:22Z</time>
      </trkpt>
      <trkpt lat="44.89059" lon="1.47885">
        <ele>90.5</ele>
        <time>2020-07-15T14:56:43Z</time>
      </trkpt>
      <trkpt lat="44.89076" lon="1.47872">
        <ele>90.5</ele>
        <time>2020-07-15T14:56:59Z</time>
      </trkpt>
      <trkpt lat="44.89095" lon="1.47859">
        <ele>90.5</ele>
        <time>2020-07-15T14:57:16Z</time>
      </trkpt>
      <trkpt lat="44.89107" lon="1.47852">
        <ele>90.5</ele>
        <time>2020-07-15T14:57:27Z</time>
      </trkpt>
      <trkpt lat="44.89109" lon="1.47851">
        <ele>90.5</ele>
        <time>2020-07-15T14:57:28Z</time>
      </trkpt>
      <trkpt lat="44.89123" lon="1.47844">
        <ele>90.5</ele>
        <time>2020-07-15T14:57:43Z</time>
      </trkpt>
      <trkpt lat="44.89142" lon="1.47833">
        <ele>90.5</ele>
        <time>2020-07-15T14:57:59Z</time>
      </trkpt>
      <trkpt lat="44.89166" lon="1.47821">
        <ele>90.98</ele>
        <time>2020-07-15T14:58:21Z</time>
      </trkpt>
      <trkpt lat="44.89184" lon="1.4781">
        <ele>90.98</ele>
        <time>2020-07-15T14:58:39Z</time>
      </trkpt>
      <trkpt lat="44.89198" lon="1.47798">
        <ele>90.98</ele>
        <time>2020-07-15T14:58:56Z</time>
      </trkpt>
      <trkpt lat="44.89204" lon="1.47791">
        <ele>90.98</ele>
        <time>2020-07-15T14:59:02Z</time>
      </trkpt>
      <trkpt lat="44.89223" lon="1.47769">
        <ele>90.98</ele>
        <time>2020-07-15T14:59:23Z</time>
      </trkpt>
      <trkpt lat="44.89237" lon="1.47748">
        <ele>90.98</ele>
        <time>2020-07-15T14:59:40Z</time>
      </trkpt>
      <trkpt lat="44.89242" lon="1.47745">
        <ele>90.98</ele>
        <time>2020-07-15T14:59:45Z</time>
      </trkpt>
      <trkpt lat="44.89244" lon="1.47745">
        <ele>90.98</ele>
        <time>2020-07-15T14:59:46Z</time>
      </trkpt>
      <trkpt lat="44.89246" lon="1.47746">
        <ele>90.98</ele>
        <time>2020-07-15T14:59:47Z</time>
      </trkpt>
      <trkpt lat="44.89247" lon="1.47746">
        <ele>91.46</ele>
        <time>2020-07-15T14:59:48Z</time>
      </trkpt>
      <trkpt lat="44.89249" lon="1.47746">
        <ele>91.46</ele>
        <time>2020-07-15T14:59:50Z</time>
      </trkpt>
      <trkpt lat="44.89252" lon="1.47744">
        <ele>91.46</ele>
        <time>2020-07-15T14:59:53Z</time>
      </trkpt>
      <trkpt lat="44.89268" lon="1.47737">
        <ele>91.46</ele>
        <time>2020-07-15T15:00:08Z</time>
      </trkpt>
      <trkpt lat="44.89284" lon="1.47731">
        <ele>91.46</ele>
        <time>2020-07-15T15:00:26Z</time>
      </trkpt>
      <trkpt lat="44.89292" lon="1.47732">
        <ele>91.94</ele>
        <time>2020-07-15T15:00:43Z</time>
      </trkpt>
      <trkpt lat="44.89294" lon="1.47727">
        <ele>91.94</ele>
        <time>2020-07-15T15:01:09Z</time>
      </trkpt>
      <trkpt lat="44.89301" lon="1.47737">
        <ele>92.42</ele>
        <time>2020-07-15T15:01:30Z</time>
      </trkpt>
      <trkpt lat="44.89322" lon="1.47758">
        <ele>93.87</ele>
        <time>2020-07-15T15:01:48Z</time>
      </trkpt>
      <trkpt lat="44.89333" lon="1.47781">
        <ele>94.35</ele>
        <time>2020-07-15T15:02:05Z</time>
      </trkpt>
      <trkpt lat="44.89339" lon="1.47807">
        <ele>94.83</ele>
        <time>2020-07-15T15:02:23Z</time>
      </trkpt>
      <trkpt lat="44.89335" lon="1.47813">
        <ele>94.83</ele>
        <time>2020-07-15T15:02:39Z</time>
      </trkpt>
      <trkpt lat="44.89336" lon="1.47814">
        <ele>94.83</ele>
        <time>2020-07-15T15:02:40Z</time>
      </trkpt>
      <trkpt lat="44.89354" lon="1.47829">
        <ele>95.79</ele>
        <time>2020-07-15T15:03:00Z</time>
      </trkpt>
      <trkpt lat="44.8937" lon="1.47841">
        <ele>96.27</ele>
        <time>2020-07-15T15:03:17Z</time>
      </trkpt>
      <trkpt lat="44.89379" lon="1.47819">
        <ele>97.23</ele>
        <time>2020-07-15T15:03:36Z</time>
      </trkpt>
      <trkpt lat="44.89385" lon="1.47817">
        <ele>97.23</ele>
        <time>2020-07-15T15:03:55Z</time>
      </trkpt>
      <trkpt lat="44.89389" lon="1.47805">
        <ele>97.71</ele>
        <time>2020-07-15T15:04:14Z</time>
      </trkpt>
      <trkpt lat="44.89395" lon="1.47796">
        <ele>98.67</ele>
        <time>2020-07-15T15:04:33Z</time>
      </trkpt>
      <trkpt lat="44.89396" lon="1.47796">
        <ele>98.67</ele>
        <time>2020-07-15T15:05:02Z</time>
      </trkpt>
      <trkpt lat="44.89409" lon="1.47786">
        <ele>98.67</ele>
        <time>2020-07-15T15:05:22Z</time>
      </trkpt>
      <trkpt lat="44.89416" lon="1.47769">
        <ele>98.67</ele>
        <time>2020-07-15T15:05:41Z</time>
      </trkpt>
      <trkpt lat="44.89418" lon="1.47768">
        <ele>98.67</ele>
        <time>2020-07-15T15:06:06Z</time>
      </trkpt>
      <trkpt lat="44.89411" lon="1.47766">
        <ele>98.67</ele>
        <time>2020-07-15T15:06:25Z</time>
      </trkpt>
      <trkpt lat="44.89414" lon="1.47767">
        <ele>99.15</ele>
        <time>2020-07-15T15:06:46Z</time>
      </trkpt>
      <trkpt lat="44.89414" lon="1.47769">
        <ele>97.71</ele>
        <time>2020-07-15T15:07:08Z</time>
      </trkpt>
      <trkpt lat="44.89409" lon="1.47769">
        <ele>96.75</ele>
        <time>2020-07-15T15:07:14Z</time>
      </trkpt>
      <trkpt lat="44.89408" lon="1.47769">
        <ele>96.75</ele>
        <time>2020-07-15T15:07:15Z</time>
      </trkpt>
      <trkpt lat="44.89411" lon="1.47753">
        <ele>97.71</ele>
        <time>2020-07-15T15:07:29Z</time>
      </trkpt>
      <trkpt lat="44.89403" lon="1.47725">
        <ele>95.79</ele>
        <time>2020-07-15T15:07:46Z</time>
      </trkpt>
      <trkpt lat="44.89392" lon="1.47708">
        <ele>95.31</ele>
        <time>2020-07-15T15:08:06Z</time>
      </trkpt>
      <trkpt lat="44.89387" lon="1.477">
        <ele>95.31</ele>
        <time>2020-07-15T15:08:24Z</time>
      </trkpt>
      <trkpt lat="44.89387" lon="1.47701">
        <ele>94.35</ele>
        <time>2020-07-15T15:08:45Z</time>
      </trkpt>
      <trkpt lat="44.89404" lon="1.4769">
        <ele>94.35</ele>
        <time>2020-07-15T15:18:58Z</time>
      </trkpt>
      <trkpt lat="44.89406" lon="1.4771">
        <ele>94.35</ele>
        <time>2020-07-15T15:19:24Z</time>
      </trkpt>
      <trkpt lat="44.89418" lon="1.4771">
        <ele>94.35</ele>
        <time>2020-07-15T15:19:43Z</time>
      </trkpt>
      <trkpt lat="44.89432" lon="1.47698">
        <ele>93.39</ele>
        <time>2020-07-15T15:20:03Z</time>
      </trkpt>
      <trkpt lat="44.89451" lon="1.47691">
        <ele>93.87</ele>
        <time>2020-07-15T15:20:22Z</time>
      </trkpt>
      <trkpt lat="44.89461" lon="1.47687">
        <ele>93.39</ele>
        <time>2020-07-15T15:20:42Z</time>
      </trkpt>
      <trkpt lat="44.89474" lon="1.47684">
        <ele>93.39</ele>
        <time>2020-07-15T15:20:54Z</time>
      </trkpt>
      <trkpt lat="44.89482" lon="1.47683">
        <ele>92.42</ele>
        <time>2020-07-15T15:20:58Z</time>
      </trkpt>
      <trkpt lat="44.895" lon="1.47683">
        <ele>93.87</ele>
        <time>2020-07-15T15:21:17Z</time>
      </trkpt>
      <trkpt lat="44.89507" lon="1.47694">
        <ele>94.35</ele>
        <time>2020-07-15T15:21:33Z</time>
      </trkpt>
      <trkpt lat="44.8951" lon="1.47705">
        <ele>94.83</ele>
        <time>2020-07-15T15:21:53Z</time>
      </trkpt>
      <trkpt lat="44.89513" lon="1.4771">
        <ele>94.83</ele>
        <time>2020-07-15T15:22:17Z</time>
      </trkpt>
      <trkpt lat="44.89517" lon="1.47708">
        <ele>95.79</ele>
        <time>2020-07-15T15:22:35Z</time>
      </trkpt>
      <trkpt lat="44.89519" lon="1.47691">
        <ele>99.63</ele>
        <time>2020-07-15T15:23:50Z</time>
      </trkpt>
      <trkpt lat="44.89517" lon="1.47683">
        <ele>101.56</ele>
        <time>2020-07-15T15:24:13Z</time>
      </trkpt>
      <trkpt lat="44.89516" lon="1.47676">
        <ele>101.56</ele>
        <time>2020-07-15T15:24:39Z</time>
      </trkpt>
      <trkpt lat="44.8952" lon="1.47673">
        <ele>101.56</ele>
        <time>2020-07-15T15:25:04Z</time>
      </trkpt>
      <trkpt lat="44.89523" lon="1.47682">
        <ele>102.04</ele>
        <time>2020-07-15T15:25:31Z</time>
      </trkpt>
      <trkpt lat="44.89524" lon="1.47686">
        <ele>102.04</ele>
        <time>2020-07-15T15:25:55Z</time>
      </trkpt>
      <trkpt lat="44.89531" lon="1.4768">
        <ele>102.52</ele>
        <time>2020-07-15T15:26:13Z</time>
      </trkpt>
    </trkseg>
  </trk>
</gpx>